Date StartTime U_cm/s V_cm/s W_cm/s Ustd_cm/s Vstd_cm/s Wstd_cm/s Uvar_(cm/s)^2 Vvar_(cm/s)^2 Wvar_(cm/s)^2 KE_(m/s)^2 TurbulentKE_(m/s)^2 HorizWindSpeed_cm/s FrictionSpeec_cm/s DragCoef SpeedOfSound_m/s SonicTemperature_C Pressure_mb 
04/13/2014  00:00:00     -109.402       93.301      -16.727       49.854       47.206       29.312     2485.391     2228.440      859.178        1.326        0.279      143.784       29.395        0.042      340.599       14.732      858.097
04/13/2014  00:01:00     -102.459        4.040      -12.914       38.887       32.183       17.398     1512.170     1035.767      302.683        0.677        0.143      102.538        6.110        0.004      340.650       14.818      858.105
04/13/2014  00:02:00     -114.451        3.604      -15.305       43.992       45.573       22.824     1935.255     2076.867      520.944        0.894        0.227      114.508       16.463        0.021      340.488       14.541      858.107
04/13/2014  00:03:00     -138.888       -7.927       -7.433       52.857       67.772       33.064     2793.832     4592.978     1093.230        1.394        0.424      139.114       17.255        0.015      340.408       14.406      858.132
04/13/2014  00:04:00     -140.090      -28.155      -11.243       44.725       39.406       33.293     2000.321     1552.867     1108.432        1.260        0.233      142.891       26.420        0.034      340.197       14.052      858.148
04/13/2014  00:05:00     -104.567       28.863      -26.159       36.552       42.307       19.489     1336.084     1789.861      379.831        0.798        0.175      108.477       16.256        0.022      340.217       14.085      858.169
04/13/2014  00:06:00     -132.593       53.231      -21.963       65.693       46.092       29.489     4315.562     2124.505      869.626        1.410        0.365      142.879       26.405        0.034      340.315       14.249      858.171
04/13/2014  00:07:00      -89.310       12.307      -18.952       33.782       71.980       27.081     1141.212     5181.079      733.371        0.777        0.353       90.154       22.178        0.061      340.333       14.280      858.167
04/13/2014  00:08:00     -137.348      -73.320      -24.020       54.111       33.485       22.238     2927.964     1121.238      494.511        1.468        0.227      155.693       11.228        0.005      340.155       13.978      858.176
04/13/2014  00:09:00     -167.145      -48.506      -13.540       74.551       45.778       30.799     5557.814     2095.650      948.564        1.954        0.430      174.041       38.146        0.048      339.858       13.478      858.182
04/13/2014  00:10:00      -85.520       -6.099       -8.789       34.059       20.999       23.736     1160.035      440.977      563.421        0.480        0.108       85.738       20.416        0.057      339.889       13.531      858.194
04/13/2014  00:11:00      -39.552       13.460       -2.276       39.831       39.429       23.953     1586.542     1554.665      573.754        0.273        0.186       41.780       15.882        0.145      340.204       14.064      858.207
04/13/2014  00:12:00      -44.850       10.365       -2.746       31.078       55.840       21.480      965.872     3118.117      461.391        0.334        0.227       46.032       20.752        0.203      340.187       14.034      858.213
04/13/2014  00:13:00      -63.142       74.997      -14.016       26.695       45.328       23.942      712.608     2054.632      573.241        0.657        0.167       98.038       22.987        0.055      340.327       14.272      858.228
04/13/2014  00:14:00      -43.658       58.341      -10.281       32.001       43.728       21.719     1024.078     1912.113      471.695        0.441        0.170       72.867       17.102        0.055      340.312       14.245      858.249
04/13/2014  00:15:00      -76.302       59.407        0.360       51.850       49.139       35.250     2688.441     2414.606     1242.550        0.785        0.317       96.701       29.725        0.094      340.468       14.510      858.268
04/13/2014  00:16:00      -87.553      110.106      -19.623       48.998       51.005       30.765     2400.846     2601.541      946.466        1.306        0.297      140.673       32.144        0.052      340.489       14.545      858.294
04/13/2014  00:17:00      -94.575      169.501      -26.062       68.084       59.061       41.139     4635.404     3488.163     1692.387        2.408        0.491      194.101       32.488        0.028      340.511       14.580      858.311
04/13/2014  00:18:00     -171.959      148.277      -38.196       78.102       78.579       45.418     6099.971     6174.677     2062.754        3.367        0.717      227.059       51.550        0.052      340.584       14.703      858.332
04/13/2014  00:19:00     -115.675      121.112      -12.966       61.024       68.244       38.658     3723.889     4657.234     1494.424        1.904        0.494      167.478       36.316        0.047      340.509       14.577      858.354
04/13/2014  00:20:00     -153.710      183.050      -40.723       77.733       83.864       44.249     6042.368     7033.145     1957.957        3.691        0.752      239.027       47.105        0.039      340.576       14.689      858.373
04/13/2014  00:21:00      -93.926      117.363      -23.088       74.535       84.760       39.415     5555.499     7184.301     1553.574        1.871        0.715      150.321       35.619        0.056      340.651       14.817      858.396
04/13/2014  00:22:00      -44.031      124.843      -24.971       49.294       64.639       26.104     2429.877     4178.190      681.432        1.272        0.364      132.380       35.665        0.073      340.583       14.704      858.406
04/13/2014  00:23:00      -80.756      180.723      -26.888       70.787       74.862       39.230     5010.732     5604.298     1539.032        2.603        0.608      197.946       31.844        0.026      340.593       14.716      858.428
04/13/2014  00:24:00      -53.616      229.187      -34.700       59.233       70.443       36.169     3508.532     4962.218     1308.211        3.319        0.489      235.375       34.792        0.022      340.563       14.668      858.444
04/13/2014  00:25:00     -105.355      190.638      -28.077       70.223       68.491       44.060     4931.242     4690.974     1941.281        2.989        0.578      217.813       42.060        0.037      340.535       14.620      858.467
04/13/2014  00:26:00     -109.061      202.607      -28.550       84.053       88.380       46.231     7064.848     7811.023     2137.309        3.538        0.851      230.096       32.673        0.020      340.558       14.658      858.487
04/13/2014  00:27:00     -128.127      299.682      -39.235       69.975       71.905       54.889     4896.485     5170.389     3012.758        6.042        0.654      325.923       43.838        0.018      340.517       14.589      858.508
04/13/2014  00:28:00     -110.078      188.425      -27.280       66.980       84.127       42.682     4486.377     7077.277     1821.729        3.087        0.669      218.223       41.313        0.036      340.553       14.650      858.517
04/13/2014  00:29:00     -106.569      253.683      -29.019       71.110      113.581       51.830     5056.695    12900.532     2686.373        4.859        1.032      275.158       53.006        0.037      340.542       14.631      858.536
04/13/2014  00:30:00     -143.931      235.414      -33.329       71.151       94.975       51.730     5062.502     9020.301     2675.952        4.700        0.838      275.927       54.350        0.039      340.509       14.574      858.543
04/13/2014  00:31:00      -70.344      143.707      -11.965       55.047       74.262       40.758     3030.127     5514.795     1661.247        1.797        0.510      160.000       39.622        0.061      340.534       14.619      858.547
04/13/2014  00:32:00      -80.104      227.741      -23.078       51.433       85.926       45.574     2645.385     7383.329     2076.961        3.546        0.605      241.418       42.391        0.031      340.525       14.600      858.538
04/13/2014  00:33:00      -89.342       89.487       -4.092       55.870       60.322       40.349     3121.457     3638.791     1628.061        1.220        0.419      126.451       43.137        0.116      340.547       14.642      858.547
04/13/2014  00:34:00      -76.530       85.052      -14.434       50.824       74.055       30.887     2583.072     5484.136      954.017        1.116        0.451      114.415       30.550        0.071      340.546       14.642      858.537
04/13/2014  00:35:00      -89.907      128.502      -22.117       45.095       66.108       33.087     2033.551     4370.260     1094.721        1.629        0.375      156.831       31.794        0.041      340.578       14.695      858.531
04/13/2014  00:36:00     -126.513      168.167      -33.040       60.215       70.857       38.373     3625.815     5020.759     1472.484        2.775        0.506      210.442       36.366        0.030      340.529       14.609      858.521
04/13/2014  00:37:00     -142.079      172.693      -32.137       46.722       68.517       38.429     2182.930     4694.596     1476.758        2.970        0.418      223.627       32.071        0.021      340.549       14.642      858.532
04/13/2014  00:38:00     -151.735      175.606      -41.074       66.512       68.406       43.962     4423.876     4679.378     1932.685        3.329        0.552      232.080       37.725        0.026      340.535       14.618      858.531
04/13/2014  00:39:00     -120.209      140.914      -20.948       58.417       63.089       39.464     3412.557     3980.225     1557.444        2.185        0.448      185.221       39.486        0.045      340.548       14.641      858.546
04/13/2014  00:40:00     -103.758      183.141       -1.496       56.114       98.435       47.222     3148.755     9689.470     2229.940        2.969        0.753      210.490       46.263        0.048      340.553       14.652      858.552
04/13/2014  00:41:00     -127.804      173.769      -23.579       63.439       71.660       41.438     4024.557     5135.218     1717.142        2.898        0.544      215.707       35.269        0.027      340.541       14.631      858.576
04/13/2014  00:42:00     -112.902      137.243      -25.027       60.102       61.266       34.485     3612.235     3753.467     1189.225        2.038        0.428      177.715       32.718        0.034      340.522       14.599      858.583
04/13/2014  00:43:00     -100.916      133.083       -6.783       69.287      127.419       47.001     4800.697    16235.647     2209.086        2.559        1.162      167.018       50.746        0.092      340.568       14.676      858.595
04/13/2014  00:44:00     -167.157      199.282      -50.807       70.866       84.876       41.547     5022.034     7204.018     1726.124        4.209        0.698      260.105       42.616        0.027      340.521       14.595      858.608
04/13/2014  00:45:00     -161.564      154.890      -33.070       65.224       71.292       47.530     4254.224     5082.599     2259.130        3.139        0.580      223.816       37.776        0.028      340.541       14.630      858.637
04/13/2014  00:46:00      -93.991      153.256      -19.511       54.262       54.605       37.236     2944.340     2981.700     1386.517        2.001        0.366      179.782       34.860        0.038      340.501       14.564      858.647
04/13/2014  00:47:00     -119.503      228.749      -32.084       75.786       98.100       44.335     5743.586     9623.697     1965.595        4.248        0.867      258.084       52.125        0.041      340.468       14.507      858.654
04/13/2014  00:48:00      -91.127      196.470      -19.334       63.773       91.821       43.932     4066.952     8431.016     1930.063        3.085        0.721      216.575       42.912        0.039      340.444       14.465      858.657
04/13/2014  00:49:00     -125.793      200.348      -24.235       74.701      105.223       54.561     5580.214    11071.786     2976.947        3.809        0.981      236.565       47.084        0.040      340.436       14.453      858.675
04/13/2014  00:50:00     -195.503      223.736      -51.102      103.016      119.445       60.773    10612.333    14267.063     3693.412        5.973        1.429      297.118       72.151        0.059      340.446       14.469      858.696
04/13/2014  00:51:00     -124.007      272.625      -30.189       84.722       96.511       58.615     7177.862     9314.354     3435.680        5.527        0.996      299.504       47.546        0.025      340.413       14.412      858.714
04/13/2014  00:52:00     -144.240      222.565      -24.632      106.126      118.192       77.966    11262.754    13969.386     6078.755        5.112        1.566      265.218       64.170        0.059      340.415       14.418      858.724
04/13/2014  00:53:00      -85.146      345.367      -41.982      110.947      174.012       61.749    12309.299    30280.160     3812.924        8.734        2.320      355.709       75.314        0.045      340.388       14.370      858.718
04/13/2014  00:54:00     -178.650      275.237      -52.391      104.188      114.762       60.168    10855.195    13170.355     3620.151        6.903        1.382      328.134       57.893        0.031      340.413       14.414      858.741
04/13/2014  00:55:00     -100.671      222.954      -27.331       80.056      130.386       64.567     6408.893    17000.506     4168.921        4.408        1.379      244.629       61.895        0.064      340.415       14.418      858.779
04/13/2014  00:56:00     -138.965      293.612      -31.269       81.664      112.910       63.653     6668.935    12748.755     4051.763        6.498        1.173      324.837       44.665        0.019      340.377       14.355      858.829
04/13/2014  00:57:00     -136.558      239.877      -12.519      109.606      147.185       63.788    12013.395    21663.541     4068.906        5.704        1.887      276.023       75.473        0.075      340.388       14.372      858.867
04/13/2014  00:58:00     -113.097      222.224      -24.243       85.924      127.445       51.532     7382.974    16242.103     2655.552        4.452        1.314      249.348       44.361        0.032      340.382       14.361      858.891
04/13/2014  00:59:00      -81.818      255.773      -30.031       79.843       88.656       42.744     6374.957     7859.871     1827.051        4.454        0.803      268.540       44.174        0.027      340.376       14.350      858.911
04/13/2014  01:00:00      -73.499      339.483      -46.848       79.646      135.539       46.703     6343.547    18370.832     2181.176        7.487        1.345      347.348       61.652        0.032      340.301       14.225      858.915
04/13/2014  01:01:00      -33.443      312.884      -53.875       55.436       77.596       41.708     3073.162     6021.194     1739.573        5.637        0.542      314.666       43.195        0.019      340.259       14.151      858.933
04/13/2014  01:02:00      -47.112      370.582      -63.480       46.878       82.263       28.618     2197.510     6767.213      818.974        7.668        0.489      373.565       26.426        0.005      340.221       14.086      858.958
04/13/2014  01:03:00      -72.065      444.213      -68.180       78.139      121.491       35.746     6105.760    14760.161     1277.762       11.465        1.107      450.021       33.827        0.006      340.238       14.117      858.967
04/13/2014  01:04:00      -88.995      207.191      -24.518       68.648      109.819       53.607     4712.509    12060.145     2873.735        3.554        0.982      225.495       53.259        0.056      340.280       14.190      858.987
04/13/2014  01:05:00      -96.763      285.453      -45.394       79.479       84.872       40.259     6316.952     7203.292     1620.799        5.402        0.757      301.407       35.593        0.014      340.229       14.102      859.015
04/13/2014  01:06:00      -59.439      337.166      -43.418       70.220      128.036       47.165     4930.883    16393.330     2224.571        7.132        1.177      342.366       58.311        0.029      340.210       14.068      859.028
04/13/2014  01:07:00      -68.385      299.153      -44.733       92.314       91.706       51.947     8521.898     8410.035     2698.525        5.790        0.982      306.870       43.258        0.020      340.198       14.048      859.018
04/13/2014  01:08:00     -115.364      279.662      -34.594       94.028      104.102       52.756     8841.250    10837.160     2783.178        5.758        1.123      302.522       47.718        0.025      340.222       14.088      859.029
04/13/2014  01:09:00      -87.420      364.872      -41.441       83.324      159.070       57.825     6942.812    25303.136     3343.775        8.903        1.779      375.198       51.172        0.019      340.195       14.043      859.041
04/13/2014  01:10:00     -116.946      271.800      -25.364      123.660      156.777       72.283    15291.705    24578.878     5224.874        6.664        2.255      295.892       81.756        0.076      340.213       14.076      859.048
04/13/2014  01:11:00     -157.431      385.189      -53.534      129.347      162.650       77.095    16730.714    26455.016     5943.633       11.257        2.456      416.119       81.821        0.039      340.212       14.073      859.067
04/13/2014  01:12:00     -159.102      368.975      -51.640       84.195      105.398       57.416     7088.751    11108.810     3296.565        9.280        1.075      401.816       53.437        0.018      340.206       14.061      859.072
04/13/2014  01:13:00     -144.849      435.321      -51.133      111.628      152.642       73.089    12460.779    23299.674     5342.025       12.709        2.055      458.787       80.429        0.031      340.191       14.037      859.081
04/13/2014  01:14:00     -188.800      252.285      -34.310      127.140      102.367       64.564    16164.505    10479.062     4168.471        6.564        1.541      315.108       62.316        0.039      340.220       14.085      859.094
04/13/2014  01:15:00      -90.940      285.361      -42.338       88.492      111.229       55.009     7830.859    12371.849     3026.036        5.736        1.161      299.501       58.303        0.038      340.196       14.045      859.083
04/13/2014  01:16:00     -150.282      213.083      -36.798       93.737      100.968       60.412     8786.713    10194.480     3649.618        4.598        1.132      260.747       43.915        0.028      340.205       14.061      859.090
04/13/2014  01:17:00     -175.521      262.109      -51.140      103.119      136.909       67.097    10633.565    18744.068     4501.986        6.800        1.694      315.450       66.779        0.045      340.192       14.039      859.105
04/13/2014  01:18:00     -175.610      305.208      -44.332      114.586      170.415       65.743    13129.897    29041.301     4322.125        8.622        2.325      352.123       73.924        0.044      340.147       13.964      859.099
04/13/2014  01:19:00     -170.857      344.916      -51.446       98.760      173.225       72.196     9753.564    30006.880     5212.290        9.788        2.249      384.915       72.688        0.036      340.130       13.935      859.083
04/13/2014  01:20:00      -94.031      240.158      -13.657       66.628       93.950       54.578     4439.330     8826.520     2978.729        4.147        0.812      257.910       52.450        0.041      340.107       13.896      859.063
04/13/2014  01:21:00     -130.189      230.129      -23.972      101.875      174.579       69.965    10378.609    30477.774     4895.107        5.811        2.288      264.403       70.491        0.071      340.161       13.988      859.079
04/13/2014  01:22:00     -149.177      310.203      -47.017      121.136      125.191       66.262    14673.891    15672.838     4390.594        7.771        1.737      344.209       60.339        0.031      340.120       13.919      859.076
04/13/2014  01:23:00     -136.017      272.669      -36.648      103.909      104.408       54.084    10797.096    10901.128     2925.131        5.940        1.231      304.711       51.742        0.029      340.088       13.863      859.095
04/13/2014  01:24:00     -187.035      257.683      -59.634      138.864      160.486       73.746    19283.302    25755.678     5438.404        7.770        2.524      318.406       80.979        0.065      340.086       13.862      859.109
04/13/2014  01:25:00     -219.183      372.462      -72.817      124.197      174.322       74.390    15424.840    30388.167     5533.943       12.170        2.567      432.168       77.971        0.033      340.030       13.767      859.090
04/13/2014  01:26:00     -116.693      352.262      -51.190      103.145      180.193       62.069    10638.927    32469.536     3852.578        9.363        2.348      371.087       63.610        0.029      340.026       13.760      859.070
04/13/2014  01:27:00      -94.863      285.795      -41.087      106.481      125.651       61.812    11338.309    15788.185     3820.693        6.165        1.547      301.128       60.634        0.041      340.034       13.773      859.097
04/13/2014  01:28:00     -122.728      326.390      -39.461      114.120      180.860       70.410    13023.326    32710.197     4957.607        8.691        2.535      348.702       77.393        0.049      340.015       13.741      859.107
04/13/2014  01:29:00     -144.672      209.410      -15.845      121.202      144.240       75.300    14689.850    20805.214     5670.109        5.309        2.058      254.525       70.965        0.078      340.030       13.767      859.118
04/13/2014  01:30:00      -69.136      304.592      -39.108       74.994       85.900       54.967     5624.128     7378.894     3021.405        5.755        0.801      312.340       35.053        0.013      339.991       13.698      859.108
04/13/2014  01:31:00      -93.533      238.474      -46.597       90.259      128.342       43.122     8146.762    16471.572     1859.519        4.713        1.324      256.160       37.890        0.022      340.027       13.762      859.112
04/13/2014  01:32:00     -139.391      304.778      -42.514      112.885      156.753       74.686    12742.939    24571.470     5577.996        7.850        2.145      335.141       77.100        0.053      339.931       13.599      859.134
04/13/2014  01:33:00     -133.894      413.564      -59.709      117.074      144.770       67.832    13706.213    20958.233     4601.210       11.589        1.963      434.699       63.247        0.021      339.914       13.569      859.125
04/13/2014  01:34:00      -83.341      616.291      -81.877      115.485      128.132       57.810    13336.867    16417.765     3342.025       21.327        1.655      621.901       53.947        0.008      339.875       13.503      859.116
04/13/2014  01:35:00     -198.978      394.998      -58.779      119.845      142.992       73.656    14362.926    20446.677     5425.226       11.964        2.012      442.285       71.954        0.026      339.872       13.498      859.151
04/13/2014  01:36:00     -209.758      424.187      -76.442      141.152      162.341       79.591    19923.763    26354.706     6334.671       14.118        2.631      473.215       91.399        0.037      339.872       13.500      859.176
04/13/2014  01:37:00      -94.643      238.646      -33.234       87.663       97.268       48.672     7684.833     9460.977     2368.987        4.326        0.976      256.728       44.715        0.030      339.874       13.504      859.178
04/13/2014  01:38:00      -88.174      244.145      -28.930       71.344      116.593       54.509     5089.954    13593.959     2971.228        4.493        1.083      259.579       54.888        0.045      339.888       13.527      859.192
04/13/2014  01:39:00     -129.230      339.558      -46.524      122.466      238.629       62.252    14997.893    56943.790     3875.323       10.498        3.791      363.318       86.231        0.056      339.854       13.470      859.206
04/13/2014  01:40:00     -130.420      383.886      -54.457      144.870      144.321       83.589    20987.312    20828.592     6987.075       10.806        2.440      405.435       87.814        0.047      339.816       13.407      859.188
04/13/2014  01:41:00     -117.174      404.772      -57.390      100.660      138.011       52.194    10132.395    19046.950     2724.260       10.638        1.595      421.391       57.079        0.018      339.797       13.375      859.183
04/13/2014  01:42:00      -62.001      329.698      -57.697       87.206      122.753       46.980     7604.817    15068.312     2207.157        7.037        1.244      335.477       53.744        0.026      339.801       13.379      859.203
04/13/2014  01:43:00      -62.125      349.826      -55.754       72.095      108.657       43.875     5197.618    11806.381     1925.022        7.413        0.946      355.300       46.138        0.017      339.786       13.355      859.220
04/13/2014  01:44:00      -48.589      339.747      -47.567       73.956      163.332       51.096     5469.437    26677.311     2610.775        7.740        1.738      343.203       65.026        0.036      339.747       13.290      859.221
04/13/2014  01:45:00     -136.587      394.899      -52.555       93.618      125.097       55.390     8764.371    15649.289     3068.028       10.242        1.374      417.854       52.464        0.016      339.736       13.271      859.212
04/13/2014  01:46:00      -33.774      329.880      -46.309       63.732       71.565       52.262     4061.798     5121.540     2731.363        6.201        0.596      331.604       43.531        0.017      339.711       13.227      859.219
04/13/2014  01:47:00      -10.951      311.651      -47.101       98.883      108.796       65.796     9777.946    11836.562     4329.111        6.270        1.297      311.844       62.739        0.040      339.712       13.228      859.227
04/13/2014  01:48:00      -72.549      390.399      -56.488       85.462      106.923       47.557     7303.700    11432.592     2261.671        9.093        1.050      397.083       43.837        0.012      339.686       13.184      859.244
04/13/2014  01:49:00     -108.218      356.954      -42.160      130.861      166.499       63.574    17124.663    27721.831     4041.650        9.489        2.444      372.998       62.191        0.028      339.709       13.223      859.258
04/13/2014  01:50:00     -133.195      379.682      -64.693      142.082      129.425       56.284    20187.408    16750.927     3167.889       10.309        2.005      402.367       47.353        0.014      339.689       13.190      859.243
04/13/2014  01:51:00      -35.051      381.180      -39.713       86.842      239.278       67.097     7541.588    57254.166     4501.959       10.869        3.465      382.788      103.129        0.073      339.677       13.170      859.248
04/13/2014  01:52:00      -54.906      447.333      -54.516      103.393      162.887       67.490    10690.123    26532.151     4554.840       12.393        2.089      450.690       67.386        0.022      339.645       13.117      859.260
04/13/2014  01:53:00     -145.339      502.057      -65.317      131.113      239.347       92.341    17190.567    57286.804     8526.858       18.021        4.150      522.671      114.080        0.048      339.633       13.097      859.284
04/13/2014  01:54:00      -72.820      443.931      -61.707       86.272      164.867       56.414     7442.913    27181.002     3182.540       12.199        1.890      449.864       58.576        0.017      339.617       13.070      859.277
04/13/2014  01:55:00      -61.910      515.605      -78.094       97.028      141.381       62.127     9414.385    19988.664     3859.813       15.451        1.663      519.308       59.051        0.013      339.579       13.006      859.274
04/13/2014  01:56:00      -88.515      659.879      -94.437      115.928      166.997       70.442    13439.407    27888.026     4962.047       24.923        2.314      665.789       63.970        0.009      339.575       13.000      859.275
04/13/2014  01:57:00     -114.676      506.614      -65.102       99.162      239.464       72.441     9833.162    57342.836     5247.721       17.322        3.621      519.431       98.694        0.036      339.604       13.048      859.271
04/13/2014  01:58:00     -179.203      438.067      -62.171      136.118      182.414       78.607    18527.982    33274.950     6179.060       14.292        2.899      473.304       78.109        0.027      339.599       13.041      859.288
04/13/2014  01:59:00     -178.192      518.042      -70.710      129.461      146.267       80.547    16760.159    21394.151     6487.839       17.487        2.232      547.833       73.066        0.018      339.580       13.009      859.304
04/13/2014  02:00:00     -155.915      261.865      -12.818      152.806      157.956       84.385    23349.755    24950.134     7120.784        7.422        2.771      304.767       81.244        0.071      339.612       13.062      859.301
04/13/2014  02:01:00     -108.852      355.507      -45.367      102.106      192.185       74.594    10425.590    36935.059     5564.306        9.660        2.646      371.798       66.016        0.032      339.586       13.018      859.296
04/13/2014  02:02:00     -228.493      389.155      -52.209      136.517      179.768       95.977    18636.819    32316.372     9211.507       13.326        3.008      451.277       97.014        0.046      339.569       12.989      859.325
04/13/2014  02:03:00     -212.794      251.391      -19.425      144.838      127.007       85.039    20978.046    16130.895     7231.616        7.659        2.217      329.361       83.766        0.065      339.575       13.000      859.301
04/13/2014  02:04:00     -134.399      382.234      -53.999       94.062      179.705       66.636     8847.613    32293.905     4440.385       10.632        2.279      405.174       76.681        0.036      339.532       12.925      859.304
04/13/2014  02:05:00     -151.705      418.343      -72.289      139.889      230.042       74.213    19569.005    52919.171     5507.593       14.061        3.900      445.000       91.429        0.042      339.505       12.881      859.313
04/13/2014  02:06:00     -135.322      388.092      -46.462      101.869      163.259       73.397    10377.343    26653.397     5387.117       10.674        2.121      411.007       69.478        0.029      339.507       12.884      859.316
04/13/2014  02:07:00     -171.814      517.438      -59.994      155.022      212.080       97.695    24031.829    44978.091     9544.363       18.969        3.928      545.217      108.217        0.039      339.479       12.836      859.322
04/13/2014  02:08:00     -208.466      406.133      -69.102      120.879      167.087       70.395    14611.744    27917.947     4955.519       13.032        2.374      456.510       64.075        0.020      339.480       12.839      859.340
04/13/2014  02:09:00     -126.792      304.177      -47.520      102.027      138.612       61.584    10409.463    19213.156     3792.551        7.213        1.671      329.545       62.493        0.036      339.465       12.813      859.343
04/13/2014  02:10:00     -178.325      285.473      -45.434      129.334      124.869       89.050    16727.239    15592.313     7929.851        7.780        2.012      336.593       81.324        0.058      339.490       12.855      859.366
04/13/2014  02:11:00     -156.551      291.091      -23.356       97.597      134.120       66.950     9525.123    17988.235     4482.287        7.089        1.600      330.518       66.229        0.040      339.443       12.776      859.378
04/13/2014  02:12:00     -250.125      288.933      -61.257      122.346      157.293       74.699    14968.423    24741.206     5579.970        9.753        2.264      382.158       75.207        0.039      339.432       12.758      859.380
04/13/2014  02:13:00     -149.329      349.158      -38.691       97.911      139.643       57.658     9586.481    19500.303     3324.398        8.905        1.621      379.750       60.806        0.026      339.405       12.712      859.392
04/13/2014  02:14:00     -199.857      316.926      -43.615      139.689      165.096       81.442    19513.016    27256.698     6632.729        9.783        2.670      374.680      102.394        0.075      339.402       12.706      859.409
04/13/2014  02:15:00     -161.612      314.878      -46.434      117.984      143.998       71.619    13920.223    20735.508     5129.241        8.360        1.989      353.930       72.863        0.042      339.371       12.653      859.415
04/13/2014  02:16:00     -130.223      323.750      -41.251      111.610      121.228       68.362    12456.883    14696.153     4673.399        7.764        1.591      348.959       58.741        0.028      339.355       12.628      859.449
04/13/2014  02:17:00      -77.768      239.771      -42.789       92.206      158.081       50.123     8501.959    24989.527     2512.354        5.068        1.800      252.067       58.657        0.054      339.364       12.645      859.461
04/13/2014  02:18:00     -128.314      352.692      -37.155       88.801      133.007       62.906     7885.657    17690.987     3957.152        8.588        1.477      375.309       60.763        0.026      339.328       12.583      859.477
04/13/2014  02:19:00     -126.633      278.163      -14.758       97.932      125.740       76.249     9590.587    15810.612     5813.913        6.242        1.561      305.631       70.942        0.054      339.295       12.527      859.505
04/13/2014  02:20:00     -137.353      406.518      -49.883       76.514      103.662       49.779     5854.417    10745.907     2477.955       10.284        0.954      429.096       49.841        0.013      339.236       12.428      859.518
04/13/2014  02:21:00     -129.233      223.086      -30.307       82.663       95.002       51.548     6833.170     9025.453     2657.218        4.295        0.926      257.814       54.906        0.045      339.262       12.472      859.529
04/13/2014  02:22:00      -84.715      410.060      -46.519       79.828      118.619       50.714     6372.479    14070.536     2571.906       10.025        1.151      418.719       51.588        0.015      339.189       12.349      859.535
04/13/2014  02:23:00     -106.013      412.804      -42.104       99.904      135.111       62.357     9980.798    18255.076     3888.349       10.777        1.606      426.199       66.957        0.025      339.197       12.363      859.523
04/13/2014  02:24:00     -142.681      280.077      -40.288      107.151      160.982       72.752    11481.248    25915.138     5292.911        7.155        2.134      314.327       78.819        0.063      339.226       12.412      859.537
04/13/2014  02:25:00     -134.241      300.400      -42.635       81.339       94.355       62.484     6615.964     8902.794     3904.297        6.475        0.971      329.030       52.302        0.025      339.188       12.346      859.553
04/13/2014  02:26:00     -168.890      293.937      -45.881       67.875      118.733       55.264     4606.984    14097.472     3054.096        6.939        1.088      339.003       45.743        0.018      339.165       12.308      859.561
04/13/2014  02:27:00     -180.705      320.623      -62.825       81.750      113.156       66.596     6682.998    12804.300     4435.080        8.166        1.196      368.040       55.610        0.023      339.163       12.305      859.559
04/13/2014  02:28:00     -127.573      267.565      -32.545       96.359      133.055       53.529     9284.978    17703.608     2865.365        5.938        1.493      296.422       52.122        0.031      339.160       12.298      859.541
04/13/2014  02:29:00     -151.717      189.390      -31.191      105.285      148.197       63.679    11084.965    21962.319     4054.975        4.847        1.855      242.665       52.477        0.047      339.205       12.375      859.538
04/13/2014  02:30:00     -167.704      357.574      -43.341      117.974      189.267       72.745    13917.970    35822.117     5291.812       10.644        2.752      394.948       82.156        0.043      339.146       12.278      859.547
04/13/2014  02:31:00     -151.058      278.193      -45.116      102.264      129.715       69.538    10457.852    16825.987     4835.550        6.718        1.606      316.560       70.090        0.049      339.150       12.283      859.537
04/13/2014  02:32:00     -160.640      170.863      -20.462      120.635      104.784       77.136    14552.848    10979.742     5949.973        4.344        1.574      234.520       78.695        0.113      339.170       12.316      859.518
04/13/2014  02:33:00     -178.295      228.020      -41.837      114.061      173.064       76.521    13009.860    29951.088     5855.492        6.716        2.441      289.452       91.444        0.100      339.161       12.302      859.533
04/13/2014  02:34:00     -153.565      201.542      -40.987       93.683       86.100       51.983     8776.416     7413.210     2702.208        4.238        0.945      253.380       39.703        0.025      339.143       12.271      859.537
04/13/2014  02:35:00     -139.877      238.173      -35.140      115.937      149.872       61.752    13441.275    22461.735     3813.333        5.861        1.986      276.210       75.480        0.075      339.099       12.198      859.529
04/13/2014  02:36:00     -164.051      381.573      -47.207      113.957      197.648       74.256    12986.192    39064.769     5514.002       11.614        2.878      415.344       72.503        0.030      339.053       12.119      859.532
04/13/2014  02:37:00     -140.315      394.335      -43.844      128.664      148.248       73.065    16554.383    21977.492     5338.503       11.048        2.194      418.555       77.903        0.035      339.030       12.082      859.551
04/13/2014  02:38:00     -189.015      316.834      -50.066      116.116      171.625       68.394    13482.987    29455.029     4677.746        9.311        2.381      368.931       81.069        0.048      339.058       12.128      859.572
04/13/2014  02:39:00     -216.175      341.806      -62.868      125.892      152.913       65.300    15848.775    23382.487     4264.123       10.550        2.175      404.430       66.073        0.027      339.014       12.055      859.580
04/13/2014  02:40:00     -160.987      299.009      -39.277       96.777      111.554       68.419     9365.743    12444.258     4681.181        7.167        1.325      339.592       62.783        0.034      339.039       12.096      859.601
04/13/2014  02:41:00     -198.190      293.615      -51.085       97.743      153.685       62.280     9553.677    23619.102     3878.853        8.257        1.853      354.244       65.239        0.034      338.995       12.022      859.617
04/13/2014  02:42:00     -141.269      182.095      -23.038      111.834       99.481       61.885    12506.920     9896.506     3829.769        3.993        1.312      230.468       63.181        0.075      338.964       11.970      859.629
04/13/2014  02:43:00     -110.493      163.687      -14.735      110.214      127.362       58.387    12147.212    16220.967     3409.072        3.549        1.589      197.490       53.999        0.075      338.973       11.986      859.629
04/13/2014  02:44:00     -113.422      242.398      -39.403      121.017      105.282       50.531    14645.012    11084.218     2553.363        5.072        1.414      267.621       49.236        0.034      338.890       11.846      859.626
04/13/2014  02:45:00     -107.018      238.026      -20.307       97.234      112.156       61.026     9454.385    12578.988     3724.223        4.713        1.288      260.977       57.318        0.048      338.909       11.877      859.629
04/13/2014  02:46:00     -138.307      285.215      -40.900       90.507      117.979       65.149     8191.601    13918.987     4244.407        6.425        1.318      316.981       63.183        0.040      338.842       11.766      859.638
04/13/2014  02:47:00     -121.077      195.374      -27.678       93.267      158.857       67.591     8698.770    25235.566     4568.504        4.604        1.925      229.849       71.997        0.098      338.861       11.798      859.647
04/13/2014  02:48:00     -141.385      179.684      -32.825      114.829      120.538       59.380    13185.732    14529.317     3525.948        4.229        1.562      228.640       63.155        0.076      338.854       11.786      859.651
04/13/2014  02:49:00     -213.275      351.451      -60.279      100.413      135.134       63.659    10082.862    18261.262     4052.423       10.251        1.620      411.102       62.325        0.023      338.821       11.729      859.646
04/13/2014  02:50:00     -165.499      264.810      -43.149       99.379      102.175       53.239     9876.221    10439.821     2834.369        6.126        1.158      312.273       54.821        0.031      338.821       11.730      859.639
04/13/2014  02:51:00     -109.044      200.600       -9.836       77.295      126.955       53.900     5974.483    16117.602     2905.192        3.861        1.250      228.322       59.389        0.068      338.841       11.765      859.624
04/13/2014  02:52:00     -192.534      342.479      -55.425       98.225      134.267       76.154     9648.123    18027.686     5799.356        9.545        1.674      392.888       64.837        0.027      338.775       11.653      859.626
04/13/2014  02:53:00     -129.729      243.345      -21.370      121.254      142.832       66.484    14702.636    20401.011     4420.138        5.801        1.976      275.765       69.365        0.063      338.770       11.645      859.630
04/13/2014  02:54:00     -132.986      233.823      -37.877      102.875      126.368       53.189    10583.228    15968.988     2829.041        5.158        1.469      268.996       44.316        0.027      338.767       11.639      859.631
04/13/2014  02:55:00      -97.170      210.516      -18.658       74.754      122.985       53.119     5588.134    15125.238     2821.599        3.882        1.177      231.860       52.084        0.050      338.791       11.682      859.626
04/13/2014  02:56:00     -160.584      245.060      -39.308       98.101       96.617       49.317     9623.800     9334.895     2432.146        5.438        1.070      292.987       45.706        0.024      338.713       11.548      859.624
04/13/2014  02:57:00     -197.961      179.456      -47.393      108.800       73.484       49.760    11837.408     5399.882     2476.036        4.667        0.986      267.194       54.110        0.041      338.729       11.576      859.615
04/13/2014  02:58:00     -111.742      185.046      -10.564       94.937      122.766       76.265     9013.128    15071.521     5816.347        3.836        1.495      216.168       69.840        0.104      338.740       11.594      859.616
04/13/2014  02:59:00     -120.087      266.530      -37.611      101.530      138.131       49.147    10308.393    19080.041     2415.395        5.933        1.590      292.334       60.930        0.043      338.685       11.500      859.629
04/13/2014  03:00:00     -192.604      256.162      -48.238      115.612      107.493       61.346    13366.170    11554.810     3763.330        6.686        1.434      320.492       60.108        0.035      338.690       11.509      859.637
04/13/2014  03:01:00     -132.561      232.325      -25.149       83.017      120.442       59.398     6891.840    14506.347     3528.105        4.855        1.246      267.483       50.898        0.036      338.710       11.542      859.626
04/13/2014  03:02:00      -84.415      217.127      -15.638       90.826      138.976       60.523     8249.356    19314.305     3663.019        4.286        1.561      232.960       69.871        0.090      338.693       11.515      859.616
04/13/2014  03:03:00     -136.617      200.850      -26.854      128.869      130.453       76.318    16607.104    17017.859     5824.396        4.958        1.972      242.909       79.008        0.106      338.725       11.568      859.609
04/13/2014  03:04:00     -182.142      213.423      -32.188      107.536      110.379       58.179    11563.987    12183.450     3384.837        5.344        1.357      280.579       57.072        0.041      338.711       11.544      859.594
04/13/2014  03:05:00      -57.091      202.939      -21.662       79.553      155.186       56.829     6328.696    24082.741     3229.538        3.927        1.682      210.816       81.343        0.149      338.711       11.545      859.589
04/13/2014  03:06:00     -113.735      309.498      -39.117       99.805      118.718       64.053     9961.030    14093.925     4102.839        6.920        1.408      329.735       58.758        0.032      338.659       11.458      859.583
04/13/2014  03:07:00     -173.216      264.660      -48.567      108.315       95.535       67.039    11732.110     9126.902     4494.261        6.388        1.268      316.305       60.053        0.036      338.665       11.467      859.582
04/13/2014  03:08:00      -71.740      179.498      -16.233       82.343       97.700       60.858     6780.334     9545.243     3703.705        2.883        1.001      193.303       52.561        0.074      338.683       11.500      859.588
04/13/2014  03:09:00      -96.866      181.088      -13.476      115.271      105.859       60.558    13287.440    11206.119     3667.325        3.525        1.408      205.368       53.633        0.068      338.651       11.445      859.602
04/13/2014  03:10:00      -72.805      202.065      -45.506       90.026      113.746       50.675     8104.756    12938.200     2568.001        3.590        1.181      214.781       43.272        0.041      338.717       11.554      859.610
04/13/2014  03:11:00     -150.522      227.251      -36.215       94.125      117.970       68.292     8859.493    13917.001     4663.770        5.152        1.372      272.580       66.878        0.060      338.689       11.508      859.647
04/13/2014  03:12:00     -150.105      202.664       -2.753      119.188      142.991       83.359    14205.855    20446.420     6948.655        5.260        2.080      252.199       85.305        0.114      338.630       11.410      859.686
04/13/2014  03:13:00     -104.287      206.359      -25.548       77.731      119.735       54.493     6042.068    14336.524     2969.447        3.873        1.167      231.214       47.219        0.042      338.680       11.493      859.698
04/13/2014  03:14:00     -103.270      203.121      -18.456       85.096      108.151       56.778     7241.385    11696.682     3223.789        3.721        1.108      227.866       63.603        0.078      338.630       11.408      859.722
04/13/2014  03:15:00      -83.540      156.110       -4.627       86.355      105.610       57.630     7457.101    11153.494     3321.242        2.665        1.097      177.057       65.197        0.136      338.710       11.543      859.744
04/13/2014  03:16:00     -112.437      328.970      -38.645       88.724      117.437       54.751     7871.947    13791.497     2997.652        7.350        1.233      347.654       56.703        0.027      338.609       11.375      859.759
04/13/2014  03:17:00     -107.618      312.350      -34.323       91.414      124.766       61.812     8356.471    15566.613     3820.736        6.903        1.387      330.370       47.713        0.021      338.608       11.372      859.773
04/13/2014  03:18:00     -127.840      230.839      -30.657      101.653       98.961       50.162    10333.379     9793.343     2516.259        4.660        1.132      263.874       59.482        0.051      338.625       11.401      859.799
04/13/2014  03:19:00      -65.752      164.882        6.034      100.361      101.629       68.084    10072.261    10328.466     4635.375        2.829        1.252      177.509       62.266        0.123      338.611       11.378      859.821
04/13/2014  03:20:00     -109.357      141.199      -26.703       94.366       73.483       43.060     8904.862     5399.764     1854.203        2.438        0.808      178.595       43.809        0.060      338.663       11.466      859.849
04/13/2014  03:21:00      -78.593      298.374      -47.205       64.537      138.164       42.658     4165.001    19089.175     1819.695        6.125        1.254      308.551       53.547        0.030      338.555       11.282      859.888
04/13/2014  03:22:00      -83.103      212.618      -28.937       62.254      123.938       52.219     3875.604    15360.625     2726.813        3.745        1.098      228.282       58.156        0.065      338.565       11.300      859.907
04/13/2014  03:23:00      -71.989      119.900      -11.873       75.656       83.938       54.411     5723.781     7045.648     2960.538        1.771        0.786      139.851       52.846        0.143      338.529       11.242      859.925
04/13/2014  03:24:00     -181.510       98.082      -41.216       67.646      134.726       53.269     4575.966    18151.072     2837.554        3.491        1.278      206.316       29.362        0.020      338.598       11.356      859.916
04/13/2014  03:25:00      -66.956       15.088      -12.821       77.206       64.695       35.407     5960.699     4185.467     1253.651        0.814        0.570       68.635       36.050        0.276      338.577       11.324      859.933
04/13/2014  03:26:00     -130.454       79.632      -27.982       77.836       66.605       42.799     6058.415     4436.222     1831.764        1.823        0.616      152.838       35.569        0.054      338.567       11.304      859.955
04/13/2014  03:27:00     -103.416       81.523       -1.946       65.446      100.738       50.976     4283.188    10148.234     2598.533        1.718        0.851      131.685       36.844        0.078      338.538       11.256      859.980
04/13/2014  03:28:00     -197.920      -33.106       -7.835       70.440       75.928       35.239     4961.751     5765.043     1241.813        2.615        0.598      200.670       28.963        0.021      338.511       11.209      860.004
04/13/2014  03:29:00      -65.919      -38.147       -8.484       88.853       64.900       29.392     7894.886     4212.049      863.887        0.942        0.649       76.161       14.981        0.039      338.602       11.365      860.035
04/13/2014  03:30:00     -108.288      -14.904      -10.798       61.291       63.045       30.457     3756.626     3974.659      927.658        1.036        0.433      109.309       23.248        0.045      338.542       11.264      860.057
04/13/2014  03:31:00     -112.450       16.132       -9.785       95.824       90.618       59.217     9182.167     8211.621     3506.605        1.695        1.045      113.602       32.802        0.083      338.434       11.080      860.068
04/13/2014  03:32:00     -134.398      -84.295        1.150       78.869       71.262       48.966     6220.364     5078.316     2397.679        1.943        0.685      158.646       42.371        0.071      338.386       11.000      860.062
04/13/2014  03:33:00     -114.274      -25.508       -6.258      100.994       97.926       39.319    10199.881     9589.489     1545.977        1.754        1.067      117.086       27.439        0.055      338.362       10.961      860.074
04/13/2014  03:34:00     -128.684      -13.389       -0.158       48.416       67.632       33.433     2344.111     4574.095     1117.741        1.239        0.402      129.379       15.671        0.015      338.423       11.065      860.076
04/13/2014  03:35:00      -87.429       15.981       -2.824       75.578      102.306       43.190     5711.973    10466.548     1865.347        1.297        0.902       88.878       35.453        0.159      338.323       10.896      860.076
04/13/2014  03:36:00     -118.034      -36.939        8.517       75.534       74.638       43.586     5705.326     5570.807     1899.731        1.427        0.659      123.679       36.060        0.085      338.294       10.847      860.075
04/13/2014  03:37:00      -85.756      -22.749        3.954       81.396       49.758       31.467     6625.316     2475.889      990.194        0.899        0.505       88.722       31.866        0.129      338.281       10.826      860.077
04/13/2014  03:38:00     -104.595      -54.480        4.914       66.178       65.463       40.575     4379.532     4285.438     1646.351        1.212        0.516      117.933       37.013        0.099      338.263       10.795      860.074
04/13/2014  03:39:00     -169.927      -70.011       -4.534       80.265       71.669       38.848     6442.501     5136.492     1509.188        2.344        0.654      183.784       40.742        0.049      338.235       10.746      860.076
04/13/2014  03:40:00     -153.125        8.770      -24.690       86.269       93.921       42.710     7442.417     8821.193     1824.140        2.111        0.904      153.376       37.971        0.061      338.229       10.737      860.072
04/13/2014  03:41:00     -211.933       16.808      -16.855      102.802       56.019       37.542    10568.293     3138.153     1409.369        3.030        0.756      212.599       39.905        0.035      338.224       10.727      860.067
04/13/2014  03:42:00      -76.812       31.813        3.983       54.916       57.994       34.988     3015.755     3363.351     1224.165        0.726        0.380       83.139       14.959        0.032      338.337       10.920      860.060
04/13/2014  03:43:00       -5.726       30.922        7.950       29.874       34.908       23.399      892.441     1218.594      547.530        0.185        0.133       31.448       13.760        0.191      338.267       10.802      860.067
04/13/2014  03:44:00      -73.705       42.473      -15.273       64.753      107.208       42.986     4192.958    11493.465     1847.810        1.250        0.877       85.067       37.309        0.192      338.196       10.681      860.072
04/13/2014  03:45:00      -93.393      155.787      -12.983      149.737      107.874       60.940    22421.152    11636.724     3713.650        3.546        1.889      181.637       54.075        0.089      338.202       10.691      860.075
04/13/2014  03:46:00     -113.873      162.951      -26.874       78.856       88.412       62.833     6218.256     7816.602     3948.041        2.911        0.899      198.797       63.633        0.102      338.151       10.607      860.068
04/13/2014  03:47:00       -7.676       75.745       19.894       82.355       76.699       59.769     6782.348     5882.714     3572.345        1.121        0.812       76.132       39.417        0.268      338.153       10.611      860.054
04/13/2014  03:48:00      -23.449       26.756       11.972       60.579       40.314       31.072     3669.849     1625.181      965.468        0.383        0.313       35.577       35.781        1.011      338.195       10.680      860.056
04/13/2014  03:49:00       -0.914       29.465       21.402       30.971       51.254       43.624      959.193     2627.005     1903.038        0.341        0.274       29.480       32.308        1.201      338.158       10.619      860.052
04/13/2014  03:50:00      -37.342       98.086      -14.273       71.328      111.322       44.495     5087.697    12392.519     1979.771        1.534        0.973      104.953       57.939        0.305      338.163       10.626      860.056
04/13/2014  03:51:00       -0.110       82.148       11.565       53.874       79.352       53.439     2902.418     6296.663     2855.761        0.947        0.603       82.148       51.099        0.387      338.167       10.635      860.049
04/13/2014  03:52:00      -90.990       72.766      -19.657       66.114       58.028       29.515     4371.103     3367.252      871.122        1.128        0.430      116.508       22.713        0.038      338.200       10.690      860.058
04/13/2014  03:53:00      -67.280      103.421      -14.270       54.330       71.986       39.017     2951.729     5181.938     1522.308        1.254        0.483      123.379       32.529        0.070      338.192       10.677      860.082
04/13/2014  03:54:00      -25.521       34.975        4.917       33.611       59.158       31.562     1129.688     3499.716      996.147        0.376        0.281       43.296       29.934        0.478      338.195       10.683      860.106
04/13/2014  03:55:00      -40.353      210.327      -13.057       95.079      112.925       46.996     9039.957    12752.107     2208.581        3.501        1.200      214.163       54.814        0.066      338.112       10.540      860.131
04/13/2014  03:56:00      -99.459      187.780      -32.849      101.305       84.354       52.210    10262.730     7115.654     2725.929        3.316        1.005      212.493       49.030        0.053      338.098       10.517      860.150
04/13/2014  03:57:00       -1.132      222.724      -15.993       88.956      106.366       56.223     7913.094    11313.744     3161.039        3.612        1.119      222.727       44.848        0.041      338.037       10.413      860.152
04/13/2014  03:58:00      -34.752      201.767      -26.029       59.568       65.398       37.643     3548.324     4276.959     1416.976        2.592        0.462      204.738       31.671        0.024      338.035       10.410      860.156
04/13/2014  03:59:00      -18.669      283.389      -38.313       81.974      111.332       43.207     6719.672    12394.732     1866.845        5.155        1.049      284.003       47.413        0.028      337.940       10.251      860.161
04/13/2014  04:00:00      -41.594      253.661      -44.665       61.105       79.125       36.124     3733.787     6260.845     1304.909        3.968        0.565      257.049       37.216        0.021      337.928       10.228      860.161
04/13/2014  04:01:00      -64.641      273.436      -38.385       87.797       71.807       38.068     7708.279     5156.187     1449.175        4.736        0.716      280.972       24.774        0.008      337.911       10.200      860.165
04/13/2014  04:02:00      -70.706      321.036      -39.398       72.763      117.066       44.883     5294.425    13704.512     2014.467        6.531        1.051      328.730       50.611        0.024      337.914       10.206      860.170
04/13/2014  04:03:00     -117.542      270.906      -31.325       98.887      113.647       48.509     9778.650    12915.677     2353.081        5.661        1.252      295.307       58.889        0.040      337.881       10.152      860.179
04/13/2014  04:04:00      -90.003      274.990      -30.738       62.498      120.977       47.874     3905.982    14635.450     2291.907        5.274        1.042      289.344       49.968        0.030      337.870       10.133      860.186
04/13/2014  04:05:00      -88.083      250.434      -25.264       54.795       67.767       34.333     3002.469     4592.361     1178.744        3.994        0.439      265.473       27.192        0.010      337.821       10.051      860.204
04/13/2014  04:06:00      -70.942      253.863      -30.037       70.675       65.008       33.927     4994.977     4226.045     1151.040        4.037        0.519      263.588       22.437        0.007      337.755        9.939      860.216
04/13/2014  04:07:00      -82.857      269.901      -37.926       62.333      129.250       42.842     3885.428    16705.625     1835.479        5.178        1.121      282.333       51.675        0.034      337.755        9.941      860.220
04/13/2014  04:08:00     -137.605      226.910      -42.398       73.878       96.951       46.022     5457.989     9399.412     2118.034        4.459        0.849      265.374       45.758        0.030      337.692        9.835      860.218
04/13/2014  04:09:00     -106.462      235.573      -38.783       79.025       98.957       48.203     6244.939     9792.513     2323.485        4.334        0.918      258.513       45.333        0.031      337.701        9.850      860.215
04/13/2014  04:10:00      -91.339      201.328      -14.462      100.399      125.491       57.723    10079.926    15747.971     3331.938        3.912        1.458      221.079       55.364        0.063      337.757        9.944      860.208
04/13/2014  04:11:00      -85.348      160.519      -15.175       83.347       94.676       56.951     6946.654     8963.515     3243.446        2.621        0.958      181.799       55.531        0.093      337.783        9.988      860.197
04/13/2014  04:12:00     -119.522      254.664      -33.300       86.570      130.853       71.611     7494.372    17122.630     5128.103        5.499        1.487      281.317       68.103        0.059      337.820       10.049      860.204
04/13/2014  04:13:00     -115.278      237.751      -27.665      107.085      126.334       67.779    11467.192    15960.182     4593.938        5.129        1.601      264.224       61.557        0.054      337.824       10.055      860.199
04/13/2014  04:14:00     -126.549      150.671      -15.729      115.583       97.640       48.340    13359.404     9533.643     2336.797        3.209        1.261      196.765       49.634        0.064      337.802       10.021      860.211
04/13/2014  04:15:00     -102.633      146.407      -25.520       68.188       61.701       44.598     4649.554     3807.043     1988.962        2.153        0.522      178.798       39.845        0.050      337.763        9.955      860.216
04/13/2014  04:16:00     -123.354      201.948      -19.636       81.403      129.225       62.956     6626.449    16699.186     3963.442        4.183        1.364      236.642       73.351        0.096      337.786        9.993      860.220
04/13/2014  04:17:00     -137.609      181.996      -15.493      102.811      139.492       61.506    10570.190    19458.064     3783.009        4.305        1.691      228.164       64.268        0.079      337.737        9.912      860.223
04/13/2014  04:18:00     -172.495      290.298      -27.843      123.579      133.406       74.746    15271.794    17797.183     5587.023        7.672        1.933      337.679       84.223        0.062      337.755        9.939      860.249
04/13/2014  04:19:00     -206.572      374.641      -59.471      104.937      131.323       69.460    11011.739    17245.746     4824.723       10.982        1.654      427.818       58.238        0.019      337.753        9.937      860.270
04/13/2014  04:20:00     -154.712      337.039      -38.770       74.513      100.542       56.717     5552.193    10108.711     3216.809        7.895        0.944      370.852       47.619        0.016      337.732        9.901      860.290
04/13/2014  04:21:00     -158.639      390.781      -50.769       76.119      118.927       64.974     5794.168    14143.661     4221.605       10.230        1.208      421.754       65.328        0.024      337.704        9.854      860.305
04/13/2014  04:22:00     -165.609      275.075      -41.303       79.846      118.027       47.882     6375.455    13930.423     2292.725        6.369        1.130      321.080       50.377        0.025      337.699        9.847      860.320
04/13/2014  04:23:00     -152.064      322.553      -32.382      102.483      133.444       55.896    10502.687    17807.416     3124.370        7.982        1.572      356.600       54.007        0.023      337.685        9.823      860.342
04/13/2014  04:24:00     -170.638      325.785      -50.279      103.485       96.932       56.324    10709.122     9395.852     3172.437        8.052        1.164      367.768       53.605        0.021      337.659        9.779      860.357
04/13/2014  04:25:00     -134.629      315.582      -42.085       80.442      131.920       61.163     6470.956    17402.816     3740.890        7.355        1.381      343.099       71.879        0.044      337.622        9.717      860.381
04/13/2014  04:26:00     -144.384      212.572      -32.125       77.653      132.658       49.514     6029.982    17598.156     2451.587        4.657        1.304      256.970       54.183        0.044      337.626        9.723      860.395
04/13/2014  04:27:00     -158.603      376.964      -43.773      102.866      109.479       64.221    10581.483    11985.611     4124.282        9.793        1.335      408.971       62.498        0.023      337.537        9.574      860.422
04/13/2014  04:28:00     -117.415      291.746      -24.217       90.025      127.257       60.586     8104.525    16194.403     3670.654        6.372        1.398      314.486       66.130        0.044      337.500        9.513      860.451
04/13/2014  04:29:00     -139.690      257.825      -26.272       85.381      104.082       60.616     7289.912    10833.127     3674.347        5.423        1.090      293.235       59.675        0.041      337.492        9.498      860.478
04/13/2014  04:30:00     -152.556      346.265      -44.021       78.709       96.043       58.865     6195.057     9224.333     3465.142        8.199        0.944      378.382       51.990        0.019      337.441        9.412      860.500
04/13/2014  04:31:00     -109.725      316.384      -35.322       75.768      110.034       58.523     5740.819    12107.579     3424.988        6.733        1.064      334.871       56.419        0.028      337.429        9.392      860.518
04/13/2014  04:32:00     -122.286      296.649      -31.669       88.850       88.453       55.293     7894.286     7823.858     3057.342        6.136        0.939      320.865       45.690        0.020      337.412        9.364      860.540
04/13/2014  04:33:00     -144.740      202.648      -34.928       88.401       86.275       46.143     7814.808     7443.349     2129.149        4.031        0.869      249.030       41.442        0.028      337.418        9.376      860.562
04/13/2014  04:34:00     -105.103      208.965      -17.111       86.307      103.569       59.641     7448.841    10726.523     3557.014        3.836        1.087      233.909       57.100        0.060      337.403        9.350      860.575
04/13/2014  04:35:00      -92.970      265.094      -33.766       74.790       90.568       52.197     5593.521     8202.537     2724.561        4.829        0.826      280.924       48.129        0.029      337.380        9.309      860.594
04/13/2014  04:36:00      -99.461      219.098      -18.284       87.553      116.642       55.951     7665.479    13605.322     3130.529        4.131        1.220      240.617       52.820        0.048      337.407        9.357      860.615
04/13/2014  04:37:00      -66.186      252.506      -26.128       65.781      104.954       51.025     4327.096    11015.252     2603.582        4.338        0.897      261.036       49.531        0.036      337.398        9.343      860.647
04/13/2014  04:38:00      -81.374      100.061      -11.800       70.495       77.181       42.076     4969.615     5956.833     1770.389        1.473        0.635      128.972       45.332        0.124      337.392        9.335      860.672
04/13/2014  04:39:00     -135.211      241.803      -27.473       61.857       88.577       55.691     3826.346     7845.966     3101.455        4.614        0.739      277.040       32.662        0.014      337.377        9.306      860.695
04/13/2014  04:40:00     -160.797      248.872      -30.565      101.761      140.244       64.081    10355.357    19668.477     4106.397        6.142        1.707      296.299       67.404        0.052      337.393        9.332      860.713
04/13/2014  04:41:00     -237.206      308.298      -65.001      126.645      155.238       63.158    16038.980    24098.806     3988.981        9.982        2.206      388.991       70.447        0.033      337.438        9.409      860.744
04/13/2014  04:42:00     -173.232      262.814      -50.484       83.298      108.424       70.010     6938.609    11755.866     4901.362        6.261        1.180      314.770       60.795        0.037      337.418        9.376      860.751
04/13/2014  04:43:00     -174.257      198.839      -26.036       92.960       97.039       69.175     8641.507     9416.587     4785.130        4.671        1.142      264.391       67.393        0.065      337.431        9.397      860.777
04/13/2014  04:44:00     -124.419      237.408      -17.816       94.878      178.557       60.752     9001.866    31882.452     3690.783        5.836        2.229      268.035       38.098        0.020      337.436        9.403      860.785
04/13/2014  04:45:00     -171.818      257.935      -32.447       97.402      137.785       64.700     9487.172    18984.698     4186.054        6.487        1.633      309.922       57.480        0.034      337.398        9.341      860.799
04/13/2014  04:46:00     -169.396      220.841      -37.717      106.333      160.294       62.831    11306.629    25694.240     3947.749        5.991        2.047      278.326       63.714        0.052      337.432        9.400      860.800
04/13/2014  04:47:00     -217.095      250.895      -47.435      110.712      156.591       71.293    12257.194    24520.810     5082.649        7.709        2.093      331.781       85.339        0.066      337.404        9.353      860.809
04/13/2014  04:48:00      -97.518      288.976      -25.636       74.237      123.342       55.043     5511.151    15213.136     3029.768        5.871        1.188      304.987       47.774        0.025      337.413        9.368      860.812
04/13/2014  04:49:00     -150.429      241.219      -43.324      123.118      129.226       69.975    15158.157    16699.294     4896.529        5.972        1.838      284.281       68.416        0.058      337.388        9.327      860.833
04/13/2014  04:50:00     -169.351      271.593      -40.570      117.452      125.865       78.491    13794.921    15841.992     6160.871        6.994        1.790      320.066       59.845        0.035      337.348        9.257      860.850
04/13/2014  04:51:00     -164.081      298.012      -37.645      126.040      149.059       74.241    15886.034    22218.614     5511.771        8.038        2.181      340.197       81.864        0.058      337.360        9.278      860.853
04/13/2014  04:52:00     -192.605      244.821      -46.570       96.794      144.162       67.098     9369.007    20782.543     4502.092        6.692        1.733      311.503       69.176        0.049      337.385        9.321      860.851
04/13/2014  04:53:00     -208.214      374.529      -57.885      121.329      131.639       71.049    14720.821    17328.876     5047.957       11.203        1.855      428.515       70.003        0.027      337.322        9.215      860.862
04/13/2014  04:54:00     -155.053      253.797      -45.411      117.465      101.882       55.833    13798.004    10379.997     3117.332        5.890        1.365      297.412       57.009        0.037      337.351        9.264      860.865
04/13/2014  04:55:00     -199.520      269.031      -41.757      119.620      155.595       67.056    14309.004    24209.658     4496.545        7.846        2.151      334.942       72.885        0.047      337.265        9.121      860.889
04/13/2014  04:56:00     -191.909      292.226      -39.214      107.275      136.667       65.444    11507.997    18677.882     4282.967        7.911        1.723      349.608       57.451        0.027      337.224        9.052      860.907
04/13/2014  04:57:00     -210.321      249.606      -40.671      123.647      165.062       80.336    15288.528    27245.556     6453.912        7.858        2.449      326.401       81.041        0.062      337.210        9.029      860.935
04/13/2014  04:58:00     -156.361      234.604      -29.456      146.827      156.691       75.533    21558.149    24551.917     5705.169        6.608        2.591      281.936       87.088        0.095      337.167        8.956      860.954
04/13/2014  04:59:00     -199.336      393.525      -53.590      109.308      126.606       63.871    11948.185    16028.963     4079.451       11.476        1.603      441.131       56.250        0.016      337.111        8.861      860.981
04/13/2014  05:00:00     -161.470      430.048      -49.898      103.980      164.040       77.978    10811.930    26909.038     6080.576       12.864        2.190      459.363       79.018        0.030      337.095        8.834      861.017
04/13/2014  05:01:00     -234.221      283.635      -49.046      133.851      131.999       84.580    17916.020    17423.693     7153.700        9.010        2.125      367.843       76.665        0.043      337.119        8.873      861.054
04/13/2014  05:02:00     -216.015      421.157      -61.147      136.712      208.445       84.308    18690.179    43449.362     7107.764       14.850        3.462      473.324       86.557        0.033      337.091        8.827      861.095
04/13/2014  05:03:00     -176.639      353.128      -38.218      105.073      168.113       76.895    11040.407    28262.050     5912.874       10.128        2.261      394.843       81.524        0.043      337.075        8.801      861.127
04/13/2014  05:04:00     -179.322      352.574      -40.026      115.054      165.515       68.694    13237.517    27395.148     4718.924       10.170        2.268      395.556       70.925        0.032      337.043        8.746      861.158
04/13/2014  05:05:00     -156.710      331.695      -28.910       93.158      123.041       69.246     8678.469    15139.021     4795.061        8.201        1.431      366.851       65.157        0.032      337.006        8.686      861.182
04/13/2014  05:06:00     -193.327      282.199      -49.988      147.237      157.699       75.237    21678.806    24868.928     5660.533        8.585        2.610      342.069       88.636        0.067      336.992        8.662      861.199
04/13/2014  05:07:00     -219.033      378.026      -50.557      118.680      138.230       80.022    14084.873    19107.574     6403.567       11.651        1.980      436.897       70.413        0.026      336.970        8.625      861.195
04/13/2014  05:08:00     -170.988      357.348      -45.956      124.898      220.158       69.994    15599.467    48469.581     4899.202       11.399        3.448      396.150       83.783        0.045      336.985        8.650      861.223
04/13/2014  05:09:00     -188.904      427.041      -63.192      142.619      124.602       69.461    20340.296    15525.701     4824.864       13.136        2.035      466.957       65.196        0.019      336.967        8.619      861.245
04/13/2014  05:10:00     -139.272      346.117      -33.844      114.263      163.993       76.728    13055.989    26893.692     5887.224        9.308        2.292      373.087       84.582        0.051      336.953        8.595      861.272
04/13/2014  05:11:00     -214.732      328.418      -45.168      122.269      137.491       80.873    14949.637    18903.681     6540.403        9.819        2.020      392.388       79.717        0.041      336.951        8.593      861.315
04/13/2014  05:12:00     -179.460      237.129      -44.603      108.982      111.456       63.098    11876.970    12422.339     3981.380        5.935        1.414      297.382       55.927        0.035      336.929        8.557      861.343
04/13/2014  05:13:00     -166.678      444.631      -47.396      117.199      184.511       80.816    13735.580    34044.341     6531.159       14.101        2.716      474.846       78.007        0.027      336.862        8.444      861.338
04/13/2014  05:14:00     -215.589      222.612      -49.777      127.912      122.519       75.200    16361.495    15010.802     5655.113        6.776        1.851      309.895       78.731        0.065      336.862        8.444      861.336
04/13/2014  05:15:00     -209.028      356.249      -41.558      140.002      146.340       86.231    19600.477    21415.426     7435.783       11.038        2.423      413.045       83.295        0.041      336.803        8.346      861.332
04/13/2014  05:16:00     -222.299      383.480      -56.923      119.316      134.304       62.378    14236.270    18037.526     3891.002       11.793        1.808      443.254       56.959        0.017      336.788        8.320      861.335
04/13/2014  05:17:00     -256.003      423.958      -63.905      166.673      180.566       89.837    27779.847    32603.939     8070.670       15.889        3.423      495.256      109.261        0.049      336.759        8.273      861.345
04/13/2014  05:18:00     -209.218      389.227      -53.915      113.261      129.098       87.203    12828.081    16666.333     7604.422       11.763        1.855      441.893       72.719        0.027      336.756        8.267      861.341
04/13/2014  05:19:00     -188.992      286.623      -41.198      136.545      163.156       68.941    18644.516    26619.879     4752.850        8.478        2.501      343.323       87.911        0.066      336.767        8.288      861.354
04/13/2014  05:20:00     -279.118      328.792      -59.612      122.305      145.550       83.305    14958.590    21184.828     6939.788       11.632        2.154      431.290       80.632        0.035      336.744        8.249      861.371
04/13/2014  05:21:00     -239.262      255.441      -37.723      132.129      137.030       74.520    17458.039    18777.164     5553.208        8.285        2.089      349.995       76.515        0.048      336.723        8.213      861.391
04/13/2014  05:22:00     -261.348      288.791      -57.112      170.988      108.718       65.635    29236.992    11819.680     4307.932       10.016        2.268      389.490       72.410        0.035      336.713        8.197      861.419
04/13/2014  05:23:00     -246.511      318.202      -52.329      117.558      158.615       64.522    13819.917    25158.741     4163.055       10.394        2.157      402.517       61.533        0.023      336.697        8.169      861.415
04/13/2014  05:24:00     -180.500      250.361      -51.185      110.502      128.773       71.493    12210.582    16582.609     5111.249        6.589        1.695      308.644       74.117        0.058      336.652        8.095      861.415
04/13/2014  05:25:00     -197.194      278.462      -34.059      105.548      135.207       77.140    11140.330    18280.816     5950.568        7.647        1.769      341.214       67.116        0.039      336.616        8.035      861.401
04/13/2014  05:26:00     -253.931      312.420      -61.485      142.102      128.672       83.731    20193.044    16556.445     7010.887       10.481        2.188      402.601       90.992        0.051      336.615        8.034      861.403
04/13/2014  05:27:00     -245.467      251.879      -49.402      145.069      142.357       86.172    21045.071    20265.395     7425.613        8.743        2.437      351.706       90.764        0.067      336.585        7.985      861.405
04/13/2014  05:28:00     -196.756      258.522      -43.088       89.015      137.210       80.824     7923.681    18826.674     6532.524        7.034        1.664      324.879       68.602        0.045      336.570        7.959      861.419
04/13/2014  05:29:00     -199.330      305.215      -44.249      127.900      154.770       72.831    16358.476    23953.681     5304.285        9.022        2.281      364.539       71.710        0.039      336.549        7.923      861.436
04/13/2014  05:30:00     -236.316      325.959      -55.677      115.634      139.905       66.895    13371.203    19573.481     4474.905       10.130        1.871      402.609       62.132        0.024      336.536        7.901      861.444
04/13/2014  05:31:00     -294.769      318.420      -65.498      162.835      136.269       91.772    26515.078    18569.282     8422.102       12.303        2.675      433.912       92.525        0.045      336.557        7.936      861.458
04/13/2014  05:32:00     -269.221      313.236      -55.043      139.195      140.366       82.227    19375.256    19702.532     6761.218       10.972        2.292      413.034       85.181        0.043      336.531        7.892      861.465
04/13/2014  05:33:00     -167.814      248.370      -26.841      113.710      116.661       67.206    12930.070    13609.725     4516.690        6.081        1.553      299.749       73.120        0.060      336.502        7.843      861.473
04/13/2014  05:34:00     -250.218      261.837      -44.596      128.679      131.564       67.089    16558.283    17309.033     4500.907        8.575        1.918      362.170       52.549        0.021      336.473        7.795      861.473
04/13/2014  05:35:00     -209.987      271.678      -39.183      154.424      132.124       80.899    23846.745    17456.634     6544.589        8.363        2.392      343.371       84.964        0.061      336.491        7.825      861.456
04/13/2014  05:36:00     -246.685      244.674      -25.477      167.314      173.008       90.048    27994.076    29931.823     8108.702        9.369        3.302      347.447       91.247        0.069      336.470        7.790      861.450
04/13/2014  05:37:00     -239.213      226.426      -40.343      137.322      122.319       69.021    18857.333    14962.046     4763.908        7.434        1.929      329.381       70.152        0.045      336.456        7.765      861.477
04/13/2014  05:38:00     -251.927      213.353      -39.389      130.135      151.078       82.131    16935.210    22824.645     6745.437        7.851        2.325      330.132       82.947        0.063      336.473        7.796      861.474
04/13/2014  05:39:00     -176.447      179.733      -35.233      110.454       88.310       61.308    12199.993     7798.715     3758.687        4.421        1.188      251.868       58.088        0.053      336.456        7.767      861.483
04/13/2014  05:40:00     -116.957      148.954      -20.167       89.061       99.786       62.819     7931.776     9957.221     3946.281        2.905        1.092      189.384       60.488        0.102      336.460        7.773      861.489
04/13/2014  05:41:00     -115.212       80.202      -13.911       73.127       96.246       50.097     5347.559     9263.308     2509.693        1.851        0.856      140.379       41.249        0.086      336.495        7.834      861.509
04/13/2014  05:42:00     -164.632      140.597      -25.739      109.163      102.779       52.068    11916.494    10563.497     2711.048        3.636        1.260      216.497       49.058        0.051      336.439        7.739      861.534
04/13/2014  05:43:00      -93.121      175.290      -21.604       74.805       99.650       53.600     5595.821     9930.190     2872.982        2.913        0.920      198.489       51.957        0.069      336.449        7.755      861.549
04/13/2014  05:44:00     -113.771      123.564      -17.725       64.981      125.543       51.283     4222.543    15761.042     2629.924        2.557        1.131      167.964       36.912        0.048      336.450        7.757      861.559
04/13/2014  05:45:00      -67.536      173.899       -7.552       86.946      143.178       68.158     7559.631    20499.811     4645.581        3.378        1.635      186.553       61.216        0.108      336.427        7.718      861.572
04/13/2014  05:46:00      -63.423      126.548      -22.865       69.410       94.640       61.204     4817.738     8956.654     3745.871        1.904        0.876      141.552       50.149        0.126      336.414        7.697      861.581
04/13/2014  05:47:00      -81.871      108.506      -32.171      104.892      124.820       49.102    11002.427    15580.093     2411.046        2.425        1.450      135.928       19.563        0.021      336.469        7.789      861.597
04/13/2014  05:48:00      -82.134      138.574      -22.562       95.257      101.794       53.347     9073.913    10362.105     2845.953        2.437        1.114      161.086       44.716        0.077      336.488        7.821      861.607
04/13/2014  05:49:00     -120.553      214.048      -15.478      124.037      144.940       78.045    15385.291    21007.523     6091.017        5.153        2.124      245.661       62.233        0.064      336.498        7.837      861.623
04/13/2014  05:50:00     -123.105      110.885      -19.297      106.283       85.804       52.335    11295.984     7362.265     2738.924        2.461        1.070      165.682       42.704        0.066      336.492        7.829      861.681
04/13/2014  05:51:00      -37.733      113.198        4.673      102.780       80.875       52.716    10563.771     6540.701     2778.955        1.707        0.994      119.321       44.659        0.140      336.445        7.749      861.711
04/13/2014  05:52:00      -57.962      133.798        7.639       66.477      106.540       45.248     4419.252    11350.678     2047.414        1.957        0.891      145.813       42.717        0.086      336.412        7.693      861.750
04/13/2014  05:53:00      -72.827      191.735      -21.754       95.800      134.534       54.577     9177.726    18099.449     2978.601        3.639        1.513      205.100       63.015        0.094      336.404        7.679      861.792
04/13/2014  05:54:00      -22.700      206.537       -7.642       78.403      115.864       66.069     6146.956    13424.423     4365.139        3.358        1.197      207.781       65.463        0.099      336.373        7.629      861.812
04/13/2014  05:55:00     -122.817      263.844      -41.200      101.066       93.267       62.210    10214.431     8698.773     3870.100        5.458        1.139      291.029       63.910        0.048      336.345        7.580      861.831
04/13/2014  05:56:00     -135.042      157.555      -36.465       87.103       74.526       39.421     7586.984     5554.179     1554.041        2.954        0.735      207.509       32.247        0.024      336.364        7.613      861.861
04/13/2014  05:57:00     -138.575      276.672      -51.899      103.902      131.840       52.178    10795.612    17381.782     2722.516        6.467        1.545      309.436       59.246        0.037      336.346        7.582      861.871
04/13/2014  05:58:00     -110.046      190.776      -29.711       61.113      101.229       36.120     3734.766    10247.244     1304.674        3.233        0.764      220.240       21.612        0.010      336.342        7.576      861.881
04/13/2014  05:59:00     -168.974      224.984      -39.135      131.742      121.580       64.490    17356.079    14781.765     4159.008        5.849        1.815      281.372       82.115        0.085      336.376        7.632      861.889
04/13/2014  06:00:00     -118.345      139.382      -11.193       97.469       90.503       53.589     9500.163     8190.856     2871.752        2.706        1.028      182.846       53.583        0.086      336.352        7.592      861.893
04/13/2014  06:01:00     -170.335      167.963      -45.811      100.217       98.580       57.721    10043.491     9718.112     3331.664        4.120        1.155      239.218       49.593        0.043      336.329        7.553      861.916
04/13/2014  06:02:00     -146.992      110.115      -12.406      110.697       91.342       58.409    12253.797     8343.451     3411.596        2.894        1.200      183.663       57.907        0.099      336.316        7.532      861.933
04/13/2014  06:03:00      -93.311      103.953       -1.108       90.473       88.392       55.724     8185.309     7813.182     3105.128        1.931        0.955      139.689       54.399        0.152      336.314        7.531      861.948
04/13/2014  06:04:00     -108.548      144.471      -11.633      124.199      124.134       62.422    15425.375    15409.267     3896.473        3.375        1.737      180.706       74.913        0.172      336.316        7.535      861.966
04/13/2014  06:05:00     -157.570      154.106      -20.099      136.578       88.809       57.949    18653.657     7887.034     3358.068        3.943        1.495      220.402       73.897        0.112      336.293        7.494      861.983
04/13/2014  06:06:00     -131.393      163.055      -28.850       69.546      105.525       54.825     4836.653    11135.596     3005.810        3.183        0.949      209.407       54.311        0.067      336.270        7.458      862.005
04/13/2014  06:07:00      -96.551      121.101      -14.726       82.909       94.419       49.512     6873.876     8914.887     2451.464        2.122        0.912      154.879       50.203        0.105      336.253        7.428      862.023
04/13/2014  06:08:00      -25.907      153.340      -16.510       61.281       76.582       44.138     3755.336     5864.870     1948.149        1.801        0.578      155.513       37.183        0.057      336.263        7.447      862.052
04/13/2014  06:09:00      -13.623       63.274       12.075       50.036       63.663       37.623     2503.612     4052.986     1415.494        0.615        0.399       64.724       34.506        0.284      336.241        7.411      862.063
04/13/2014  06:10:00     -115.072       65.305      -11.824       90.452       55.440       53.698     8181.579     3073.567     2883.524        1.589        0.707      132.312       23.644        0.032      336.288        7.488      862.085
04/13/2014  06:11:00        1.821       28.983       -8.913       57.716       50.848       26.761     3331.133     2585.473      716.156        0.378        0.332       29.040       28.403        0.957      336.277        7.471      862.116
04/13/2014  06:12:00      -64.079      100.393        5.959      170.965       99.681       63.461    29229.045     9936.366     4027.278        2.870        2.160      119.100       87.466        0.539      336.239        7.407      862.142
04/13/2014  06:13:00     -122.992      150.635       -4.178      136.344      124.979       73.521    18589.666    15619.869     5405.280        3.872        1.981      194.469       66.015        0.115      336.250        7.423      862.179
04/13/2014  06:14:00     -171.384      192.967      -23.320      102.791      125.803       64.078    10565.963    15826.354     4106.032        4.882        1.525      258.086       63.262        0.060      336.305        7.513      862.197
04/13/2014  06:15:00     -146.574      226.660      -30.189       87.215      121.457       62.759     7606.538    14751.843     3938.646        5.003        1.315      269.924       51.330        0.036      336.237        7.400      862.222
04/13/2014  06:16:00     -112.167      167.293       -4.140       99.059      101.275       50.613     9812.728    10256.617     2561.642        3.160        1.132      201.416       47.368        0.055      336.197        7.334      862.227
04/13/2014  06:17:00     -111.334      259.991      -27.070       73.951      110.929       56.173     5468.707    12305.250     3155.415        5.082        1.046      282.826       59.343        0.044      336.220        7.372      862.250
04/13/2014  06:18:00     -117.569      173.161      -14.227       78.145       98.146       60.251     6106.631     9632.643     3630.150        3.169        0.968      209.302       65.073        0.097      336.225        7.381      862.270
04/13/2014  06:19:00     -157.762      192.074      -27.215      119.640      133.132       71.145    14313.812    17724.091     5061.591        4.980        1.855      248.558       80.335        0.104      336.221        7.374      862.284
04/13/2014  06:20:00     -196.250      198.943      -26.305      134.158      110.460       73.584    17998.307    12201.473     5414.606        5.719        1.781      279.450       69.510        0.062      336.237        7.401      862.266
04/13/2014  06:21:00     -145.917      176.240      -13.108      103.267      100.116       54.946    10664.140    10023.202     3019.074        3.811        1.185      228.806       51.490        0.051      336.204        7.347      862.273
04/13/2014  06:22:00     -199.298      210.272      -35.052      115.008      105.284       63.097    13226.737    11084.666     3981.221        5.672        1.415      289.714       48.158        0.028      336.259        7.437      862.292
04/13/2014  06:23:00     -135.744      280.503      -23.648       96.478      179.911       67.957     9307.942    32368.054     4618.111        7.197        2.315      311.622       68.642        0.049      336.228        7.386      862.311
04/13/2014  06:24:00     -158.485      176.256      -25.419       94.890      103.920       54.365     9004.056    10799.309     2955.547        3.979        1.138      237.031       54.136        0.052      336.212        7.360      862.319
04/13/2014  06:25:00     -190.821      220.667      -27.367      109.239       96.965       61.440    11933.114     9402.242     3774.904        5.548        1.256      291.730       47.913        0.027      336.182        7.307      862.340
04/13/2014  06:26:00     -224.246      247.592      -51.203      120.263      110.223       68.365    14463.079    12149.048     4673.832        7.274        1.564      334.048       67.877        0.041      336.180        7.305      862.355
04/13/2014  06:27:00     -136.369      199.180      -29.359       79.210      117.298       56.445     6274.262    13758.779     3186.076        4.117        1.161      241.390       49.918        0.043      336.150        7.254      862.357
04/13/2014  06:28:00     -133.684      280.679      -19.559       84.755      112.636       54.431     7183.413    12686.967     2962.782        5.993        1.142      310.890       62.160        0.040      336.099        7.171      862.357
04/13/2014  06:29:00     -185.610      177.791      -41.326      115.298      108.171       64.443    13293.704    11700.896     4152.883        4.845        1.457      257.022       67.057        0.068      336.152        7.260      862.366
04/13/2014  06:30:00     -191.988      209.210      -29.125      101.841      106.964       72.134    10371.521    11441.193     5203.357        5.424        1.351      283.952       67.750        0.057      336.156        7.265      862.379
04/13/2014  06:31:00     -180.572      295.581      -44.946      100.752      113.042       68.498    10150.877    12778.551     4692.021        7.480        1.381      346.373       63.274        0.033      336.135        7.230      862.389
04/13/2014  06:32:00     -216.860      275.613      -40.611      128.306      148.957       65.991    16462.339    22188.064     4354.773        8.381        2.150      350.700       72.307        0.043      336.172        7.292      862.410
04/13/2014  06:33:00     -180.436      251.798      -29.605       97.826      106.018       63.166     9569.919    11239.777     3989.940        6.081        1.240      309.773       62.365        0.041      336.150        7.255      862.452
04/13/2014  06:34:00     -159.340      276.569      -45.388      100.691      136.808       61.186    10138.586    18716.414     3743.689        6.826        1.630      319.186       57.035        0.032      336.135        7.230      862.480
04/13/2014  06:35:00     -189.750      299.538      -40.923      103.705       96.458       61.178    10754.676     9304.129     3742.705        7.560        1.190      354.582       62.184        0.031      336.128        7.218      862.502
04/13/2014  06:36:00     -164.229      305.610      -42.231       95.970      134.767       62.729     9210.151    18162.180     3934.912        7.672        1.565      346.942       55.820        0.026      336.141        7.241      862.537
04/13/2014  06:37:00     -160.045      244.742      -37.684       98.890      108.104       63.124     9779.157    11686.512     3984.694        5.619        1.273      292.426       51.299        0.031      336.121        7.206      862.565
04/13/2014  06:38:00     -171.034      307.612      -30.125      100.429      117.552       69.527    10085.930    13818.381     4834.020        7.676        1.437      351.963       59.542        0.029      336.120        7.205      862.602
04/13/2014  06:39:00     -137.921      352.075      -45.720       86.667      113.724       63.106     7511.197    12933.191     3982.424        8.474        1.221      378.126       50.026        0.018      336.090        7.154      862.654
04/13/2014  06:40:00     -183.121      341.610      -50.125       90.885      123.855       63.416     8260.028    15339.943     4021.574        9.018        1.381      387.596       65.349        0.028      336.057        7.100      862.679
04/13/2014  06:41:00     -174.244      262.341      -42.450       92.919      130.258       58.093     8633.998    16967.195     3374.777        6.498        1.449      314.935       62.279        0.039      336.040        7.072      862.716
04/13/2014  06:42:00     -161.135      257.745      -33.770       81.118      121.249       58.649     6580.106    14701.256     3439.649        5.912        1.236      303.969       57.392        0.036      336.001        7.008      862.753
04/13/2014  06:43:00     -168.573      288.283      -43.697       75.306      118.896       65.266     5671.054    14136.170     4259.615        6.875        1.203      333.952       36.137        0.012      335.999        7.004      862.776
04/13/2014  06:44:00     -176.101      236.499      -24.951       95.352      100.409       64.310     9091.960    10081.874     4135.828        5.543        1.165      294.862       51.956        0.031      336.026        7.047      862.796
04/13/2014  06:45:00     -199.710      244.593      -45.831       90.341      119.435       58.400     8161.421    14264.833     3410.572        6.382        1.292      315.769       61.193        0.038      336.033        7.061      862.828
04/13/2014  06:46:00     -186.286      207.509      -35.060      117.911      104.283       58.003    13902.959    10874.909     3364.380        5.356        1.407      278.859       60.281        0.047      335.984        6.978      862.863
04/13/2014  06:47:00     -193.624      143.240      -30.312      104.713       92.289       59.099    10964.876     8517.317     3492.720        4.095        1.149      240.848       51.877        0.046      336.021        7.040      862.876
04/13/2014  06:48:00     -164.834      243.411      -38.474       68.040       87.531       40.945     4629.444     7661.665     1676.471        5.093        0.698      293.971       33.922        0.013      335.954        6.927      862.895
04/13/2014  06:49:00     -136.955      114.985      -22.320       81.668       56.939       38.921     6669.715     3242.093     1514.876        2.195        0.571      178.824       33.259        0.035      336.012        7.026      862.912
04/13/2014  06:50:00     -148.566      179.336      -22.977       79.045       83.375       48.832     6248.117     6951.450     2384.602        3.517        0.779      232.880       45.073        0.037      336.025        7.047      862.942
04/13/2014  06:51:00     -159.982      163.692      -24.210       87.718       69.692       52.380     7694.400     4856.940     2743.616        3.413        0.765      228.887       48.133        0.044      336.077        7.134      862.990
04/13/2014  06:52:00     -102.694      174.100      -22.670       52.670       66.757       39.296     2774.082     4456.456     1544.153        2.507        0.439      202.131       35.015        0.030      336.069        7.122      863.021
04/13/2014  06:53:00     -112.254      142.724      -22.418       51.288       67.018       35.712     2630.428     4491.381     1275.339        2.093        0.420      181.580       28.925        0.025      336.106        7.184      863.056
04/13/2014  06:54:00      -88.771      152.129      -14.963       66.976       73.382       39.295     4485.835     5384.926     1544.115        2.133        0.571      176.135       32.173        0.033      336.125        7.212      863.089
04/13/2014  06:55:00     -127.933      176.185      -30.382       65.725       61.980       40.985     4319.762     3841.524     1679.751        2.908        0.492      217.734       34.843        0.026      336.053        7.094      863.128
04/13/2014  06:56:00     -170.050      147.792      -32.766       82.376       72.074       41.330     6785.748     5194.695     1708.198        3.276        0.684      225.299       34.944        0.024      336.043        7.078      863.165
04/13/2014  06:57:00     -132.673      143.779      -29.718       80.463       52.148       42.033     6474.337     2719.455     1766.811        2.506        0.548      195.638       38.574        0.039      336.050        7.089      863.189
04/13/2014  06:58:00      -69.194      154.739      -15.331       57.026       63.784       35.659     3251.949     4068.453     1271.535        1.878        0.430      169.505       33.999        0.040      336.082        7.144      863.210
04/13/2014  06:59:00     -111.790      278.717      -32.474       62.107       99.411       43.616     3857.241     9882.452     1902.317        5.344        0.782      300.300       40.604        0.018      336.026        7.047      863.234
04/13/2014  07:00:00     -117.614      153.326      -31.189       74.173       68.757       40.057     5501.703     4727.587     1604.541        2.507        0.592      193.240       44.282        0.053      336.073        7.127      863.262
04/13/2014  07:01:00     -110.563      197.636      -27.594       63.968       69.930       38.600     4091.885     4890.213     1489.970        3.126        0.524      226.460       43.588        0.037      336.114        7.194      863.294
04/13/2014  07:02:00      -80.091      188.081      -21.561       54.606       71.069       40.809     2981.854     5050.788     1665.391        2.597        0.485      204.423       39.943        0.038      336.188        7.320      863.323
04/13/2014  07:03:00      -46.382      246.609      -24.631       57.790       68.355       33.358     3339.699     4672.472     1112.787        3.635        0.456      250.933       26.964        0.012      336.172        7.291      863.360
04/13/2014  07:04:00      -54.329      205.683      -26.681       35.043       57.781       28.066     1228.046     3338.692      787.677        2.566        0.268      212.737       25.509        0.014      336.141        7.242      863.388
04/13/2014  07:05:00      -88.469      211.030      -23.918       57.297       79.905       38.916     3282.897     6384.786     1514.427        3.206        0.559      228.824       40.880        0.032      336.079        7.137      863.410
04/13/2014  07:06:00      -42.444      124.516       -8.342       29.056       48.700       28.961      844.277     2371.647      838.758        1.071        0.203      131.551       19.907        0.023      336.221        7.377      863.420
04/13/2014  07:07:00     -112.942      164.421      -23.797       71.814       82.223       45.986     5157.231     6760.642     2114.736        2.719        0.702      199.474       48.555        0.059      336.247        7.418      863.434
04/13/2014  07:08:00      -96.956      192.086      -27.052       55.431       90.353       34.177     3072.621     8163.601     1168.035        2.971        0.620      215.168       29.919        0.019      336.211        7.359      863.435
04/13/2014  07:09:00     -143.154      196.102      -31.227       58.759       83.829       45.135     3452.646     7027.290     2037.160        3.622        0.626      242.794       25.312        0.011      336.243        7.412      863.441
04/13/2014  07:10:00     -171.284      207.938      -45.831       89.982       84.431       50.935     8096.830     7128.610     2594.362        4.624        0.891      269.400       56.603        0.044      336.183        7.311      863.448
04/13/2014  07:11:00     -190.750      218.682      -39.581       78.662      110.211       53.330     6187.687    12146.551     2844.103        5.347        1.059      290.185       53.325        0.034      336.175        7.298      863.462
04/13/2014  07:12:00     -191.574      201.119      -50.284       77.308       80.426       41.398     5976.567     6468.360     1713.834        4.692        0.708      277.758       36.508        0.017      336.187        7.318      863.476
04/13/2014  07:13:00     -131.100      170.674      -30.492       91.106       90.928       47.797     8300.236     8267.853     2284.558        3.305        0.943      215.213       45.807        0.045      336.180        7.306      863.477
04/13/2014  07:14:00     -243.061      313.990      -64.444      102.446      124.643       68.297    10495.092    15535.912     4664.525        9.625        1.535      397.074       69.638        0.031      336.118        7.201      863.486
04/13/2014  07:15:00     -203.905      250.106      -56.255       71.660       94.439       50.224     5135.170     8918.687     2522.448        6.193        0.829      322.692       44.527        0.019      336.110        7.189      863.494
04/13/2014  07:16:00     -231.741      267.412      -68.499      100.830      121.079       53.201    10166.761    14660.240     2830.317        7.878        1.383      353.855       64.376        0.033      336.102        7.174      863.502
04/13/2014  07:17:00     -132.533      163.648      -22.557       65.111       87.624       42.764     4239.415     7678.011     1828.788        2.930        0.687      210.584       30.355        0.021      336.192        7.327      863.503
04/13/2014  07:18:00     -150.527      158.706      -37.587       62.210       72.100       42.015     3870.122     5198.373     1765.291        3.004        0.542      218.737       39.369        0.032      336.197        7.335      863.514
04/13/2014  07:19:00     -151.751      110.052      -19.687       73.238       88.271       44.769     5363.756     7791.733     2004.276        2.534        0.758      187.457       41.785        0.050      336.243        7.412      863.526
04/13/2014  07:20:00     -171.316      154.082      -27.874      102.531       99.184       52.513    10512.559     9837.415     2757.584        3.848        1.155      230.414       50.436        0.048      336.192        7.325      863.539
04/13/2014  07:21:00     -172.367      174.172      -40.616       89.552       81.269       49.925     8019.580     6604.711     2492.528        3.940        0.856      245.043       56.026        0.052      336.205        7.347      863.572
04/13/2014  07:22:00     -127.214      184.985      -18.988       80.220      103.101       41.412     6435.305    10629.901     1714.986        3.477        0.939      224.506       39.564        0.031      336.202        7.343      863.627
04/13/2014  07:23:00     -113.649      192.154      -28.206       64.636       90.618       49.825     4177.850     8211.539     2482.534        3.275        0.744      223.247       50.679        0.052      336.189        7.321      863.679
04/13/2014  07:24:00      -74.638      190.793      -17.263       57.729       73.709       35.007     3332.623     5433.084     1225.504        2.613        0.500      204.872       25.200        0.015      336.236        7.400      863.724
04/13/2014  07:25:00      -82.745      196.337      -22.788       65.080       80.942       45.981     4235.368     6551.634     2114.259        2.941        0.645      213.062       47.440        0.050      336.211        7.358      863.781
04/13/2014  07:26:00        9.772      201.997      -15.234       74.963       97.604       52.516     5619.405     9526.563     2757.978        2.951        0.895      202.233       52.384        0.067      336.318        7.536      863.806
04/13/2014  07:27:00      -68.125      170.345      -10.338       61.898       76.415       38.372     3831.346     5839.277     1472.435        2.245        0.557      183.462       33.160        0.033      336.259        7.439      863.842
04/13/2014  07:28:00      -51.691      144.365      -14.050       72.013       70.914       42.868     5185.916     5028.732     1837.650        1.788        0.603      153.340       49.603        0.105      336.310        7.525      863.880
04/13/2014  07:29:00     -113.169      199.608      -29.652       67.816       86.912       45.961     4598.960     7553.765     2112.431        3.389        0.713      229.457       35.817        0.024      336.261        7.442      863.903
04/13/2014  07:30:00     -103.366      141.824      -20.586       54.011       49.237       37.762     2917.217     2424.264     1425.942        1.899        0.338      175.495       33.197        0.036      336.283        7.479      863.922
04/13/2014  07:31:00     -105.522      237.837      -27.973       71.426       93.625       43.786     5101.679     8765.676     1917.222        4.213        0.789      260.194       41.389        0.025      336.208        7.352      863.949
04/13/2014  07:32:00     -115.310      139.121      -20.288       83.579       66.246       46.474     6985.376     4388.560     2159.837        2.330        0.677      180.696       51.121        0.080      336.315        7.533      863.924
04/13/2014  07:33:00      -45.760      226.138      -13.781       58.660       95.390       38.930     3440.988     9099.172     1515.550        3.374        0.703      230.721       41.633        0.033      336.266        7.450      863.923
04/13/2014  07:34:00      -76.133      127.909       -6.369       68.322       62.692       42.985     4667.927     3930.343     1847.688        1.632        0.522      148.852       17.306        0.014      336.410        7.690      863.915
04/13/2014  07:35:00      -59.841      129.689       10.391       75.864      109.756       50.490     5755.280    12046.438     2549.211        2.043        1.018      142.829       58.395        0.167      336.475        7.800      863.948
04/13/2014  07:36:00     -152.645      225.045      -34.258       88.167       83.596       47.159     7773.361     6988.221     2223.990        4.605        0.849      271.930       51.878        0.036      336.321        7.541      863.973
04/13/2014  07:37:00     -150.942      189.400      -25.603       88.238       59.685       47.896     7785.992     3562.290     2294.043        3.647        0.682      242.190       34.306        0.020      336.338        7.568      863.996
04/13/2014  07:38:00     -102.946      174.831      -23.050       94.201       63.321       48.076     8873.880     4009.553     2311.267        2.844        0.760      202.888       38.396        0.036      336.433        7.729      864.017
04/13/2014  07:39:00      -75.149      132.993        0.604       53.876       82.247       44.845     2902.604     6764.491     2011.100        1.750        0.584      152.756       42.545        0.078      336.523        7.881      864.037
04/13/2014  07:40:00     -108.307      142.114      -14.631       59.633       73.554       49.378     3556.062     5410.141     2438.142        2.177        0.570      178.681       44.542        0.062      336.496        7.835      864.034
04/13/2014  07:41:00     -100.439      105.530        1.577      109.746       90.706       52.898    12044.140     8227.590     2798.162        2.214        1.153      145.687       39.028        0.072      336.526        7.885      864.036
04/13/2014  07:42:00     -169.679      214.845      -25.551       88.348      113.681       59.308     7805.349    12923.480     3517.456        4.992        1.212      273.768       53.954        0.039      336.337        7.566      864.042
04/13/2014  07:43:00      -92.981      125.616       -1.221       69.323       83.928       50.277     4805.662     7043.907     2527.818        1.940        0.719      156.284       43.911        0.079      336.493        7.832      864.044
04/13/2014  07:44:00     -143.355      166.209      -14.450       91.366      139.097       60.050     8347.728    19347.985     3605.999        3.984        1.565      219.490       63.633        0.084      336.379        7.638      864.033
04/13/2014  07:45:00     -125.123      144.425       -8.680       84.445       95.143       60.872     7131.023     9052.236     3705.439        2.824        0.994      191.087       65.644        0.118      336.500        7.841      864.034
04/13/2014  07:46:00     -100.176      225.262      -16.136       69.559       95.119       50.786     4838.414     9047.696     2579.185        3.875        0.823      246.532       37.115        0.023      336.397        7.668      864.040
04/13/2014  07:47:00      -83.774       99.279       -7.774       48.346       60.677       37.644     2337.303     3681.706     1417.101        1.218        0.372      129.902       28.854        0.049      336.576        7.970      864.048
04/13/2014  07:48:00     -105.714      151.575      -18.397       89.247       83.508       49.780     7964.999     6973.637     2478.053        2.595        0.871      184.799       33.926        0.034      336.499        7.840      864.070
04/13/2014  07:49:00      -94.721      170.485      -28.822       69.338       97.714       40.650     4807.805     9548.003     1652.438        2.744        0.800      195.032       34.433        0.031      336.432        7.727      864.110
04/13/2014  07:50:00      -26.847      296.633      -16.713       66.028       76.695       49.153     4359.749     5882.190     2416.025        5.082        0.633      297.845       36.993        0.015      336.528        7.885      864.152
04/13/2014  07:51:00     -168.516       69.213       -8.579       78.627      121.448       54.004     6182.130    14749.685     2916.474        2.855        1.192      182.176       43.959        0.058      336.482        7.811      864.180
04/13/2014  07:52:00      -58.855      123.842       -8.427       64.373       86.629       47.989     4143.848     7504.582     2302.902        1.641        0.698      137.116       39.045        0.081      336.612        8.030      864.209
04/13/2014  07:53:00     -148.078      182.896      -22.522       68.497       83.139       43.201     4691.897     6912.041     1866.338        3.468        0.674      235.325       37.192        0.025      336.462        7.777      864.222
04/13/2014  07:54:00      -56.235      126.940      -18.533       82.634       62.552       44.427     6828.336     3912.793     1973.767        1.616        0.636      138.839       42.580        0.094      336.617        8.038      864.234
04/13/2014  07:55:00     -110.552      161.475      -24.542       65.548       74.914       44.527     4296.518     5612.179     1982.635        2.539        0.595      195.694       37.818        0.037      336.577        7.970      864.232
04/13/2014  07:56:00     -126.127      152.829      -19.327       64.980       75.179       48.785     4222.369     5651.930     2379.955        2.594        0.613      198.154       44.236        0.050      336.539        7.905      864.236
04/13/2014  07:57:00      -46.081      128.506       -0.045       60.997       74.450       42.301     3720.695     5542.741     1789.396        1.484        0.553      136.519       45.172        0.109      336.770        8.294      864.230
04/13/2014  07:58:00      -86.950      152.575      -17.373       50.710       80.237       40.478     2571.501     6437.945     1638.493        2.089        0.532      175.611       35.285        0.040      336.703        8.180      864.212
04/13/2014  07:59:00     -130.744      206.148      -13.755       77.608      111.792       47.949     6023.062    12497.496     2299.138        4.030        1.041      244.112       38.425        0.025      336.623        8.046      864.220
04/13/2014  08:00:00     -138.712       99.116      -26.500       79.459       92.528       38.587     6313.716     8561.412     1488.937        2.306        0.818      170.485       39.595        0.054      336.569        7.957      864.209
04/13/2014  08:01:00     -102.977      205.730      -27.172       85.738      116.781       49.626     7351.056    13637.790     2462.706        3.855        1.173      230.063       33.059        0.021      336.633        8.062      864.223
04/13/2014  08:02:00      -24.505      159.333        1.021       48.504      113.394       40.926     2352.681    12858.102     1674.975        2.143        0.844      161.206       50.867        0.100      336.923        8.549      864.224
04/13/2014  08:03:00      -64.632       29.419        1.345       87.044       44.171       37.583     7576.742     1951.067     1412.502        0.799        0.547       71.013       38.320        0.291      336.961        8.613      864.230
04/13/2014  08:04:00     -111.577      144.612        0.730       73.472      149.538       64.718     5398.197    22361.565     4188.456        3.265        1.597      182.653       72.662        0.158      336.752        8.263      864.241
04/13/2014  08:05:00     -106.374      202.886      -16.287       85.130      112.049       58.854     7247.121    12554.927     3463.754        3.800        1.163      229.081       67.886        0.088      336.695        8.166      864.239
04/13/2014  08:06:00      -61.247      164.621       -7.099       70.845       92.298       55.909     5019.039     8518.835     3125.857        2.378        0.833      175.645       55.293        0.099      336.865        8.453      864.240
04/13/2014  08:07:00      -21.172      171.779       -9.638       44.844       48.044       44.312     2010.948     2308.201     1963.590        1.816        0.314      173.078       29.853        0.030      336.757        8.272      864.246
04/13/2014  08:08:00      -62.788      130.730        6.309       53.233       73.652       39.754     2833.780     5424.553     1580.397        1.545        0.492      145.026       29.358        0.041      336.842        8.416      864.255
04/13/2014  08:09:00      -19.259       46.584       14.173       31.674       61.922       30.295     1003.241     3834.298      917.769        0.425        0.288       50.408       25.734        0.261      337.397        9.346      864.290
04/13/2014  08:10:00      -32.845      183.467        2.050       54.758       78.041       52.626     2998.395     6090.460     2769.470        2.330        0.593      186.384       47.498        0.065      336.866        8.454      864.322
04/13/2014  08:11:00      -36.852      194.182       -7.240       37.578       79.092       45.178     1412.141     6255.484     2041.024        2.441        0.485      197.647       45.074        0.052      336.870        8.459      864.331
04/13/2014  08:12:00     -103.079       35.733        2.136       67.851       58.143       44.680     4603.806     3380.578     1996.305        1.094        0.499      109.097       33.097        0.092      336.882        8.483      864.357
04/13/2014  08:13:00     -164.752      165.464      -24.880      103.417       66.028       58.925    10695.150     4359.638     3472.101        3.683        0.926      233.499       64.286        0.076      336.584        7.981      864.379
04/13/2014  08:14:00      -13.458      230.918       -7.914       38.600      115.543       48.187     1489.967    13350.252     2322.016        3.536        0.858      231.310       51.788        0.050      337.015        8.704      864.386
04/13/2014  08:15:00      -19.403      260.269      -21.368       56.227      100.969       42.149     3161.419    10194.666     1776.497        4.185        0.757      260.992       48.796        0.035      336.655        8.100      864.390
04/13/2014  08:16:00      -11.765      253.541      -11.654       49.454       87.528       38.322     2445.737     7661.204     1468.599        3.806        0.579      253.814       39.210        0.024      336.648        8.088      864.400
04/13/2014  08:17:00       23.858      169.125      -10.490       44.562       88.907       44.449     1985.761     7904.527     1975.673        2.057        0.593      170.799       47.194        0.076      336.788        8.322      864.381
04/13/2014  08:18:00       18.644      174.434      -15.256       62.982       73.030       44.161     3966.759     5333.337     1950.234        2.113        0.563      175.428       41.114        0.055      336.860        8.445      864.378
04/13/2014  08:19:00      -51.574      189.051      -22.154       56.141       73.687       38.418     3151.809     5429.708     1475.971        2.447        0.503      195.960       36.785        0.035      336.866        8.454      864.374
04/13/2014  08:20:00       25.877      215.220      -20.730       59.797       90.026       56.423     3575.650     8104.754     3183.583        3.114        0.743      216.770       52.043        0.058      336.890        8.491      864.379
04/13/2014  08:21:00      -10.980      231.219      -21.495       55.417       96.543       41.512     3071.083     9320.578     1723.223        3.408        0.706      231.479       44.821        0.037      336.771        8.295      864.387
04/13/2014  08:22:00      -27.750      130.805       -3.619       43.145       77.345       36.328     1861.474     5982.209     1319.729        1.353        0.458      133.716       43.214        0.104      336.961        8.613      864.388
04/13/2014  08:23:00      -31.754      111.915        0.656       44.753       64.988       38.683     2002.807     4223.456     1496.389        1.063        0.386      116.333       41.574        0.128      337.047        8.758      864.391
04/13/2014  08:24:00      -94.156      136.152      -12.761       46.397       53.678       36.472     2152.657     2881.318     1330.202        1.696        0.318      165.538       29.661        0.032      336.696        8.170      864.391
04/13/2014  08:25:00        5.114      172.185      -15.352       37.121       94.818       38.916     1377.989     8990.503     1514.450        2.089        0.594      172.261       42.635        0.061      336.945        8.586      864.404
04/13/2014  08:26:00       52.885      127.052       -3.181       64.560      104.828       49.805     4168.015    10988.845     2480.554        1.829        0.882      137.620       43.436        0.100      336.913        8.533      864.434
04/13/2014  08:27:00      104.469       88.994       17.268       58.775       41.018       44.453     3454.472     1682.469     1976.040        1.312        0.356      137.236       27.225        0.039      336.841        8.414      864.439
04/13/2014  08:28:00       68.790      140.485       -3.531       80.845       63.733       56.201     6535.964     4061.861     3158.582        1.912        0.688      156.423       41.709        0.071      336.889        8.492      864.441
04/13/2014  08:29:00      -10.641      134.811      -19.818       51.684       49.999       37.843     2671.265     2499.896     1432.101        1.264        0.330      135.230       25.038        0.034      337.058        8.776      864.460
04/13/2014  08:30:00        0.347      138.537      -11.079       36.271       67.543       44.363     1315.580     4562.100     1968.105        1.358        0.392      138.537       41.416        0.089      336.957        8.606      864.479
04/13/2014  08:31:00      -53.070       59.500        5.054       50.756       92.602       36.636     2576.166     8575.204     1342.167        0.944        0.625       79.729       44.225        0.308      337.069        8.795      864.480
04/13/2014  08:32:00      -70.341      -53.158       -8.930       64.915       34.946       21.896     4214.010     1221.223      479.424        0.688        0.296       88.168       12.808        0.021      336.805        8.353      864.466
04/13/2014  08:33:00      -60.273      -14.487        2.318       87.406       48.878       28.117     7639.770     2389.026      790.573        0.733        0.541       61.990       31.995        0.266      337.143        8.920      864.460
04/13/2014  08:34:00      -69.872      -19.657       -2.783       44.611       40.633       28.934     1990.146     1651.077      837.168        0.488        0.224       72.584       23.625        0.106      337.049        8.763      864.464
04/13/2014  08:35:00      -15.077       20.956       14.599       38.773       21.633       28.860     1503.314      467.968      832.875        0.184        0.140       25.816       17.608        0.465      337.330        9.233      864.462
04/13/2014  08:36:00      -33.653      107.560        0.176       58.363       72.152       49.764     3406.254     5205.962     2476.462        1.189        0.554      112.702       30.235        0.072      337.177        8.975      864.457
04/13/2014  08:37:00      -58.036      268.016      -35.951       52.954       76.835       27.792     2804.172     5903.656      772.421        4.298        0.474      274.228       13.362        0.002      336.667        8.119      864.462
04/13/2014  08:38:00      -13.755       86.047        2.487       57.879       42.236       39.104     3349.949     1783.879     1529.140        0.713        0.333       87.139       33.565        0.148      337.355        9.273      864.471
04/13/2014  08:39:00       45.653       19.265       -9.022       29.221       24.760       19.242      853.891      613.059      370.267        0.219        0.092       49.551       14.101        0.081      336.791        8.332      864.474
04/13/2014  08:40:00       -5.914       86.143       -7.125       31.579       45.232       29.023      997.230     2045.934      842.344        0.570        0.194       86.346       19.487        0.051      337.328        9.229      864.473
04/13/2014  08:41:00       16.040      176.777       -8.987       50.401      103.520       45.856     2540.289    10716.389     2102.788        2.347        0.768      177.503       54.570        0.095      337.155        8.937      864.480
04/13/2014  08:42:00       -6.818      102.626        5.812       30.496       74.978       38.151      929.988     5621.733     1455.464        0.931        0.400      102.853       41.831        0.165      337.470        9.468      864.476
04/13/2014  08:43:00       52.822       62.447        9.946       43.998       64.182       33.292     1935.860     4119.273     1108.340        0.697        0.358       81.791       29.697        0.132      337.185        8.988      864.453
04/13/2014  08:44:00       74.765      134.951       -3.887       59.692       60.499       45.275     3563.174     3660.139     2049.853        1.654        0.464      154.278       38.546        0.062      337.037        8.739      864.462
04/13/2014  08:45:00      108.229       89.096       11.970       42.065       28.326       28.398     1769.488      802.355      806.459        1.159        0.169      140.184       23.357        0.028      336.834        8.402      864.480
04/13/2014  08:46:00       37.978       32.816       13.643       28.279       38.778       22.206      799.719     1503.738      493.119        0.275        0.140       50.192       23.895        0.227      336.922        8.548      864.482
04/13/2014  08:47:00       17.160       21.677       19.905       19.524       18.947       18.379      381.171      358.976      337.771        0.112        0.054       27.647        7.906        0.082      337.456        9.442      864.463
04/13/2014  08:48:00      -28.666      -28.789       -0.100       23.767       20.439       15.976      564.847      417.740      255.246        0.144        0.062       40.627       10.339        0.065      337.301        9.182      864.445
04/13/2014  08:49:00      -88.141      -16.884       -1.498       41.971       29.374       21.012     1761.544      862.843      441.517        0.556        0.153       89.744       20.044        0.050      337.132        8.900      864.445
04/13/2014  08:50:00      -63.603       16.645       -0.201       46.781       44.911       26.642     2188.423     2017.004      709.796        0.462        0.246       65.745       16.867        0.066      337.225        9.056      864.480
04/13/2014  08:51:00      -21.764       90.103       11.502       65.700       98.934       43.636     4316.485     9787.952     1904.144        1.236        0.800       92.695       44.425        0.230      337.526        9.559      864.505
04/13/2014  08:52:00      -25.103      157.102      -10.216       53.278       75.185       40.124     2838.513     5652.851     1609.898        1.776        0.505      159.095       38.224        0.058      337.428        9.395      864.520
04/13/2014  08:53:00       17.233       88.252       36.025       51.938       62.848       41.004     2697.562     3949.813     1681.303        0.885        0.416       89.919       37.949        0.178      337.854       10.111      864.497
04/13/2014  08:54:00       56.983      209.747      -15.363       61.276      153.424       66.318     3754.787    23538.903     4398.097        3.958        1.585      217.350       86.766        0.159      337.312        9.200      864.499
04/13/2014  08:55:00       52.671      124.025        4.875       94.614       76.872       57.723     8951.818     5909.301     3331.991        1.818        0.910      134.746       51.324        0.145      337.762        9.955      864.518
04/13/2014  08:56:00      327.968      183.896       12.703       88.884       72.596       61.602     7900.386     5270.126     3794.799        7.925        0.848      376.006       34.328        0.008      337.042        8.747      864.552
04/13/2014  08:57:00      167.850      112.454       46.870      121.206       71.069       58.646    14690.835     5050.755     3439.361        3.309        1.159      202.038       51.106        0.064      337.322        9.217      864.551
04/13/2014  08:58:00      165.139      129.390       64.695      102.915       71.103       77.793    10591.403     5055.638     6051.756        3.494        1.085      209.792       69.729        0.110      337.323        9.218      864.555
04/13/2014  08:59:00      160.335       87.542       37.728       62.676       52.986       53.845     3928.318     2807.465     2899.305        2.221        0.482      182.677       27.581        0.023      337.391        9.331      864.562
04/13/2014  09:00:00      111.439       64.414       29.715       57.250       54.237       43.300     3277.611     2941.706     1874.905        1.277        0.405      128.716       21.020        0.027      337.337        9.243      864.560
04/13/2014  09:01:00      105.468       75.959       15.715       59.521       47.433       39.409     3542.800     2249.902     1553.060        1.224        0.367      129.974       21.869        0.028      337.331        9.233      864.568
04/13/2014  09:02:00       79.057       77.365       23.368       99.013       51.678       48.911     9803.574     2670.588     2392.250        1.382        0.743      110.614       34.046        0.095      337.352        9.267      864.590
04/13/2014  09:03:00       32.728       95.065        4.312       85.574       76.321       49.420     7322.948     5824.859     2442.319        1.286        0.780      100.541       45.738        0.207      337.363        9.286      864.614
04/13/2014  09:04:00      -16.726      136.476        3.353       41.555       47.743       35.623     1726.821     2279.422     1268.964        1.209        0.264      137.497       33.049        0.058      337.511        9.534      864.614
04/13/2014  09:05:00      171.713      112.708        1.296       87.052       56.792       51.141     7577.965     3225.309     2615.381        2.780        0.671      205.399       23.119        0.013      337.175        8.968      864.627
04/13/2014  09:06:00       83.679       63.700      -10.487       47.697       52.167       23.083     2274.977     2721.361      532.832        0.835        0.276      105.165       15.826        0.023      336.917        8.541      864.646
04/13/2014  09:07:00       13.444       10.705       20.284       18.244       17.175       19.305      332.828      294.994      372.672        0.085        0.050       17.186       11.519        0.449      337.715        9.877      864.650
04/13/2014  09:08:00        0.661       -4.128       17.961       17.211       14.154       11.647      296.204      200.335      135.643        0.049        0.032        4.181        4.715        1.272      338.007       10.366      864.644
04/13/2014  09:09:00      -10.251       21.029       38.313       21.072       13.672       14.656      444.027      186.934      214.793        0.143        0.042       23.394        5.298        0.051      338.231       10.742      864.625
04/13/2014  09:10:00       58.333       55.339       15.036       47.337       49.884       31.970     2240.818     2488.388     1022.054        0.622        0.288       80.406       27.083        0.113      337.732        9.906      864.619
04/13/2014  09:11:00      115.021       48.861       -3.617       47.004       37.839       29.776     2209.367     1431.766      886.596        1.008        0.226      124.969       20.121        0.026      337.272        9.134      864.618
04/13/2014  09:12:00      129.464       61.906       11.049       58.245       57.147       40.617     3392.525     3265.804     1649.726        1.451        0.415      143.504       28.550        0.040      337.572        9.635      864.603
04/13/2014  09:13:00      203.183      110.650       27.938      112.304       64.348       55.460    12612.256     4140.611     3075.781        3.706        0.991      231.359       26.809        0.013      337.343        9.250      864.588
04/13/2014  09:14:00      162.478      111.314       21.476       70.443       64.162       36.010     4962.242     4116.751     1296.753        2.481        0.519      196.951       28.816        0.021      337.067        8.788      864.589
04/13/2014  09:15:00      146.865       77.803       20.092       68.832       46.574       40.929     4737.824     2169.101     1675.186        1.830        0.429      166.201       37.483        0.051      337.378        9.308      864.578
04/13/2014  09:16:00      100.523       79.579       22.887       67.958       45.423       33.082     4618.267     2063.208     1094.405        1.237        0.389      128.210       17.387        0.018      337.689        9.832      864.601
04/13/2014  09:17:00       68.885      129.566       -5.217       73.157       91.462       47.838     5351.927     8365.257     2288.449        1.878        0.800      146.740       45.090        0.094      337.537        9.578      864.646
04/13/2014  09:18:00       39.662       34.041       -2.541       44.050       29.445       34.445     1940.414      867.014     1186.426        0.337        0.200       52.267       15.536        0.088      337.559        9.614      864.659
04/13/2014  09:19:00        8.854      235.928      -17.671       75.076       94.842       50.083     5636.356     8995.013     2508.334        3.659        0.857      236.094       52.150        0.049      337.517        9.542      864.681
04/13/2014  09:20:00       19.856      222.575      -22.205       48.355      101.341       49.754     2338.173    10270.005     2475.441        3.275        0.754      223.459       54.235        0.059      337.464        9.454      864.706
04/13/2014  09:21:00       61.905       57.595        7.642       34.132       40.833       41.805     1165.008     1667.306     1747.621        0.589        0.229       84.554       33.176        0.154      337.608        9.698      864.712
04/13/2014  09:22:00       83.778       75.562       -7.431       47.818       46.801       43.894     2286.601     2190.340     1926.689        0.959        0.320      112.820       26.161        0.054      337.524        9.556      864.727
04/13/2014  09:23:00       53.957       63.267       37.149       51.076       23.593       23.134     2608.775      556.613      535.167        0.600        0.185       83.151       20.032        0.058      337.557        9.612      864.721
04/13/2014  09:24:00      -56.288       19.886        0.784       50.257       54.172       33.952     2525.785     2934.607     1152.762        0.509        0.331       59.698       29.012        0.236      337.512        9.536      864.733
04/13/2014  09:25:00       -2.873        8.394       15.708       19.076       21.714       22.270      363.886      471.511      495.941        0.083        0.067        8.872       13.878        2.447      338.380       10.992      864.738
04/13/2014  09:26:00       10.688       96.074       10.909       29.167      110.563       37.851      850.707    12224.156     1432.669        1.198        0.725       96.667       55.478        0.329      338.473       11.150      864.745
04/13/2014  09:27:00      -56.916      241.718      -19.492       38.827       65.310       37.661     1507.498     4265.394     1418.381        3.462        0.360      248.328       34.502        0.019      337.527        9.556      864.755
04/13/2014  09:28:00      -39.661      115.093        7.639       52.366       58.029       42.148     2742.207     3367.403     1776.474        1.138        0.394      121.735       40.937        0.113      337.903       10.192      864.760
04/13/2014  09:29:00       15.937       67.960       11.648       51.787       54.514       49.663     2681.909     2971.817     2466.457        0.656        0.406       69.803       48.906        0.491      338.025       10.396      864.766
04/13/2014  09:30:00       76.354       68.336       32.110       74.491       42.779       33.793     5548.844     1830.035     1141.972        1.002        0.426      102.468       29.256        0.082      338.099       10.521      864.756
04/13/2014  09:31:00       71.971       69.166        0.553       63.542       39.164       36.417     4037.649     1533.825     1326.216        0.843        0.345       99.818        8.538        0.007      337.796       10.012      864.750
04/13/2014  09:32:00      104.628       74.644       11.194       60.017       55.188       50.068     3602.008     3045.740     2506.842        1.290        0.458      128.525       23.601        0.034      337.638        9.746      864.745
04/13/2014  09:33:00       81.699       70.966       20.704       66.743       40.447       46.781     4454.562     1635.951     2188.475        1.021        0.414      108.217       25.585        0.056      337.925       10.227      864.722
04/13/2014  09:34:00       64.266       92.699       15.979       67.721       56.737       54.799     4586.139     3219.031     3002.889        1.189        0.540      112.798       39.114        0.120      338.020       10.388      864.696
04/13/2014  09:35:00       24.796      126.024       -8.261       44.247       66.486       36.754     1957.793     4420.377     1350.831        1.215        0.386      128.441       36.820        0.082      337.962       10.289      864.675
04/13/2014  09:36:00       89.104       96.392        7.617       92.903       65.836       40.763     8630.945     4334.419     1661.592        1.596        0.731      131.267       27.419        0.044      338.217       10.717      864.662
04/13/2014  09:37:00      157.741       85.969       16.232       83.355       49.460       48.806     6948.048     2446.278     2382.013        2.215        0.589      179.647       43.489        0.059      337.779        9.983      864.675
04/13/2014  09:38:00       48.486       75.395        9.773       73.995       58.469       43.914     5475.312     3418.679     1928.455        0.947        0.541       89.640       20.710        0.053      338.187       10.669      864.683
04/13/2014  09:39:00      125.535       77.639        1.857       66.797       49.329       38.177     4461.901     2433.395     1457.489        1.507        0.418      147.604       26.302        0.032      337.998       10.349      864.708
04/13/2014  09:40:00      145.044       89.129       58.854       73.507       53.845       55.798     5403.266     2899.328     3113.377        2.193        0.571      170.241       42.021        0.061      338.046       10.429      864.729
04/13/2014  09:41:00       59.800       60.428        3.519       47.172       52.940       41.791     2225.182     2802.667     1746.508        0.701        0.339       85.015       30.810        0.131      338.175       10.648      864.738
04/13/2014  09:42:00       47.134       23.962       61.198       70.474       66.561       51.456     4966.518     4430.339     2647.742        0.929        0.602       52.875       37.267        0.497      338.587       11.340      864.749
04/13/2014  09:43:00      149.195      132.717      133.352      118.680      122.715       84.399    14084.891    15059.040     7123.203        4.695        1.813      199.682       93.482        0.219      337.750        9.931      864.756
04/13/2014  09:44:00      163.524      114.411       77.896      107.133       59.519       62.735    11477.583     3542.518     3935.713        3.242        0.948      199.574       53.010        0.071      337.959       10.284      864.755
04/13/2014  09:45:00      269.951      160.508       41.382       99.878      106.323       81.630     9975.553    11304.589     6663.504        6.414        1.397      314.064       56.012        0.032      337.721        9.884      864.766
04/13/2014  09:46:00      200.923      136.235        4.571       79.667       64.574       58.254     6346.761     4169.760     3393.486        3.643        0.696      242.755       41.355        0.029      338.042       10.422      864.785
04/13/2014  09:47:00       86.301       65.255        7.291       85.671       89.965       33.796     7339.575     8093.640     1142.169        1.416        0.829      108.195       20.676        0.037      337.717        9.877      864.803
04/13/2014  09:48:00       59.681       47.853       37.797       51.026       50.658       38.906     2603.641     2566.183     1513.691        0.698        0.334       76.497       26.312        0.118      338.266       10.800      864.755
04/13/2014  09:49:00      133.333       87.480       13.424       95.003       58.522       50.137     9025.577     3424.831     2513.718        2.028        0.748      159.469       25.243        0.025      338.399       11.024      864.741
04/13/2014  09:50:00       71.596       48.998       12.355      101.618       49.703       46.000    10326.231     2470.340     2115.972        1.129        0.746       86.757       45.988        0.281      338.588       11.342      864.755
04/13/2014  09:51:00       77.076       72.399       66.855       80.547       65.051       73.531     6487.899     4231.645     5406.746        1.589        0.806      105.746       65.003        0.378      338.151       10.608      864.776
04/13/2014  09:52:00      120.491       38.776       26.246       53.320       43.873       46.159     2843.030     1924.847     2130.637        1.180        0.345      126.576       32.502        0.066      337.681        9.820      864.779
04/13/2014  09:53:00       28.273       66.373       88.833       60.880       62.988       37.943     3706.428     3967.473     1439.702        1.110        0.456       72.144       34.910        0.234      338.627       11.407      864.769
04/13/2014  09:54:00       74.509     -113.872       38.989       99.175      176.072       98.490     9835.653    31001.348     9700.309        3.528        2.527      136.082      128.972        0.898      338.260       10.789      864.756
04/13/2014  09:55:00       52.491      108.116      131.686       60.767       57.415       44.598     3692.591     3296.514     1988.967        2.038        0.449      120.184       40.882        0.116      337.867       10.130      864.797
04/13/2014  09:56:00      244.545      134.729       70.920      135.603      100.361       82.986    18388.135    10072.390     6886.713        5.916        1.767      279.203       60.564        0.047      337.743        9.921      864.799
04/13/2014  09:57:00      246.761      108.243       26.809      108.648       79.064       81.976    11804.317     6251.142     6720.090        4.905        1.239      269.458       60.243        0.050      337.631        9.732      864.814
04/13/2014  09:58:00      109.039       93.050       15.576       85.604       73.480       60.949     7328.046     5399.321     3714.755        1.861        0.822      143.345       50.251        0.123      337.865       10.126      864.824
04/13/2014  09:59:00      148.128       96.258        7.930       71.744       52.522       53.491     5147.211     2758.514     2861.334        2.102        0.538      176.656       41.494        0.055      338.402       11.027      864.816
04/13/2014  10:00:00       71.028       81.611      101.000       83.339       77.794       62.209     6945.415     6051.942     3869.963        1.938        0.843      108.191       52.542        0.236      338.284       10.830      864.793
04/13/2014  10:01:00      175.101      162.806       16.300       96.957       85.447       81.963     9400.634     7301.270     6717.868        4.042        1.171      239.094       50.532        0.045      338.236       10.748      864.783
04/13/2014  10:02:00       91.657      101.486       23.189      109.480       95.581       66.591    11985.919     9135.744     4434.296        2.239        1.278      136.749       50.267        0.135      338.660       11.461      864.764
04/13/2014  10:03:00      100.749      174.826        7.066      107.461      110.934       81.119    11547.852    12306.314     6580.325        3.559        1.522      201.778       65.569        0.106      338.108       10.532      864.799
04/13/2014  10:04:00      246.225      124.382       11.949       71.718       58.460       51.623     5143.485     3417.545     2664.912        4.373        0.561      275.858       33.332        0.015      337.824       10.055      864.803
04/13/2014  10:05:00       83.993       93.447        1.732      111.349       67.053       41.804    12398.706     4496.066     1747.547        1.721        0.932      125.647       29.080        0.054      338.003       10.358      864.810
04/13/2014  10:06:00       97.056      182.480       -8.138      106.853      136.294       61.486    11417.647    18575.933     3780.558        3.827        1.689      206.685       63.790        0.095      338.230       10.738      864.852
04/13/2014  10:07:00      132.000      159.961       -8.605      104.467      160.391       68.221    10913.342    25725.120     4654.055        4.218        2.065      207.392       88.861        0.184      338.084       10.493      864.893
04/13/2014  10:08:00      127.945      146.129       -3.408      108.300      109.688       55.439    11728.852    12031.503     3073.495        3.228        1.342      194.225       61.233        0.099      338.122       10.556      864.929
04/13/2014  10:09:00      149.969       92.478       13.282       95.476       65.543       57.612     9115.658     4295.854     3319.109        2.397        0.837      176.190       42.913        0.059      338.120       10.553      864.952
04/13/2014  10:10:00       84.046       72.921       14.290       73.571       57.627       45.086     5412.738     3320.928     2032.781        1.167        0.538      111.271       27.576        0.061      338.344       10.930      864.950
04/13/2014  10:11:00      128.142       95.922       20.826       88.868       60.205       50.859     7897.443     3624.613     2586.644        2.008        0.705      160.067       43.680        0.074      338.151       10.607      864.970
04/13/2014  10:12:00       60.613       48.177       40.421       52.267       51.063       39.237     2731.802     2607.404     1539.512        0.725        0.344       77.427       28.546        0.136      338.107       10.535      864.995
04/13/2014  10:13:00      162.783       83.373       80.775       80.383       55.399       56.728     6461.379     3069.100     3218.122        2.636        0.637      182.892       48.920        0.072      338.073       10.475      864.992
04/13/2014  10:14:00       99.227       92.956       71.975       72.006       64.189       75.006     5184.819     4120.245     5625.905        1.930        0.747      135.966       49.518        0.133      338.238       10.753      865.009
04/13/2014  10:15:00      124.108      138.299      100.119       94.366       79.476       83.022     8904.865     6316.388     6892.671        3.333        1.106      185.821       65.657        0.125      337.979       10.316      865.015
04/13/2014  10:16:00      197.975       90.036       39.589       65.104       78.061       60.530     4238.536     6093.442     3663.912        3.143        0.700      217.487       44.986        0.043      337.773        9.971      865.027
04/13/2014  10:17:00      114.418       80.887       71.499       90.357       56.792       41.352     8164.320     3225.304     1709.997        1.892        0.655      140.121       34.587        0.061      338.010       10.370      865.030
04/13/2014  10:18:00       38.773      -49.876       34.047       53.674       71.262       53.717     2880.892     5078.202     2885.526        0.800        0.542       63.174       38.376        0.369      338.730       11.580      865.014
04/13/2014  10:19:00       40.572       66.690       84.548       60.919       72.730       68.581     3711.150     5289.661     4703.311        1.347        0.685       78.062       63.042        0.652      338.699       11.527      865.027
04/13/2014  10:20:00      175.000      149.886       21.806      108.531       91.692       85.883    11779.018     8407.425     7375.869        4.056        1.378      230.415       44.799        0.038      338.128       10.565      865.041
04/13/2014  10:21:00      157.476      152.609       12.774      103.384       94.936       78.943    10688.291     9012.810     6232.018        3.709        1.297      219.290       60.756        0.077      338.226       10.731      865.023
04/13/2014  10:22:00       69.264      166.272        0.389       76.273       80.778       71.238     5817.576     6525.073     5074.825        2.493        0.871      180.122       56.881        0.100      338.094       10.510      865.052
04/13/2014  10:23:00      155.112      172.747        7.383      122.499       89.486       75.673    15005.997     8007.720     5726.446        4.134        1.437      232.167       61.384        0.070      338.181       10.657      865.045
04/13/2014  10:24:00      102.138       94.295        5.327       64.862       59.838       57.199     4207.060     3580.545     3271.718        1.520        0.553      139.010       38.371        0.076      338.172       10.642      865.060
04/13/2014  10:25:00       99.533       94.345        6.615       60.714       77.698       41.686     3686.179     6036.987     1737.730        1.515        0.573      137.142       30.452        0.049      338.337       10.918      865.047
04/13/2014  10:26:00       96.382       74.709       -1.476       54.783       55.530       35.863     3001.206     3083.542     1286.131        1.112        0.369      121.947       20.595        0.029      338.226       10.734      865.025
04/13/2014  10:27:00       43.398       70.221       18.279       57.681       68.689       43.784     3327.064     4718.123     1917.080        0.855        0.498       82.549       42.544        0.266      338.448       11.106      864.989
04/13/2014  10:28:00       84.512       60.301       -1.720       56.386       48.078       39.231     3179.350     2311.468     1539.098        0.890        0.351      103.819       14.501        0.020      338.174       10.646      864.984
04/13/2014  10:29:00       33.670       58.420        1.017       36.577       41.280       30.589     1337.901     1704.009      935.668        0.426        0.199       67.429       23.344        0.120      338.221       10.726      864.984
04/13/2014  10:30:00       23.916       62.254        6.495       31.267       53.960       30.582      977.619     2911.652      935.274        0.466        0.241       66.690       24.800        0.138      338.082       10.491      864.990
04/13/2014  10:31:00      -40.895      -24.733       -6.376       33.875       37.961       32.081     1147.507     1441.056     1029.163        0.297        0.181       47.793        8.898        0.035      337.929       10.236      864.997
04/13/2014  10:32:00        2.599      -11.331       15.287       55.141       44.944       27.167     3040.516     2019.960      738.051        0.308        0.290       11.625       21.484        3.415      338.422       11.062      864.981
04/13/2014  10:33:00      -12.270      -83.934       -0.395       38.100       42.316       27.315     1451.646     1790.654      746.119        0.559        0.199       84.826       20.724        0.060      338.381       10.993      864.993
04/13/2014  10:34:00       13.871       43.342       81.870       39.852       90.163       48.476     1588.203     8129.358     2349.915        1.042        0.603       45.508       57.209        1.580      338.892       11.853      864.987
04/13/2014  10:35:00       37.404       25.497       72.147       81.277      119.603       69.734     6605.973    14304.815     4862.833        1.651        1.289       45.267       87.837        3.765      338.576       11.320      864.978
04/13/2014  10:36:00      107.098     -133.817        8.030      110.538      173.920       68.693    12218.710    30248.318     4718.663        3.830        2.359      171.397       99.089        0.334      338.644       11.434      864.968
04/13/2014  10:37:00      110.611     -143.760       30.214       92.919      175.391       78.892     8633.994    30761.920     6224.024        3.971        2.281      181.389      108.570        0.358      338.481       11.160      864.985
04/13/2014  10:38:00       84.135       40.382      135.067      116.903      143.987       98.416    13666.251    20732.304     9685.650        3.551        2.204       93.324      104.831        1.262      338.916       11.891      865.005
04/13/2014  10:39:00       80.196      -32.844       58.555       86.340      167.364       83.240     7454.563    28010.751     6928.919        2.666        2.120       86.661      112.680        1.691      338.386       11.002      865.072
04/13/2014  10:40:00       36.936      -15.503       71.665       69.112      128.147       71.941     4776.471    16421.544     5175.556        1.655        1.319       40.058       78.970        3.886      338.869       11.813      865.081
04/13/2014  10:41:00       98.957      -54.839       24.522       71.509      148.532       66.965     5113.492    22061.609     4484.376        2.252        1.583      113.136       59.443        0.276      338.183       10.660      865.075
04/13/2014  10:42:00       39.717      -44.782       20.542       60.392       75.738       45.370     3647.239     5736.200     2058.441        0.772        0.572       59.857       35.498        0.352      338.602       11.366      865.033
04/13/2014  10:43:00      -15.270      -58.598        3.735       78.612      116.418       37.495     6179.865    13553.185     1405.904        1.241        1.057       60.555       17.878        0.087      338.577       11.323      865.005
04/13/2014  10:44:00       97.224     -223.404      -18.035      136.510      122.488       62.864    18634.916    15003.289     3951.916        4.863        1.880      243.643       47.293        0.038      338.513       11.212      864.947
04/13/2014  10:45:00       25.520       35.528      149.187       89.523      161.802       99.412     8014.282    26179.785     9882.808        3.411        2.204       43.744      108.552        6.158      339.177       12.330      864.929
04/13/2014  10:46:00      218.026      170.377       51.597      131.024      115.467      111.650    17167.312    13332.691    12465.750        6.109        2.148      276.701       89.323        0.104      338.729       11.575      864.956
04/13/2014  10:47:00      129.860       84.049       13.572       86.246       65.842       54.010     7438.433     4335.111     2917.119        1.940        0.735      154.687       34.826        0.051      338.811       11.715      865.044
04/13/2014  10:48:00       64.712      169.289       -6.240       77.979      108.871       66.618     6080.758    11852.914     4437.992        2.762        1.119      181.235       70.191        0.150      338.596       11.354      865.073
04/13/2014  10:49:00       71.984      201.017       -1.655      107.707      115.979       73.464    11600.884    13451.101     5396.988        3.801        1.522      213.517       54.458        0.065      338.400       11.023      865.074
04/13/2014  10:50:00      263.504      177.560       24.313      104.064       85.482       68.809    10829.285     7307.202     4734.685        6.221        1.144      317.745       38.573        0.015      338.157       10.615      865.083
04/13/2014  10:51:00       61.984      165.169      -10.247       66.756       70.539       40.872     4456.335     4975.814     1670.529        2.116        0.555      176.417       39.485        0.050      338.143       10.593      865.088
04/13/2014  10:52:00      -61.176      152.397      -21.466       45.003       56.425       32.068     2025.226     3183.738     1028.373        1.683        0.312      164.218       29.981        0.033      338.259       10.789      865.053
04/13/2014  10:53:00      -68.193      136.369      -12.559       51.359       87.851       37.141     2637.773     7717.780     1379.427        1.757        0.587      152.469       41.514        0.074      338.337       10.919      865.038
04/13/2014  10:54:00       18.041      263.802      -23.997       65.053       99.607       44.162     4231.901     9921.468     1950.280        4.330        0.805      264.418       49.647        0.035      338.373       10.978      865.037
04/13/2014  10:55:00      -18.408       69.997       17.725       30.370       64.734       36.785      922.341     4190.428     1353.157        0.601        0.323       72.377       37.956        0.275      339.010       12.053      865.030
04/13/2014  10:56:00       30.319       89.552        9.354       55.455       53.220       36.099     3075.302     2832.390     1303.150        0.812        0.361       94.546       35.989        0.145      339.260       12.473      865.025
04/13/2014  10:57:00       77.153       71.755       54.623      107.667       68.122       50.531    11592.253     4640.650     2553.333        1.643        0.939      105.362       33.530        0.101      338.957       11.961      865.047
04/13/2014  10:58:00      155.449       58.870       55.460       84.446       78.756       69.674     7131.076     6202.430     4854.496        2.444        0.909      166.223       48.639        0.086      338.557       11.287      865.021
04/13/2014  10:59:00      142.714      183.929      173.691      128.881      129.206      100.136    16610.423    16694.085    10027.222        6.384        2.167      232.803       87.751        0.142      338.670       11.476      864.981
04/13/2014  11:00:00      192.325      169.549       94.941      130.739       96.424      108.092    17092.790     9297.665    11683.967        5.640        1.904      256.389       79.278        0.096      338.337       10.917      864.965
04/13/2014  11:01:00      166.374      143.916      100.105      111.508       83.279       84.760    12434.133     6935.424     7184.279        4.248        1.328      219.982       75.055        0.116      338.663       11.465      864.957
04/13/2014  11:02:00       99.787      109.208      105.016      138.832       89.508       89.120    19274.262     8011.722     7942.335        3.406        1.761      147.931       99.635        0.454      338.687       11.506      864.966
04/13/2014  11:03:00      131.348       60.450       80.084      100.584       95.020       77.660    10117.107     9028.720     6031.056        2.624        1.259      144.591       71.795        0.247      338.509       11.208      864.990
04/13/2014  11:04:00      128.805      144.467      123.796       97.978       70.365       68.077     9599.670     4951.283     4634.426        3.598        0.959      193.550       56.097        0.084      338.431       11.074      865.006
04/13/2014  11:05:00       60.173       48.155       78.135       74.138       80.887       56.128     5496.496     6542.747     3150.342        1.361        0.759       77.070       46.721        0.367      338.757       11.626      865.027
04/13/2014  11:06:00      139.516      130.216       93.647       56.574       35.944       47.499     3200.668     1291.992     2256.201        2.597        0.337      190.842       31.140        0.027      338.325       10.897      865.024
04/13/2014  11:07:00       97.255       38.955       41.976       56.735       49.378       39.067     3218.837     2438.162     1526.245        0.996        0.359      104.767       31.513        0.090      338.346       10.934      865.021
04/13/2014  11:08:00      166.779       75.017       38.710       81.059       75.915       57.648     6570.571     5763.110     3323.324        2.530        0.783      182.874       46.983        0.066      338.152       10.609      865.004
04/13/2014  11:09:00       43.537       66.142       18.144       44.873       36.328       33.762     2013.583     1319.738     1139.866        0.554        0.224       79.185       24.316        0.094      338.520       11.226      864.971
04/13/2014  11:10:00       70.203       85.560       61.396       83.348       53.312       56.653     6946.945     2842.143     3209.546        1.451        0.650      110.676       47.655        0.185      339.091       12.187      864.967
04/13/2014  11:11:00       70.511        7.706       -4.747      128.101       97.700       49.247    16409.906     9545.211     2425.237        1.671        1.419       70.931       43.915        0.383      339.200       12.370      864.979
04/13/2014  11:12:00       76.456      104.711      120.930       90.259       96.381       79.123     8146.725     9289.273     6260.463        2.756        1.185      129.654       70.928        0.299      339.093       12.189      865.004
04/13/2014  11:13:00      112.744     -161.937       -3.602       55.430       83.626       50.309     3072.485     6993.380     2531.026        2.577        0.630      197.319       51.341        0.068      338.410       11.040      865.004
04/13/2014  11:14:00       41.064      -22.956       34.020       52.980       60.721       36.643     2806.922     3687.065     1342.741        0.560        0.392       47.045       42.800        0.828      339.141       12.272      864.997
04/13/2014  11:15:00       66.501      -84.256       33.975       77.431      127.818       45.513     5995.504    16337.370     2071.389        1.854        1.220      107.338       55.247        0.265      338.731       11.579      864.976
04/13/2014  11:16:00       65.846       15.642       56.195       54.812      122.928       48.946     3004.313    15111.310     2395.701        1.412        1.026       67.679       63.898        0.891      338.745       11.605      864.970
04/13/2014  11:17:00       60.251       47.451        3.079       24.973       24.032       25.074      623.640      577.514      628.713        0.386        0.091       76.693       10.933        0.020      338.514       11.217      864.969
04/13/2014  11:18:00       54.350       74.108        2.071       66.827       55.336       39.998     4465.902     3062.049     1599.845        0.879        0.456       91.902       44.364        0.233      339.040       12.102      864.947
04/13/2014  11:19:00      155.294      150.502       11.936      114.352       81.123       78.395    13076.337     6580.902     6145.786        3.635        1.290      216.257       63.357        0.086      338.912       11.883      864.938
04/13/2014  11:20:00      118.447      142.650        9.482       92.538       82.301       69.306     8563.309     6773.436     4803.357        2.730        1.007      185.415       56.034        0.091      338.797       11.691      864.946
04/13/2014  11:21:00      150.829      114.813       65.371       97.186       70.792       62.028     9445.137     5011.577     3847.516        2.925        0.915      189.556       46.542        0.060      338.970       11.982      864.935
04/13/2014  11:22:00      102.168      110.619       23.341       86.989       65.079       53.150     7567.170     4235.323     2824.928        1.892        0.731      150.582       41.144        0.075      338.883       11.837      864.939
04/13/2014  11:23:00      118.124      120.722       -7.787      106.337      110.037       69.174    11307.651    12108.227     4784.973        2.839        1.410      168.900       65.740        0.151      338.918       11.895      864.941
04/13/2014  11:24:00      113.845       91.606       -1.282      132.058       86.145       65.378    17439.222     7421.014     4274.343        2.524        1.457      146.125       38.844        0.071      339.177       12.329      864.945
04/13/2014  11:25:00      275.877      175.263       35.905      122.042       85.197       79.244    14894.343     7258.491     6279.547        6.827        1.422      326.841       41.746        0.016      338.849       11.777      864.948
04/13/2014  11:26:00      245.931      188.689       29.332      106.369       97.577       85.223    11314.317     9521.190     7262.885        6.252        1.405      309.977       49.373        0.025      338.753       11.615      864.955
04/13/2014  11:27:00      222.050      165.553       37.266      126.167       96.119       78.729    15918.080     9238.785     6198.183        5.472        1.568      276.973       37.364        0.018      338.645       11.434      864.942
04/13/2014  11:28:00      203.183      182.701       85.929      139.064       91.648      104.611    19338.673     8399.277    10943.426        6.036        1.934      273.245       69.839        0.065      339.060       12.132      864.953
04/13/2014  11:29:00      259.581      142.153        2.583      110.354       77.946       74.658    12178.030     6075.524     5573.849        5.571        1.191      295.956       38.726        0.017      338.807       11.705      864.992
04/13/2014  11:30:00      105.946      105.024       85.490       86.769       88.374       61.107     7528.870     7809.986     3734.058        2.431        0.954      149.179       48.132        0.104      338.957       11.961      864.988
04/13/2014  11:31:00       36.882      -45.773       49.906       51.409      110.167       58.629     2642.927    12136.719     3437.309        1.208        0.911       58.783       67.161        1.305      338.854       11.789      864.978
04/13/2014  11:32:00       12.585       63.050       93.313       55.505       72.614       41.168     3080.813     5272.838     1694.844        1.144        0.502       64.294       41.298        0.413      339.391       12.693      864.956
04/13/2014  11:33:00        1.888       28.958       65.394       28.370       40.590       24.060      804.859     1647.532      578.893        0.407        0.152       29.020       14.675        0.256      339.835       13.440      864.973
04/13/2014  11:34:00       -5.386       34.390       10.725       36.524       37.355       24.270     1333.975     1395.384      589.047        0.232        0.166       34.809       19.018        0.298      339.243       12.443      864.973
04/13/2014  11:35:00       76.842      113.150       -3.792       37.566       44.925       42.657     1411.210     2018.245     1819.661        1.198        0.262      136.776       32.602        0.057      338.786       11.676      864.946
04/13/2014  11:36:00       56.234      101.367       10.793       63.300       59.465       35.641     4006.871     3536.053     1270.245        1.118        0.441      115.920       29.398        0.064      338.559       11.292      864.951
04/13/2014  11:37:00      173.084      130.765       11.137      172.611       93.539       51.379    29794.668     8749.627     2639.814        4.417        2.059      216.928       30.391        0.020      338.972       11.985      864.968
04/13/2014  11:38:00      186.831      132.754       23.066      138.051       92.173       72.124    19057.946     8495.870     5201.799        4.290        1.638      229.193       14.664        0.004      338.874       11.820      864.977
04/13/2014  11:39:00      178.780      196.461       -8.939      136.343      102.720       71.835    18589.523    10551.330     5160.217        5.246        1.715      265.630       62.209        0.055      339.104       12.206      864.964
04/13/2014  11:40:00      231.049      177.972       29.343      128.359       90.927       84.654    16475.946     8267.751     7166.331        5.891        1.596      291.646       46.141        0.025      338.966       11.973      864.972
04/13/2014  11:41:00      122.656      113.118       13.330       95.473       86.397       74.389     9115.075     7464.500     5533.781        2.506        1.106      166.853       50.752        0.093      338.778       11.659      865.001
04/13/2014  11:42:00      286.440      190.201       10.159      134.732       94.372       71.385    18152.767     8905.997     5095.869        7.523        1.608      343.837       40.228        0.014      338.686       11.503      864.990
04/13/2014  11:43:00      144.148      212.081       -8.711      139.621      133.074       78.565    19493.904    17708.816     6172.411        5.460        2.169      256.432       84.535        0.109      338.885       11.838      864.980
04/13/2014  11:44:00       11.421      213.584      -14.191       66.804      124.429       53.989     4462.821    15482.621     2914.772        3.440        1.143      213.889       64.404        0.091      338.906       11.873      864.987
04/13/2014  11:45:00      145.083      198.426       17.783      182.389       85.567       77.397    33265.877     7321.762     5990.280        5.365        2.329      245.809       74.541        0.092      338.917       11.893      865.003
04/13/2014  11:46:00      204.074      116.675       26.483      105.706       64.798       55.594    11173.786     4198.735     3090.713        3.721        0.923      235.073       53.978        0.053      338.710       11.545      865.004
04/13/2014  11:47:00      130.755      127.895       75.709      113.869       96.230       75.617    12966.092     9260.131     5717.964        3.356        1.397      182.904       66.412        0.132      339.197       12.363      864.985
04/13/2014  11:48:00       93.833       69.950       93.155      124.264      105.547       87.084    15441.545    11140.204     7583.698        2.826        1.708      117.036       67.562        0.333      339.260       12.471      864.997
04/13/2014  11:49:00       62.449       55.855       56.644       80.160       75.387       55.620     6425.634     5683.141     3093.617        1.271        0.760       83.783       26.128        0.097      339.218       12.402      865.014
04/13/2014  11:50:00       94.235       96.575       25.600      110.814       82.568       53.963    12279.708     6817.444     2911.983        2.043        1.100      134.933       34.140        0.064      339.667       13.157      865.014
04/13/2014  11:51:00      218.745      101.582       58.831      102.942       80.709       61.452    10597.024     6513.915     3776.377        4.125        1.044      241.181       38.321        0.025      339.147       12.278      865.012
04/13/2014  11:52:00       99.944       29.675       13.316       76.851       90.332       63.446     5906.005     8159.939     4025.370        1.457        0.905      104.256       22.734        0.048      339.337       12.601      864.997
04/13/2014  11:53:00        4.477       51.763      113.045       41.978       85.161       36.199     1762.149     7252.400     1310.390        1.290        0.516       51.956       42.259        0.662      339.736       13.273      864.999
04/13/2014  11:54:00      -14.971     -122.142        8.096       66.028       74.402       60.245     4359.758     5535.702     3629.464        1.436        0.676      123.056       51.011        0.172      339.368       12.652      865.004
04/13/2014  11:55:00       -3.505      -53.959       -5.531       69.373       60.314       43.784     4812.612     3637.754     1917.061        0.666        0.518       54.073       38.210        0.499      339.640       13.111      864.965
04/13/2014  11:56:00       31.117      -49.287       17.536       53.682       84.898       43.896     2881.765     7207.714     1926.840        0.786        0.601       58.288       39.765        0.465      339.638       13.108      864.934
04/13/2014  11:57:00       41.366      -22.911       64.128       64.021      108.952       58.503     4098.677    11870.529     3422.576        1.287        0.970       47.287       65.090        1.895      339.467       12.819      864.904
04/13/2014  11:58:00       70.712       73.616       94.671       69.553       62.753       58.472     4837.603     3937.891     3419.012        1.579        0.610      102.076       56.205        0.303      339.039       12.099      864.904
04/13/2014  11:59:00       56.292       89.467       83.690       65.948       53.204       40.540     4349.192     2830.688     1643.503        1.350        0.441      105.703       35.008        0.110      339.446       12.784      864.905
04/13/2014  12:00:00       81.665       47.453       33.789       60.556       73.748       38.983     3667.009     5438.783     1519.661        1.034        0.531       94.451       28.012        0.088      339.321       12.575      864.894
04/13/2014  12:01:00       -0.514        8.854       49.690       42.313       68.366       51.295     1790.424     4673.890     2631.196        0.582        0.455        8.869       43.049       23.561      340.178       14.020      864.882
04/13/2014  12:02:00       13.920       71.902       93.540       48.466       55.534       39.784     2348.938     3084.054     1582.790        1.056        0.351       73.237       29.307        0.160      340.120       13.921      864.886
04/13/2014  12:03:00       84.496       50.244       29.278       90.130       63.180       45.335     8123.350     3991.685     2055.291        1.234        0.709       98.306       23.546        0.057      339.689       13.192      864.878
04/13/2014  12:04:00       97.933       32.096       24.829       65.421       66.569       49.830     4279.908     4431.459     2483.022        1.121        0.560      103.058       35.195        0.117      339.237       12.433      864.858
04/13/2014  12:05:00      195.532      168.794        8.903       99.052       83.449       63.579     9811.212     6963.817     4042.347        4.381        1.041      258.311       35.268        0.019      338.993       12.020      864.854
04/13/2014  12:06:00      109.572      168.448      -14.211      113.943      101.777       59.232    12982.992    10358.579     3508.462        3.371        1.343      200.949       54.819        0.074      338.964       11.970      864.845
04/13/2014  12:07:00      112.396      177.055       11.304      104.292      121.129       94.150    10876.849    14672.219     8864.158        3.925        1.721      209.717       81.685        0.152      339.078       12.162      864.836
04/13/2014  12:08:00       52.974      237.307      -15.452       93.859      114.031       66.344     8809.599    13003.163     4401.566        4.278        1.311      243.147       65.320        0.072      339.170       12.317      864.823
04/13/2014  12:09:00      237.236      173.990       54.157      134.194       92.458       70.077    18008.072     8548.490     4910.746        6.047        1.573      294.200       45.304        0.024      339.156       12.295      864.832
04/13/2014  12:10:00       59.281       43.069       72.732       91.464       99.358       61.847     8365.717     9872.006     3825.065        1.636        1.103       73.275       57.764        0.621      339.549       12.959      864.838
04/13/2014  12:11:00       52.657      -22.352       53.096       61.614       82.610       73.325     3796.313     6824.473     5376.581        1.104        0.800       57.205       57.465        1.009      339.731       13.266      864.841
04/13/2014  12:12:00      152.075      133.013       64.764      102.035       88.464       86.739    10411.115     7825.926     7523.572        3.538        1.288      202.038       40.758        0.041      339.405       12.713      864.843
04/13/2014  12:13:00       83.942       42.313       20.363       98.004       56.388       35.950     9604.844     3179.576     1292.409        1.166        0.704       94.003       30.280        0.104      340.020       13.752      864.853
04/13/2014  12:14:00      108.126       63.045       51.977      160.333      109.541       89.687    25706.783    11999.130     8043.769        3.205        2.287      125.163       76.998        0.378      339.929       13.597      864.807
04/13/2014  12:15:00      208.319      188.690      149.153      153.941      113.168      131.613    23697.888    12807.024    17322.080        7.753        2.691      281.071      118.798        0.179      339.395       12.696      864.798
04/13/2014  12:16:00      121.257      114.375      111.903      114.379       92.985       89.683    13082.638     8646.139     8043.068        3.503        1.489      166.688       84.149        0.255      339.701       13.213      864.806
04/13/2014  12:17:00      189.750      125.508      127.242      140.425       86.458       74.528    19719.290     7474.965     5554.358        5.034        1.637      227.502       77.923        0.117      339.183       12.340      864.806
04/13/2014  12:18:00      195.911      125.740       92.104      138.815      101.381       64.491    19269.660    10278.017     4159.100        4.818        1.685      232.791       53.506        0.053      339.121       12.236      864.804
04/13/2014  12:19:00      113.382       72.012       34.378      110.998       64.016       53.971    12320.543     4098.070     2912.889        1.927        0.967      134.318       37.240        0.077      339.138       12.266      864.810
04/13/2014  12:20:00      148.289       83.371       50.818       99.501       63.084       65.604     9900.378     3979.610     4303.902        2.485        0.909      170.119       52.403        0.095      339.322       12.574      864.767
04/13/2014  12:21:00       36.489       33.099       64.248      115.421       84.763       68.537    13321.963     7184.748     4697.388        1.587        1.260       49.264       51.716        1.102      340.007       13.731      864.761
04/13/2014  12:22:00      123.211       40.494      107.848      113.403      179.028      116.633    12860.130    32050.962    13603.241        4.347        2.926      129.694      133.973        1.067      339.412       12.725      864.769
04/13/2014  12:23:00      104.230       17.672       21.175       73.502       64.653       66.352     5402.534     4180.024     4402.611        1.280        0.699      105.718       58.426        0.305      339.082       12.171      864.777
04/13/2014  12:24:00       20.338       66.117       -1.835       59.505       38.962       35.915     3540.838     1518.047     1289.914        0.557        0.317       69.175       30.376        0.193      339.133       12.259      864.774
04/13/2014  12:25:00      170.499       52.828       27.992      103.105       67.838       44.836    10630.562     4602.043     2010.246        2.494        0.862      178.496       22.146        0.015      339.227       12.413      864.785
04/13/2014  12:26:00      134.907       92.625       55.281      113.521       92.139       94.393    12887.106     8489.643     8909.986        3.005        1.514      163.644       79.023        0.233      339.519       12.904      864.776
04/13/2014  12:27:00      118.576       97.707       59.852       72.235       69.966       50.044     5217.875     4895.274     2504.441        1.990        0.631      153.645       24.727        0.026      339.392       12.692      864.778
04/13/2014  12:28:00       74.095       89.031       95.151       98.212       79.977       64.265     9645.577     6396.305     4130.004        2.132        1.009      115.830       66.315        0.328      339.912       13.569      864.775
04/13/2014  12:29:00      183.355      118.109       15.651       91.587       49.924       71.618     8388.259     2492.428     5129.207        3.191        0.800      218.103       47.835        0.048      339.286       12.512      864.790
04/13/2014  12:30:00       57.587      124.728        1.414       47.098       85.820       41.928     2218.185     7365.150     1757.980        1.511        0.567      137.380       49.287        0.129      339.042       12.104      864.780
04/13/2014  12:31:00       29.917       75.628       16.777       44.825       55.029       41.631     2009.300     3028.199     1733.150        0.683        0.339       81.330       33.039        0.165      339.421       12.743      864.771
04/13/2014  12:32:00       -6.693      102.148       -4.727       32.421       41.390       31.967     1051.153     1713.143     1021.917        0.714        0.189      102.367       26.910        0.069      339.320       12.574      864.759
04/13/2014  12:33:00       39.217      174.567       -6.543       93.233       64.921       52.608     8692.339     4214.786     2767.553        2.386        0.784      178.918       54.694        0.093      339.279       12.503      864.731
04/13/2014  12:34:00      242.847      134.843       53.938      128.235       96.179       95.331    16444.342     9250.312     9088.000        5.742        1.739      277.772       59.243        0.045      339.403       12.709      864.692
04/13/2014  12:35:00       48.930       17.762       21.699       73.308       97.589       57.475     5374.002     9523.528     3303.378        1.069        0.910       52.054       42.937        0.680      339.703       13.217      864.710
04/13/2014  12:36:00       41.142       16.075       57.058       50.531       46.422       31.620     2553.349     2154.999      999.801        0.546        0.285       44.171       18.492        0.175      339.969       13.667      864.692
04/13/2014  12:37:00      114.430      118.876       20.392       62.066       76.223       59.206     3852.226     5809.988     3505.375        2.040        0.658      165.002       46.611        0.080      339.711       13.228      864.684
04/13/2014  12:38:00       -3.378      212.036      -25.756       35.330       48.902       29.565     1248.232     2391.377      874.085        2.507        0.226      212.063       28.060        0.018      338.969       11.979      864.708
04/13/2014  12:39:00      -22.101      106.644        8.327       59.418       61.559       45.364     3530.515     3789.514     2057.903        1.065        0.469      108.910       32.648        0.090      339.537       12.938      864.696
04/13/2014  12:40:00      -81.061       79.601      -16.804       45.093       35.873       30.179     2033.337     1286.902      910.788        0.871        0.212      113.610       29.519        0.068      339.513       12.897      864.665
04/13/2014  12:41:00      -72.793       11.426       -7.737       27.981       26.705       27.260      782.913      713.164      743.120        0.386        0.112       73.684       11.470        0.024      339.332       12.593      864.652
04/13/2014  12:42:00       38.865       74.220       -8.647       57.964       34.091       31.984     3359.879     1162.185     1023.007        0.632        0.277       83.780       20.284        0.059      339.829       13.431      864.646
04/13/2014  12:43:00       52.872       57.109        2.402       58.547       61.111       43.807     3427.750     3734.502     1919.086        0.757        0.454       77.826       42.987        0.305      339.559       12.976      864.644
04/13/2014  12:44:00       54.798       13.509       53.604       55.158       84.015       52.012     3042.431     7058.473     2705.202        0.943        0.640       56.438       46.005        0.664      339.810       13.398      864.629
04/13/2014  12:45:00       90.122      124.815       -0.300       96.376       76.081       67.036     9288.362     5788.369     4493.759        2.163        0.979      153.951       47.520        0.095      339.700       13.212      864.633
04/13/2014  12:46:00       14.762       45.263       14.165       49.845       43.380       35.967     2484.532     1881.811     1293.616        0.406        0.283       47.609       21.911        0.212      339.660       13.145      864.634
04/13/2014  12:47:00        2.136       94.596      156.992       81.108       81.870       66.293     6578.437     6702.693     4394.760        2.563        0.884       94.620       55.924        0.349      339.838       13.444      864.620
04/13/2014  12:48:00        0.166       -6.908        6.375       35.879       49.469       42.181     1287.317     2447.142     1779.274        0.280        0.276        6.910       36.893       28.508      339.342       12.609      864.656
04/13/2014  12:49:00      -75.912       -1.217      -22.760       30.073       31.820       22.171      904.380     1012.525      491.546        0.434        0.120       75.922       12.203        0.026      339.050       12.118      864.629
04/13/2014  12:50:00     -118.169      -17.936       -0.084       65.693       59.402       38.718     4315.550     3528.584     1499.113        1.181        0.467      119.522       30.021        0.063      339.837       13.443      864.605
04/13/2014  12:51:00     -126.803     -113.660      -19.182      119.143       85.494       50.641    14195.011     7309.180     2564.537        2.671        1.203      170.287       47.838        0.079      339.462       12.809      864.567
04/13/2014  12:52:00     -142.506     -133.469       -2.350       92.588       63.825       39.618     8572.513     4073.577     1569.550        2.617        0.711      195.249       43.162        0.049      339.378       12.667      864.568
04/13/2014  12:53:00     -137.624     -115.667       -6.585       64.584       50.863       26.834     4171.143     2587.075      720.063        1.992        0.374      179.776       31.189        0.030      339.285       12.512      864.555
04/13/2014  12:54:00     -159.368     -134.199       -7.166       88.707       69.253       50.047     7868.918     4796.026     2504.705        2.931        0.758      208.345       46.520        0.050      339.552       12.961      864.529
04/13/2014  12:55:00     -192.947     -150.164      -17.865       78.836       67.034       36.754     6215.130     4493.617     1350.836        3.608        0.603      244.495       32.768        0.018      339.341       12.603      864.504
04/13/2014  12:56:00     -159.507     -101.817      -23.460       46.571       51.433       28.310     2168.826     2645.381      801.454        2.099        0.281      189.233       21.743        0.013      339.340       12.606      864.488
04/13/2014  12:57:00      -89.650       -1.074      -10.335       68.006       32.900       25.087     4624.851     1082.381      629.349        0.724        0.317       89.656       29.201        0.106      339.671       13.166      864.485
04/13/2014  12:58:00      -17.117      -54.434       19.004       42.707       53.417       36.775     1823.879     2853.413     1352.382        0.482        0.301       57.062       34.224        0.360      340.236       14.118      864.481
04/13/2014  12:59:00      -18.666      -51.154       12.642       58.596       46.524       40.936     3433.484     2164.491     1675.746        0.520        0.364       54.453       29.255        0.289      340.294       14.215      864.493
04/13/2014  13:00:00     -105.809      -51.628       -5.584       53.252       44.149       33.056     2835.748     1949.109     1092.694        0.988        0.294      117.733       28.173        0.057      339.903       13.555      864.489
04/13/2014  13:01:00     -113.381       -3.507       -4.535       84.687       55.282       36.455     7171.893     3056.143     1328.954        1.222        0.578      113.435       32.162        0.080      340.046       13.796      864.490
04/13/2014  13:02:00     -137.612        2.724        1.253       91.569       57.768       37.790     8384.882     3337.175     1428.118        1.605        0.658      137.639       31.224        0.051      340.054       13.810      864.499
04/13/2014  13:03:00     -125.248      -28.251      -17.653       47.227       48.186       25.654     2230.376     2321.893      658.120        1.100        0.261      128.395       25.187        0.038      339.466       12.820      864.498
04/13/2014  13:04:00      -13.908      -17.859       15.191       52.545       64.540       32.553     2761.017     4165.451     1059.691        0.436        0.399       22.636       33.121        2.141      340.284       14.199      864.489
04/13/2014  13:05:00      -13.993       -3.412       12.364       33.423       31.017       34.335     1117.115      962.084     1178.903        0.181        0.163       14.403       24.948        3.000      340.511       14.582      864.475
04/13/2014  13:06:00       48.196     -104.028       28.284       94.264       89.373       67.227     8885.710     7987.574     4519.529        1.766        1.070      114.650       57.792        0.254      340.352       14.312      864.472
04/13/2014  13:07:00       56.219       96.471      116.457       62.634      109.975       81.187     3923.022    12094.597     6591.376        2.431        1.130      111.657       82.299        0.543      339.771       13.332      864.445
04/13/2014  13:08:00        1.271       24.793       51.844       33.798       37.709       27.670     1142.272     1422.003      765.630        0.332        0.166       24.826       25.526        1.057      340.613       14.754      864.443
04/13/2014  13:09:00       86.304      -68.948       20.602       76.078      119.317       56.853     5787.920    14236.590     3232.277        1.794        1.163      110.463       59.407        0.289      340.241       14.125      864.420
04/13/2014  13:10:00      149.403      -38.897       30.217       71.248       74.732       41.670     5076.338     5584.869     1736.382        1.857        0.620      154.383       48.840        0.100      339.868       13.495      864.432
04/13/2014  13:11:00      133.708      117.730      116.516      112.396       98.792       86.676    12632.885     9759.829     7512.681        3.760        1.495      178.153       65.867        0.137      339.894       13.538      864.399
04/13/2014  13:12:00      120.824       93.354       61.831      101.439       74.037       66.487    10289.932     5481.545     4420.530        2.366        1.010      152.688       53.003        0.121      340.053       13.806      864.411
04/13/2014  13:13:00      112.449       60.700       25.305       84.088       53.264       55.104     7070.771     2837.055     3036.441        1.495        0.647      127.786       20.221        0.025      340.224       14.096      864.406
04/13/2014  13:14:00       84.561       76.953      105.525       82.059       84.841       60.293     6733.747     7197.995     3635.220        2.088        0.878      114.335       54.350        0.226      340.398       14.389      864.395
04/13/2014  13:15:00       70.895       98.554      102.578       65.118       68.877       62.615     4240.339     4744.064     3920.600        1.908        0.645      121.404       56.541        0.217      339.883       13.520      864.389
04/13/2014  13:16:00       88.132       68.816       43.037       46.790       52.931       45.239     2189.285     2801.691     2046.525        1.069        0.352      111.816       33.011        0.087      339.557       12.971      864.390
04/13/2014  13:17:00       86.781       70.812       45.614       52.622       36.831       39.179     2769.070     1356.488     1534.974        1.014        0.283      112.005       24.342        0.047      339.855       13.474      864.371
04/13/2014  13:18:00       78.004       64.355       25.949       43.006       38.794       42.828     1849.535     1504.950     1834.198        0.804        0.259      101.125        9.300        0.008      340.225       14.099      864.341
04/13/2014  13:19:00       30.121      -36.640       25.704       46.496       61.556       45.786     2161.851     3789.158     2096.395        0.548        0.402       47.431       41.913        0.781      340.405       14.403      864.339
04/13/2014  13:20:00        9.068      -16.139       19.952       42.475       57.430       37.151     1804.142     3298.250     1380.203        0.361        0.324       18.512       34.514        3.476      340.528       14.612      864.331
04/13/2014  13:21:00      -40.609       77.016        3.041       56.266       59.044       38.395     3165.834     3486.140     1474.155        0.786        0.406       87.066       35.108        0.163      340.457       14.491      864.303
04/13/2014  13:22:00      -31.327       53.538        4.050       51.311       91.381       39.156     2632.809     8350.550     1533.157        0.819        0.626       62.030       31.579        0.259      340.740       14.969      864.296
04/13/2014  13:23:00      -25.741      -53.158       16.970       86.435      105.431       69.331     7471.049    11115.762     4806.845        1.358        1.170       59.063       38.541        0.426      340.697       14.896      864.271
04/13/2014  13:24:00       20.637       57.889       95.281       38.466       62.846       45.816     1479.648     3949.663     2099.150        1.019        0.376       61.457       40.109        0.426      340.822       15.109      864.273
04/13/2014  13:25:00      125.956      112.160      103.733      122.204      102.956       72.522    14933.836    10599.985     5259.394        3.499        1.540      168.656       63.706        0.143      340.542       14.633      864.285
04/13/2014  13:26:00       93.632      151.843       -8.431       80.273      114.814       62.344     6443.709    13182.359     3886.792        2.770        1.176      178.391       61.363        0.118      340.083       13.857      864.311
04/13/2014  13:27:00      104.531      232.125      -10.154      101.429      121.573       80.870    10287.942    14779.928     6539.998        4.825        1.580      254.576       69.052        0.074      340.147       13.964      864.322
04/13/2014  13:28:00      215.720      107.898       24.396      104.450       73.220       61.315    10909.811     5361.168     3759.549        3.940        1.002      241.200       43.851        0.033      340.088       13.863      864.325
04/13/2014  13:29:00      143.518       96.804       -1.087       70.878       52.540       43.892     5023.722     2760.462     1926.534        1.984        0.486      173.114       20.955        0.015      339.851       13.466      864.317
04/13/2014  13:30:00       -0.318      127.807       -8.192       52.449       65.867       37.046     2750.917     4338.469     1372.385        1.243        0.423      127.808       36.811        0.083      340.372       14.347      864.318
04/13/2014  13:31:00      -25.338      170.088      -15.141       38.497       60.657       31.665     1482.039     3679.224     1002.654        1.798        0.308      171.965       31.979        0.035      339.895       13.542      864.296
04/13/2014  13:32:00      -16.584      129.714      -14.752       31.229       59.272       36.911      975.223     3513.123     1362.413        1.158        0.293      130.770       36.271        0.077      340.129       13.937      864.263
04/13/2014  13:33:00      -16.602      176.409      -23.955       31.839       58.014       26.215     1013.737     3365.645      687.222        1.852        0.253      177.188       13.000        0.005      339.627       13.089      864.261
04/13/2014  13:34:00       -2.906       14.846       31.227       30.585       38.427       21.940      935.443     1476.607      481.367        0.205        0.145       15.128       11.130        0.541      340.934       15.297      864.247
04/13/2014  13:35:00       26.912       33.366       20.253       43.707       38.485       29.252     1910.274     1481.110      855.700        0.325        0.212       42.867       24.888        0.337      340.700       14.903      864.232
04/13/2014  13:36:00       89.761       97.040       81.159      115.103       73.415       70.543    13248.735     5389.797     4976.274        2.383        1.181      132.188       59.281        0.201      340.469       14.509      864.231
04/13/2014  13:37:00      256.243      153.988       56.287      146.608       94.418       74.089    21493.921     8914.780     5489.135        6.421        1.795      298.953       58.902        0.039      340.195       14.044      864.246
04/13/2014  13:38:00      224.581      167.519       46.928      125.690       82.891       51.227    15798.050     6870.883     2624.201        5.299        1.265      280.177       29.850        0.011      339.785       13.355      864.258
04/13/2014  13:39:00      109.521       59.035       46.372       70.119       69.459       60.944     4916.718     4824.566     3714.158        1.554        0.673      124.419       29.275        0.055      340.186       14.033      864.251
04/13/2014  13:40:00      114.315       32.697       57.088       87.059       78.276       41.253     7579.216     6127.166     1701.789        1.640        0.770      118.900       44.406        0.139      340.247       14.136      864.257
04/13/2014  13:41:00       42.776       32.347       47.295       48.592       64.889       46.110     2361.180     4210.604     2126.126        0.690        0.435       53.630       36.520        0.464      340.254       14.149      864.248
04/13/2014  13:42:00       55.517      -68.963        3.912       37.936       65.860       42.555     1439.145     4337.600     1810.962        0.772        0.379       88.533       45.962        0.270      340.185       14.031      864.237
04/13/2014  13:43:00        9.004      -51.799       -1.406       56.911       55.823       45.927     3238.882     3116.215     2109.268        0.561        0.423       52.576       33.197        0.399      340.998       15.407      864.220
04/13/2014  13:44:00      -36.432      -43.798       29.210       90.857       50.117       45.170     8255.013     2511.694     2040.334        0.845        0.640       56.970       39.945        0.492      340.810       15.088      864.187
04/13/2014  13:45:00      -56.504     -121.055        0.924       39.371       60.625       34.800     1550.109     3675.390     1211.015        1.214        0.322      133.593       27.821        0.043      339.976       13.679      864.201
04/13/2014  13:46:00        3.843       -5.064       13.974       32.263       26.472       20.740     1040.897      700.765      430.148        0.120        0.109        6.357       16.011        6.343      340.772       15.024      864.185
04/13/2014  13:47:00      -15.908      -58.489        3.227       42.201       48.149       23.037     1780.915     2318.354      530.693        0.416        0.231       60.614       18.557        0.094      340.556       14.658      864.201
04/13/2014  13:48:00       28.755       59.980       34.498       95.569       41.015       35.222     9133.381     1682.270     1240.575        0.883        0.603       66.516       42.276        0.404      340.463       14.503      864.224
04/13/2014  13:49:00       64.008      163.994        7.515      177.076      102.328       65.326    31356.031    10471.015     4267.512        3.856        2.305      176.043       85.439        0.236      340.511       14.579      864.219
04/13/2014  13:50:00       84.689       74.445       29.404      107.974       67.077       53.247    11658.449     4499.287     2835.296        1.628        0.950      112.757       45.241        0.161      340.504       14.569      864.205
04/13/2014  13:51:00       85.090      104.595       17.964       78.989       86.655       68.905     6239.201     7509.167     4747.919        1.850        0.925      134.835       60.394        0.201      340.791       15.054      864.190
04/13/2014  13:52:00      108.240      149.662        3.471      109.402       78.908       59.024    11968.742     6226.492     3483.805        2.790        1.084      184.701       51.480        0.078      340.406       14.403      864.187
04/13/2014  13:53:00      282.650      199.377       13.310      147.263       96.030       76.429    21686.439     9221.810     5841.445        7.828        1.837      345.893       31.726        0.008      340.215       14.078      864.166
04/13/2014  13:54:00      222.992      143.869       17.398      105.592       86.339       62.735    11149.718     7454.498     3935.730        4.663        1.127      265.374       25.387        0.009      340.001       13.718      864.214
04/13/2014  13:55:00       98.462       72.447       14.812       52.213       40.763       42.422     2726.193     1661.657     1799.661        1.067        0.309      122.243        6.738        0.003      340.192       14.042      864.192
04/13/2014  13:56:00      106.174       79.591       47.714       63.534       56.656       53.477     4036.605     3209.850     2859.776        1.499        0.505      132.693       36.889        0.077      340.359       14.324      864.173
04/13/2014  13:57:00       64.468       46.777       92.762       92.715      163.645       97.105     8596.126    26779.766     9429.293        2.987        2.240       79.651      113.669        2.037      340.359       14.322      864.147
04/13/2014  13:58:00       91.081     -158.678      -14.837       74.873      107.638       59.353     5605.895    11586.004     3522.789        2.720        1.036      182.960       61.162        0.112      340.216       14.081      864.144
04/13/2014  13:59:00      149.483       85.760      103.871      121.846      124.030       77.358    14846.353    15383.363     5984.265        3.834        1.811      172.337       76.259        0.196      340.505       14.569      864.161
04/13/2014  14:00:00      159.889      141.302      122.100      167.380      108.800      120.094    28015.995    11837.465    14422.604        5.735        2.714      213.379      111.568        0.273      340.311       14.239      864.145
04/13/2014  14:01:00       99.376      147.739      141.640      141.711      109.123      150.479    20082.073    11907.742    22643.881        5.319        2.732      178.052      120.332        0.457      340.593       14.718      864.165
04/13/2014  14:02:00      257.564      167.814       23.841      131.757      106.029       83.324    17359.846    11242.080     6942.923        6.530        1.777      307.410       50.676        0.027      340.320       14.255      864.194
04/13/2014  14:03:00      226.584      135.925       14.957      104.453       72.733       55.644    10910.443     5290.032     3096.223        4.466        0.965      264.227       26.097        0.010      340.121       13.920      864.194
04/13/2014  14:04:00      180.473       83.806       23.410       83.350       65.360       59.174     6947.182     4271.966     3501.527        2.743        0.736      198.982       42.323        0.045      340.280       14.189      864.190
04/13/2014  14:05:00      126.319       87.333       66.860       98.548       62.752       55.293     9711.697     3937.786     3057.290        2.238        0.835      153.570       38.955        0.064      340.154       13.977      864.185
04/13/2014  14:06:00       42.786        9.411       93.904       61.066      100.602       50.656     3729.005    10120.736     2565.988        1.357        0.821       43.809       61.152        1.949      340.580       14.698      864.162
04/13/2014  14:07:00       45.454      -75.215       18.141       47.515       54.952       42.992     2257.644     3019.671     1848.342        0.759        0.356       87.883       42.338        0.232      340.234       14.115      864.161
04/13/2014  14:08:00       78.596      -35.640       53.996       50.601       65.518       56.130     2560.491     4292.618     3150.533        1.018        0.500       86.299       45.125        0.273      340.426       14.439      864.141
04/13/2014  14:09:00      -14.592     -116.485       -4.646       65.677       38.465       35.721     4313.466     1479.569     1275.998        1.043        0.353      117.395       16.000        0.019      340.264       14.165      864.133
04/13/2014  14:10:00     -162.798     -158.340      -29.450       91.281       78.717       52.636     8332.156     6196.316     2770.553        3.487        0.865      227.101       45.248        0.040      340.173       14.008      864.101
04/13/2014  14:11:00      -37.692      -97.736       27.584      119.807      103.792       73.620    14353.610    10772.695     5419.945        2.113        1.527      104.752       71.997        0.472      340.596       14.724      864.036
04/13/2014  14:12:00       10.235      -43.193       -1.373       78.537       71.232       53.395     6168.024     5073.989     2850.988        0.803        0.705       44.389       35.650        0.645      340.640       14.799      864.029
04/13/2014  14:13:00      -36.012      -50.508       12.992       70.263       71.855       32.300     4936.861     5163.184     1043.290        0.758        0.557       62.031       44.689        0.519      340.790       15.053      864.034
04/13/2014  14:14:00       -8.034        0.812       25.522       39.416       19.213       15.552     1553.655      369.138      241.868        0.144        0.108        8.075       11.052        1.873      341.412       16.105      864.041
04/13/2014  14:15:00       28.897       13.175       31.451       39.931       45.247       25.773     1594.452     2047.317      664.272        0.315        0.215       31.758       16.004        0.254      341.126       15.623      864.043
04/13/2014  14:16:00       28.277       -5.663       27.620       60.976       53.631       41.105     3718.065     2876.249     1689.632        0.494        0.414       28.839       35.911        1.551      340.918       15.272      864.026
04/13/2014  14:17:00       -3.506      -12.447        5.679       40.562       35.390       31.210     1645.278     1252.467      974.083        0.203        0.194       12.932       16.147        1.559      341.019       15.442      864.017
04/13/2014  14:18:00      -42.322      -51.099        5.226       45.150       41.713       25.392     2038.561     1739.965      644.749        0.443        0.221       66.350       16.962        0.065      340.853       15.160      864.019
04/13/2014  14:19:00      -31.880      -95.848        0.871       42.153       62.401       39.516     1776.903     3893.924     1561.552        0.872        0.362      101.011       35.210        0.122      340.742       14.972      864.005
04/13/2014  14:20:00       54.942       59.525       63.235       71.357       47.558       37.000     5091.762     2261.717     1369.014        0.964        0.436       81.005       34.578        0.182      341.236       15.808      864.014
04/13/2014  14:21:00      102.774        5.722       25.764      125.663       79.244       50.072    15791.147     6279.677     2507.174        1.791        1.229      102.933       26.260        0.065      340.782       15.039      864.000
04/13/2014  14:22:00      160.744      113.754       44.901      153.964       95.254       63.249    23704.872     9073.389     4000.409        3.878        1.839      196.922       63.441        0.104      340.942       15.310      863.987
04/13/2014  14:23:00      111.895       85.928       17.845       75.194       62.451       59.858     5654.106     3900.153     3583.001        1.668        0.657      141.082       30.379        0.046      340.579       14.694      863.987
04/13/2014  14:24:00      299.132      138.334       54.707      177.120      127.524       80.305    31371.338    16262.463     6448.972        8.284        2.704      329.570       68.533        0.043      340.614       14.753      863.959
04/13/2014  14:25:00      138.407       58.212       63.184      108.696       91.135       81.072    11814.907     8305.593     6572.634        2.661        1.335      150.151       10.721        0.005      340.774       15.024      863.970
04/13/2014  14:26:00       63.166       79.267      112.249       81.750       76.633       64.921     6683.058     5872.542     4214.741        1.982        0.839      101.357       56.810        0.314      340.898       15.234      863.969
04/13/2014  14:27:00      222.591      122.706       92.905      120.201       74.734       91.133    14448.330     5585.216     8305.162        5.078        1.417      254.172       67.913        0.071      340.518       14.590      863.979
04/13/2014  14:28:00      114.672       30.653       74.404       74.123      150.074      100.381     5494.191    22522.149    10076.422        2.885        1.905      118.698      107.544        0.821      340.290       14.208      863.991
04/13/2014  14:29:00       91.573      -76.250       39.512       74.538       78.703       47.519     5555.909     6194.233     2258.090        1.488        0.700      119.162       47.911        0.162      340.387       14.372      863.996
04/13/2014  14:30:00      -65.711       41.297      -28.019       59.004       58.516       36.594     3481.503     3424.115     1339.109        0.752        0.412       77.610       40.840        0.277      340.281       14.194      863.975
04/13/2014  14:31:00      -59.869       33.415      -17.282       43.900       39.814       26.063     1927.243     1585.150      679.299        0.459        0.210       68.563       25.418        0.137      340.553       14.655      863.939
04/13/2014  14:32:00     -147.199      -27.452      -22.502       51.177       41.730       22.858     2619.116     1741.363      522.504        1.390        0.244      149.737       19.309        0.017      340.419       14.426      863.897
04/13/2014  14:33:00      -68.853      -63.213        8.236       72.558       58.552       39.344     5264.613     3428.370     1547.957        0.952        0.512       93.470       42.253        0.204      340.989       15.391      863.876
04/13/2014  14:34:00      -66.928      -12.673       19.386       92.378       47.170       36.807     8533.711     2224.978     1354.743        0.856        0.606       68.118       40.724        0.357      341.035       15.468      863.831
04/13/2014  14:35:00       30.167      -45.764        4.992       95.675       69.533       58.605     9153.701     4834.780     3434.599        1.022        0.871       54.813       39.380        0.516      340.830       15.122      863.829
04/13/2014  14:36:00      128.438       83.454       70.913      117.395      144.549      122.043    13781.537    20894.302    14894.392        3.902        2.479      153.169      116.459        0.578      340.634       14.789      863.806
04/13/2014  14:37:00      273.805      126.737       32.276      113.223       90.708       73.105    12819.416     8228.009     5344.366        5.923        1.320      301.714       39.847        0.017      340.488       14.539      863.783
04/13/2014  14:38:00      225.606      121.255       61.454      130.878       79.555       81.004    17129.003     6328.952     6561.600        4.969        1.501      256.127       80.570        0.099      340.546       14.637      863.757
04/13/2014  14:39:00      133.937       99.088      111.526      128.674       83.405       85.378    16556.993     6956.454     7289.480        3.549        1.540      166.606       78.428        0.222      340.783       15.040      863.733
04/13/2014  14:40:00      137.420      110.385       85.727      105.608       90.896       73.693    11153.065     8262.132     5430.696        3.163        1.242      176.264       63.063        0.128      340.940       15.304      863.712
04/13/2014  14:41:00       94.536      170.408      144.760      133.305      102.735      104.626    17770.308    10554.530    10946.567        4.909        1.964      194.874       91.828        0.222      341.216       15.772      863.726
04/13/2014  14:42:00      243.763      155.633       12.770      133.941       78.964       70.345    17940.100     6235.335     4948.488        5.646        1.456      289.209       57.259        0.039      340.998       15.403      863.755
04/13/2014  14:43:00      137.594       74.404       19.733       86.999       71.048       54.167     7568.862     5047.841     2934.109        2.020        0.778      156.423       51.897        0.110      341.120       15.613      863.783
04/13/2014  14:44:00       12.130       69.169       -4.722       41.329       62.031       33.027     1708.111     3847.887     1090.772        0.580        0.332       70.225       35.644        0.258      341.009       15.426      863.753
04/13/2014  14:45:00      111.087       96.363       69.900       77.051       56.879       57.034     5936.903     3235.223     3252.839        1.947        0.621      147.058       44.060        0.090      340.746       14.978      863.744
04/13/2014  14:46:00       81.335       45.916       35.556       35.530       40.626       37.653     1262.390     1650.481     1417.762        0.716        0.217       93.400       24.901        0.071      340.716       14.929      863.742
04/13/2014  14:47:00      120.519       76.606       21.343      102.342       73.589       50.726    10473.833     5415.410     2573.137        1.965        0.923      142.805       23.081        0.026      341.160       15.678      863.741
04/13/2014  14:48:00       58.754       10.290       24.122       69.194       51.872       41.727     4787.782     2690.735     1741.105        0.668        0.461       59.648       11.540        0.037      341.449       16.170      863.732
04/13/2014  14:49:00       63.461       90.358        1.215      124.265       70.255       56.111    15441.786     4935.757     3148.399        1.785        1.176      110.417       39.712        0.129      341.509       16.270      863.738
04/13/2014  14:50:00       57.122       95.428       -8.750       95.770       81.433       45.232     9171.874     6631.393     2045.976        1.514        0.892      111.218       39.261        0.125      341.334       15.975      863.758
04/13/2014  14:51:00      248.429      151.246       23.626       95.806       78.546       61.883     9178.720     6169.483     3829.551        5.216        0.959      290.848       29.679        0.010      340.852       15.155      863.751
04/13/2014  14:52:00      137.800       88.508       46.518       97.409       76.127       73.453     9488.588     5795.370     5395.334        2.483        1.034      163.776       30.191        0.034      341.027       15.453      863.743
04/13/2014  14:53:00      101.699       69.708       57.297       86.612       70.161       68.847     7501.569     4922.537     4739.975        1.782        0.858      123.296       60.757        0.243      340.847       15.149      863.735
04/13/2014  14:54:00      200.084      108.677       56.955      134.917       97.225       78.695    18202.583     9452.658     6192.916        4.446        1.692      227.693       55.410        0.059      341.054       15.498      863.750
04/13/2014  14:55:00      -60.300      285.373      -34.443       95.178      167.017       55.886     9058.854    27894.786     3123.219        6.316        2.004      291.675       73.200        0.063      340.801       15.068      863.785
04/13/2014  14:56:00     -154.138      179.275      -33.881       98.759       92.066       64.485     9753.425     8476.065     4158.330        3.971        1.119      236.428       62.898        0.071      340.754       14.991      863.793
04/13/2014  14:57:00     -160.621      122.751      -34.176       72.977       70.406       45.382     5325.699     4957.019     2059.505        2.719        0.617      202.155       47.184        0.054      340.573       14.686      863.780
04/13/2014  14:58:00     -105.652       30.140      -19.122       60.576       51.037       24.218     3669.461     2604.789      586.502        0.965        0.343      109.867       10.349        0.009      340.620       14.764      863.741
04/13/2014  14:59:00      -66.767      -66.853       -7.111       81.096       50.313       37.270     6576.616     2531.421     1389.077        0.974        0.525       94.484       30.442        0.104      340.784       15.042      863.703
04/13/2014  15:00:00       10.350       14.835       28.523       97.353       70.740       33.144     9477.576     5004.164     1098.528        0.836        0.779       18.089       28.393        2.464      340.946       15.318      863.712
04/13/2014  15:01:00      192.528      105.724       40.119       95.287       70.041       68.707     9079.693     4905.710     4720.716        3.428        0.935      219.646       48.453        0.049      340.652       14.816      863.701
04/13/2014  15:02:00       44.643       30.146       54.004       63.876       78.690       70.266     4080.141     6192.052     4937.310        1.051        0.760       53.868       58.615        1.184      340.825       15.112      863.690
04/13/2014  15:03:00       75.690       20.160       88.959       82.775      139.357       81.942     6851.639    19420.360     6714.514        2.351        1.649       78.329      103.450        1.744      340.799       15.067      863.685
04/13/2014  15:04:00      121.774     -176.843      -17.266       77.195       91.418       52.044     5959.008     8357.238     2708.591        3.171        0.851      214.714       53.980        0.063      340.669       14.847      863.656
04/13/2014  15:05:00      120.141     -257.684      -10.839       67.855       53.712       38.213     4604.358     2884.944     1460.219        4.495        0.447      284.315       34.664        0.015      340.500       14.558      863.631
04/13/2014  15:06:00       56.504     -180.075      -14.971       81.540       99.970       40.381     6648.839     9993.925     1630.646        2.705        0.914      188.732       27.425        0.021      340.658       14.828      863.613
04/13/2014  15:07:00       -3.588      -77.057       25.412       45.144       76.429       37.752     2038.012     5841.430     1425.198        0.795        0.465       77.141       39.467        0.262      341.530       16.307      863.583
04/13/2014  15:08:00       22.282       27.919       70.218       56.236       65.379       49.979     3162.449     4274.411     2497.892        0.807        0.497       35.720       25.112        0.494      341.487       16.234      863.577
04/13/2014  15:09:00      107.167      136.670       97.245       71.040       62.396       68.554     5046.747     3893.281     4699.617        2.663        0.682      173.676       54.616        0.099      340.346       14.301      863.594
04/13/2014  15:10:00       70.406        3.379       36.271       51.679       57.287       28.445     2670.749     3281.750      809.094        0.652        0.338       70.487       25.847        0.134      340.789       15.053      863.602
04/13/2014  15:11:00       33.693      -55.600        5.493       35.228       38.756       28.807     1241.018     1502.047      829.838        0.391        0.179       65.012       21.165        0.106      340.730       14.953      863.586
04/13/2014  15:12:00        6.188        2.736       -9.472       25.790       29.299       18.025      665.105      858.450      324.904        0.099        0.092        6.766       12.950        3.663      341.004       15.416      863.592
04/13/2014  15:13:00      -14.751       97.492      -20.274       32.784       92.826       27.471     1074.792     8616.718      754.657        1.029        0.522       98.601       46.047        0.218      340.976       15.369      863.608
04/13/2014  15:14:00     -145.220      157.340      -33.318       78.678       74.088       39.290     6190.192     5489.023     1543.665        3.009        0.661      214.114       37.199        0.030      340.873       15.191      863.617
04/13/2014  15:15:00       18.946       76.365       10.524       60.211       51.458       47.889     3625.421     2647.940     2293.336        0.743        0.428       78.680       36.245        0.212      341.208       15.761      863.561
04/13/2014  15:16:00     -122.343      -51.883       -4.756      135.215       87.387       33.663    18283.119     7636.479     1133.231        2.236        1.353      132.890       25.220        0.036      341.443       16.158      863.535
04/13/2014  15:17:00     -195.069      -65.540       12.840      145.727      118.261       67.576    21236.419    13985.680     4566.485        4.114        1.989      205.785       79.028        0.147      341.525       16.296      863.526
04/13/2014  15:18:00     -113.202      -52.420       -7.728      168.936       74.560       43.239    28539.502     5559.146     1869.653        2.579        1.798      124.750       48.668        0.152      341.459       16.185      863.522
04/13/2014  15:19:00     -145.740      -33.656       18.303      160.099       62.803       51.739    25631.707     3944.246     2676.880        2.747        1.613      149.576       71.802        0.230      341.261       15.850      863.510
04/13/2014  15:20:00      -21.373       86.595       -2.981       72.382       99.369       60.485     5239.103     9874.215     3658.443        1.336        0.939       89.194       38.612        0.187      341.475       16.213      863.518
04/13/2014  15:21:00      -96.409       35.473      -18.295       99.942      125.331       51.311     9988.328    15707.781     2632.776        1.960        1.416      102.728       40.241        0.153      341.369       16.033      863.482
04/13/2014  15:22:00       10.572      219.647      -36.311       79.682       95.267       42.436     6349.201     9075.774     1800.801        3.345        0.861      219.901       50.533        0.053      341.158       15.674      863.497
04/13/2014  15:23:00        4.999      176.560       -5.794       62.659      127.092       59.292     3926.160    16152.381     3515.529        2.741        1.180      176.630       70.170        0.158      341.566       16.367      863.491
04/13/2014  15:24:00       23.878      325.381      -62.977      140.236      137.263       65.368    19666.178    18841.178     4272.990        7.659        2.139      326.256       76.259        0.055      340.926       15.280      863.487
04/13/2014  15:25:00      -87.295      222.439      -30.452       95.920      105.946       47.007     9200.569    11224.579     2209.684        4.033        1.132      238.955       58.092        0.059      341.133       15.633      863.492
04/13/2014  15:26:00       60.562      242.226      -28.331       90.102       92.495       60.426     8118.327     8555.347     3651.307        4.173        1.016      249.682       58.590        0.055      341.129       15.624      863.495
04/13/2014  15:27:00      107.752      137.725        7.193      123.863       91.721       71.736    15342.163     8412.799     5145.997        2.976        1.445      174.868       62.479        0.128      341.216       15.773      863.461
04/13/2014  15:28:00      117.288      215.990      -12.226      108.451      120.389       77.666    11761.701    14493.522     6032.056        4.642        1.614      245.780       62.331        0.064      341.140       15.643      863.464
04/13/2014  15:29:00       92.416      136.397        2.134      111.154       90.642       68.446    12355.200     8215.956     4684.794        2.620        1.263      164.757       56.511        0.118      341.240       15.814      863.493
04/13/2014  15:30:00      -22.259      211.223      -33.177       55.134       89.434       30.097     3039.769     7998.482      905.842        2.908        0.597      212.392       36.385        0.029      341.030       15.457      863.507
04/13/2014  15:31:00      -25.542      162.000      -17.170       38.533      114.967       36.445     1484.799    13217.401     1328.250        2.161        0.802      164.001       51.621        0.099      340.982       15.378      863.490
04/13/2014  15:32:00      -82.760      259.274      -32.980       78.317      181.507       55.132     6133.480    32944.806     3039.551        5.863        2.106      272.163       76.520        0.079      341.226       15.790      863.481
04/13/2014  15:33:00       16.148      237.206      -23.939      105.888      113.666       64.849    11212.278    12919.984     4205.454        4.271        1.417      237.755       60.879        0.066      341.240       15.812      863.462
04/13/2014  15:34:00       43.262      284.250      -40.021       84.337      109.087       63.058     7112.793    11899.941     3976.256        5.363        1.149      287.524       59.730        0.043      341.048       15.488      863.455
04/13/2014  15:35:00      123.344      129.810        3.260      114.675       63.289       51.105    13150.433     4005.468     2611.694        2.592        0.988      179.065       41.367        0.053      341.260       15.846      863.465
04/13/2014  15:36:00      189.391       95.015       27.744       85.796       61.949       67.613     7360.895     3837.713     4571.544        3.072        0.789      211.889       42.186        0.040      340.982       15.376      863.449
04/13/2014  15:37:00      115.833      180.265       -0.825      143.616      126.413       67.324    20625.621    15980.175     4532.583        4.352        2.057      214.272       68.735        0.103      341.261       15.849      863.458
04/13/2014  15:38:00      212.379      163.255       34.304      100.781       78.031       69.493    10156.754     6088.862     4829.254        4.700        1.054      267.875       27.240        0.010      340.866       15.178      863.467
04/13/2014  15:39:00       96.737       88.704       57.124       93.393       78.570       67.470     8722.243     6173.192     4552.164        1.996        0.972      131.250       48.606        0.137      341.081       15.545      863.456
04/13/2014  15:40:00      126.935       65.458       27.214       84.186       49.282       42.795     7087.330     2428.668     1831.382        1.624        0.567      142.819       18.687        0.017      341.175       15.704      863.478
04/13/2014  15:41:00      -26.394      239.178      -25.154       48.405       91.320       33.940     2343.045     8339.297     1151.944        3.518        0.592      240.630       42.165        0.031      341.093       15.562      863.492
04/13/2014  15:42:00       83.899       91.004       -5.214       65.595       54.633       45.410     4302.698     2984.714     2062.064        1.235        0.467      123.777       25.853        0.044      341.144       15.653      863.504
04/13/2014  15:43:00       77.448       50.365       11.466       34.373       36.380       29.368     1181.519     1323.521      862.500        0.602        0.168       92.385       20.929        0.051      340.918       15.269      863.507
04/13/2014  15:44:00      -12.191       69.649      -26.388       39.170       35.811       26.500     1534.266     1282.438      702.238        0.461        0.176       70.708       22.657        0.103      340.831       15.124      863.489
04/13/2014  15:45:00      -12.412      139.633      -29.832       56.883      100.411       45.402     3235.633    10082.403     2061.324        1.796        0.769      140.183       53.711        0.147      340.953       15.329      863.481
04/13/2014  15:46:00       54.518       72.282       -5.842       60.766       63.937       30.441     3692.501     4087.884      926.625        0.847        0.435       90.536       17.592        0.038      341.260       15.849      863.472
04/13/2014  15:47:00        1.032       41.982       -6.831       36.427       57.135       23.976     1326.943     3264.369      574.831        0.349        0.258       41.994       28.338        0.455      341.087       15.556      863.450
04/13/2014  15:48:00     -187.093      123.027      -40.236       81.437       60.952       47.464     6631.965     3715.179     2252.813        3.218        0.630      223.918       42.320        0.036      341.104       15.581      863.470
04/13/2014  15:49:00      -29.926      -12.036      -20.592       74.823       58.148       28.057     5598.471     3381.190      787.190        0.561        0.488       32.256       39.805        1.523      341.082       15.548      863.433
04/13/2014  15:50:00      -53.828      -40.580       14.697       74.404       43.644       34.412     5535.911     1904.757     1184.154        0.669        0.431       67.410       30.750        0.208      341.281       15.886      863.382
04/13/2014  15:51:00     -148.943      -56.637        2.802       99.779       61.491       39.555     9955.774     3781.121     1564.631        2.035        0.765      159.348       38.240        0.058      341.388       16.064      863.348
04/13/2014  15:52:00      -63.252      -51.590        6.394       88.823       60.693       46.447     7889.530     3683.646     2157.347        1.021        0.687       81.623       37.088        0.206      341.385       16.061      863.350
04/13/2014  15:53:00       44.883       61.746       -1.321       42.634       53.888       32.390     1817.663     2903.926     1049.134        0.580        0.289       76.336       22.867        0.090      341.374       16.043      863.361
04/13/2014  15:54:00        9.645       39.326       -1.804       39.178       39.578       22.678     1534.916     1566.437      514.276        0.263        0.181       40.491       16.121        0.159      341.517       16.285      863.358
04/13/2014  15:55:00       13.243      104.444        8.026       72.930       89.342       46.525     5318.737     7982.031     2164.578        1.330        0.773      105.280       47.375        0.202      341.667       16.539      863.355
04/13/2014  15:56:00       74.117      146.786       -0.911       69.739       85.819       46.131     4863.489     7364.967     2128.032        2.070        0.718      164.437       42.988        0.068      341.426       16.130      863.356
04/13/2014  15:57:00       41.856      159.986      -12.958       76.792      147.835       47.924     5897.024    21855.172     2296.718        2.878        1.502      165.370       70.481        0.182      341.583       16.394      863.346
04/13/2014  15:58:00       80.346      175.864      -18.581       93.450      135.333       72.342     8732.906    18315.132     5233.347        3.500        1.614      193.348       83.465        0.186      341.428       16.131      863.343
04/13/2014  15:59:00       51.505      194.802      -12.521       81.199      123.224       83.409     6593.358    15184.085     6957.031        3.474        1.437      201.495       79.192        0.154      341.257       15.841      863.353
04/13/2014  16:00:00      158.353      108.878       45.278      114.494       82.134       73.121    13108.969     6745.989     5346.723        3.209        1.260      192.172       56.268        0.086      341.271       15.865      863.367
04/13/2014  16:01:00       33.093       28.250       61.145       62.325       72.875       52.608     3884.381     5310.695     2767.549        0.879        0.598       43.511       49.278        1.283      341.303       15.922      863.341
04/13/2014  16:02:00      157.230      112.335       20.312      101.656       78.805       55.856    10333.956     6210.252     3119.879        2.870        0.983      193.236       34.095        0.031      341.095       15.569      863.347
04/13/2014  16:03:00      108.754       78.171       17.953       82.451       58.993       41.458     6798.154     3480.190     1718.787        1.513        0.600      133.934       29.661        0.049      341.308       15.929      863.352
04/13/2014  16:04:00       40.242       34.962        3.508       63.253       59.934       39.481     4000.972     3592.102     1558.781        0.600        0.458       53.308       25.442        0.228      341.628       16.472      863.349
04/13/2014  16:05:00      -46.616       11.329       11.335       37.859       79.235       39.181     1433.291     6278.210     1535.164        0.584        0.462       47.972       35.416        0.545      342.034       17.161      863.323
04/13/2014  16:06:00      -77.330       74.247       -8.981       52.066       85.313       34.288     2710.840     7278.298     1175.658        1.137        0.558      107.203       27.590        0.066      341.886       16.910      863.318
04/13/2014  16:07:00      -97.962      177.600      -32.240      120.573      205.101       55.526    14537.867    42066.277     3083.105        5.092        2.984      202.826       72.106        0.126      341.631       16.477      863.339
04/13/2014  16:08:00       85.586      390.870      -51.160      102.850      186.154       71.980    10578.075    34653.297     5181.103       10.656        2.521      400.131       93.978        0.055      341.244       15.820      863.319
04/13/2014  16:09:00      151.447      178.369        1.402      131.211      139.912       76.006    17216.354    19575.359     5776.865        4.865        2.128      233.990       75.967        0.105      341.418       16.112      863.329
04/13/2014  16:10:00       56.255      260.375      -37.493       89.012      154.384       67.770     7923.102    23834.418     4592.824        5.435        1.818      266.383       77.518        0.085      341.202       15.748      863.347
04/13/2014  16:11:00      -43.299      233.415      -28.377       49.614       85.968       38.709     2461.589     7390.418     1498.398        3.425        0.568      237.397       39.006        0.027      341.251       15.831      863.367
04/13/2014  16:12:00       37.056      101.193        2.644       71.169       65.111       48.940     5064.977     4239.465     2395.134        1.166        0.585      107.764       41.579        0.149      341.649       16.507      863.357
04/13/2014  16:13:00      119.700      107.319        1.840       86.911       79.460       55.736     7553.556     6313.868     3106.527        2.141        0.849      160.765       48.014        0.089      341.313       15.937      863.355
04/13/2014  16:14:00       94.473      157.445       -1.739       97.059       89.904       73.063     9420.488     8082.760     5338.193        2.827        1.142      183.614       53.798        0.086      341.170       15.694      863.359
04/13/2014  16:15:00      -23.439      175.862      -37.069       90.698      122.512       39.327     8226.138    15009.274     1546.629        2.881        1.239      177.417       21.508        0.015      341.023       15.445      863.362
04/13/2014  16:16:00       45.464      155.319      -13.924       58.309       88.395       43.417     3399.950     7813.696     1884.995        1.974        0.655      161.836       41.241        0.065      341.068       15.522      863.356
04/13/2014  16:17:00       43.991      143.275      -21.561       67.405       54.115       37.369     4543.400     2928.484     1396.461        1.590        0.443      149.876       37.653        0.063      341.036       15.468      863.341
04/13/2014  16:18:00       58.447       77.914       92.643       98.661       51.369       72.841     9734.081     2638.751     5305.760        1.787        0.884       97.399       50.900        0.273      341.048       15.490      863.302
04/13/2014  16:19:00      -11.871      232.087      -21.914       76.445      115.452       55.610     5843.909    13329.130     3092.445        3.837        1.113      232.390       48.228        0.043      341.286       15.890      863.324
04/13/2014  16:20:00      -48.441      348.397      -39.874       50.772      110.827       38.568     2577.784    12282.734     1487.502        7.083        0.817      351.748       46.198        0.017      341.101       15.576      863.320
04/13/2014  16:21:00      128.244      236.235       -9.078      170.673       95.367       75.700    29129.442     9094.933     5730.496        5.814        2.198      268.800       62.316        0.054      341.316       15.941      863.329
04/13/2014  16:22:00      182.338      182.565       13.559      117.624       86.387       82.909    13835.427     7462.718     6873.826        4.746        1.409      258.026       65.970        0.065      341.074       15.530      863.343
04/13/2014  16:23:00       10.771      189.265       -7.453       95.761      140.400       63.853     9170.174    19712.271     4077.236        3.447        1.648      189.571       61.073        0.104      341.388       16.063      863.353
04/13/2014  16:24:00       74.763      196.578       -8.017       79.758      117.639       73.118     6361.361    13838.947     5346.243        3.492        1.277      210.315       78.367        0.139      341.350       15.999      863.371
04/13/2014  16:25:00     -108.242      267.666      -46.315       59.985      148.088       50.335     3598.145    21929.998     2533.639        5.678        1.403      288.724       37.475        0.017      341.032       15.461      863.414
04/13/2014  16:26:00       28.849      179.860      -19.465       52.119       81.511       44.432     2716.423     6643.993     1974.180        2.245        0.567      182.159       38.405        0.044      340.966       15.348      863.415
04/13/2014  16:27:00      -42.211       74.515        1.861       52.218       52.981       34.539     2726.771     2806.959     1192.973        0.703        0.336       85.640       32.474        0.144      341.441       16.155      863.387
04/13/2014  16:28:00      -49.114       85.983       -9.614       98.606       41.963       42.387     9723.125     1760.913     1796.657        1.159        0.664       99.021       47.886        0.234      341.179       15.711      863.376
04/13/2014  16:29:00      -99.938       35.698       -9.714       72.975       51.460       30.304     5325.391     2648.134      918.355        1.012        0.445      106.123       34.161        0.104      341.598       16.422      863.368
04/13/2014  16:30:00      -35.691      113.029      -20.827       35.007       53.468       27.544     1225.500     2858.794      758.692        0.966        0.242      118.531       24.430        0.042      341.280       15.883      863.366
04/13/2014  16:31:00       -1.854       56.993        8.665       29.335       42.489       30.577      860.545     1805.353      934.970        0.346        0.180       57.023       24.237        0.181      341.366       16.028      863.353
04/13/2014  16:32:00       -3.565       42.715       -0.196       25.965       26.154       26.244      674.172      684.026      688.761        0.194        0.102       42.863       13.793        0.104      341.217       15.778      863.329
04/13/2014  16:33:00      -59.199      -63.872       -0.729      111.960       54.191       35.042    12535.087     2936.675     1227.941        1.214        0.835       87.087       16.957        0.038      341.658       16.523      863.303
04/13/2014  16:34:00     -165.574      -68.269       -2.695       74.045       55.853       41.523     5482.635     3119.547     1724.157        2.120        0.516      179.096       37.546        0.044      341.755       16.685      863.296
04/13/2014  16:35:00     -145.921        3.618      -21.595       37.503       34.634       24.293     1406.500     1199.509      590.163        1.248        0.160      145.966       15.380        0.011      341.466       16.199      863.322
04/13/2014  16:36:00      -63.653       18.164        0.057       40.583       31.596       34.148     1647.005      998.335     1166.057        0.410        0.191       66.194       27.082        0.167      341.612       16.446      863.331
04/13/2014  16:37:00      -79.940       28.863        6.352       63.476       76.900       40.501     4029.201     5913.669     1640.310        0.942        0.579       84.991       37.727        0.197      341.860       16.867      863.322
04/13/2014  16:38:00     -172.827       13.072      -23.983       91.043      100.337       46.388     8288.873    10067.596     2151.881        2.556        1.025      173.321       54.707        0.100      341.518       16.283      863.321
04/13/2014  16:39:00      -70.820      160.092      -36.770       68.338       50.006       32.856     4670.023     2500.569     1079.517        2.012        0.413      175.057       34.439        0.039      341.122       15.614      863.333
04/13/2014  16:40:00        3.597      227.477      -25.938       41.139       80.627       30.622     1692.395     6500.740      937.701        3.078        0.457      227.505       29.098        0.016      341.194       15.736      863.354
04/13/2014  16:41:00      -78.297      282.121      -30.191       98.696      180.681       52.653     9740.943    32645.669     2772.386        6.589        2.258      292.784       64.518        0.049      341.536       16.314      863.360
04/13/2014  16:42:00     -138.222      130.284      -39.968      101.181       89.932       46.771    10237.612     8087.810     2187.509        2.909        1.026      189.946       49.757        0.069      341.467       16.198      863.345
04/13/2014  16:43:00       19.055      308.106      -35.475      100.371      133.236       70.397    10074.369    17751.892     4955.700        6.466        1.639      308.694       67.159        0.047      341.570       16.371      863.361
04/13/2014  16:44:00      -19.732      289.996      -55.053       83.999      119.420       43.305     7055.889    14261.150     1875.322        5.535        1.160      290.666       62.108        0.046      341.085       15.549      863.379
04/13/2014  16:45:00      -81.849      382.469      -41.078      101.007      138.643       59.106    10202.340    19221.850     3493.557        9.379        1.646      391.129       62.375        0.025      341.325       15.956      863.361
04/13/2014  16:46:00       -5.672      446.841      -52.286       97.604      125.308       58.125     9526.447    15702.026     3378.513       11.551        1.430      446.877       64.927        0.021      341.232       15.800      863.365
04/13/2014  16:47:00       63.881      349.951      -49.357       89.626      182.431       77.401     8032.843    33281.088     5990.945        8.813        2.365      355.734       90.812        0.065      341.531       16.304      863.351
04/13/2014  16:48:00      103.011      125.990       10.772      100.302       97.215       72.971    10060.513     9450.721     5324.801        2.571        1.242      162.741       54.130        0.111      341.600       16.421      863.365
04/13/2014  16:49:00      -87.552      335.268      -50.410      112.754      167.566       57.249    12713.471    28078.252     3277.444        8.333        2.203      346.511       60.168        0.030      341.442       16.155      863.384
04/13/2014  16:50:00     -121.109      268.142      -46.247       89.926      157.513       53.544     8086.641    24810.273     2866.964        6.223        1.788      294.224       55.992        0.036      341.415       16.110      863.391
04/13/2014  16:51:00     -109.354      212.996      -40.310      128.155       71.885       49.689    16423.617     5167.520     2469.038        4.150        1.203      239.428       55.187        0.053      341.400       16.083      863.381
04/13/2014  16:52:00       36.322       63.333       -1.138       62.095       61.075       42.196     3855.756     3730.166     1780.471        0.735        0.468       73.009       24.269        0.110      341.664       16.533      863.363
04/13/2014  16:53:00       -2.228      181.954      -15.665       40.803      115.182       40.801     1664.898    13266.784     1664.727        2.497        0.830      181.968       49.591        0.074      341.601       16.424      863.353
04/13/2014  16:54:00      -62.478      264.809      -32.823       52.380       63.187       46.358     2743.651     3992.646     2149.094        4.199        0.444      272.080       39.537        0.021      341.418       16.112      863.363
04/13/2014  16:55:00     -128.717      380.141      -40.004      100.922      154.900       63.649    10185.156    23994.152     4051.253       10.045        1.912      401.342       69.559        0.030      341.604       16.428      863.383
04/13/2014  16:56:00      -58.693      531.176      -76.993      101.185      149.540       54.776    10238.488    22362.250     3000.429       16.355        1.780      534.409       57.552        0.012      341.202       15.749      863.408
04/13/2014  16:57:00      -36.879      441.255      -58.251       53.251       76.717       36.737     2835.682     5885.490     1349.630       10.476        0.504      442.793       37.323        0.007      341.167       15.690      863.435
04/13/2014  16:58:00      -43.176      324.508      -52.789      109.465      113.015       51.050    11982.691    12772.487     2606.122        6.865        1.368      327.368       48.267        0.022      341.386       16.058      863.431
04/13/2014  16:59:00       97.985      155.696        5.085      125.988      124.556       78.774    15872.868    15514.173     6205.278        3.572        1.880      183.963       86.770        0.222      341.357       16.011      863.413
04/13/2014  17:00:00       52.788      249.674      -29.624      118.375      169.625       51.942    14012.745    28772.604     2697.969        5.573        2.274      255.194       62.320        0.060      341.379       16.046      863.399
04/13/2014  17:01:00       29.900      339.585      -51.114       86.338      116.700       64.828     7454.310    13618.786     4202.611        7.204        1.264      340.898       68.399        0.040      341.393       16.071      863.413
04/13/2014  17:02:00      -54.657      319.255      -43.147       78.852       96.300       41.833     6217.591     9273.653     1749.986        6.200        0.862      323.900       41.654        0.017      341.363       16.021      863.439
04/13/2014  17:03:00      -87.852      212.726      -20.522       88.754      125.402       56.462     7877.269    15725.675     3187.951        4.009        1.340      230.153       64.599        0.079      341.455       16.177      863.446
04/13/2014  17:04:00      -18.042      281.302      -43.323       70.990       56.068       35.804     5039.630     3143.579     1281.897        4.540        0.473      281.880       23.983        0.007      341.393       16.070      863.473
04/13/2014  17:05:00      -60.602      171.634      -19.730       57.578       82.916       40.026     3315.198     6875.041     1602.104        2.265        0.590      182.019       27.671        0.023      341.590       16.405      863.482
04/13/2014  17:06:00       34.474      111.494       -1.534       72.657       78.526       48.991     5278.987     6166.325     2400.153        1.373        0.692      116.702       40.084        0.118      341.624       16.465      863.494
04/13/2014  17:07:00       56.175       73.440        7.787       52.526       78.018       47.405     2759.016     6086.819     2247.231        0.985        0.555       92.461       43.443        0.221      341.388       16.066      863.482
04/13/2014  17:08:00       93.754      103.915       13.002       68.301       51.350       47.777     4665.066     2636.777     2282.637        1.467        0.479      139.958       32.537        0.054      341.423       16.125      863.466
04/13/2014  17:09:00      108.757      135.243       -3.057       81.182      102.112       69.130     6590.517    10426.920     4778.941        2.596        1.090      173.548       59.505        0.118      341.430       16.135      863.472
04/13/2014  17:10:00      143.394      149.502       22.836       93.898       78.205       69.912     8816.816     6115.951     4887.744        3.162        0.991      207.154       52.390        0.064      341.249       15.827      863.472
04/13/2014  17:11:00      121.485      202.389       -8.432       90.918      114.620       82.195     8266.081    13137.657     6756.019        4.197        1.408      236.050       73.424        0.097      341.269       15.861      863.464
04/13/2014  17:12:00       70.405      251.767      -29.324       71.910      112.886       63.432     5171.005    12743.271     4023.561        4.557        1.097      261.426       66.937        0.066      341.378       16.045      863.456
04/13/2014  17:13:00      138.573       98.979        2.658      111.662       73.197       51.642    12468.414     5357.772     2666.882        2.475        1.025      170.292       52.829        0.096      341.458       16.184      863.442
04/13/2014  17:14:00      152.680      107.444        9.281       88.404       71.780       54.552     7815.300     5152.432     2975.946        2.544        0.797      186.696       28.094        0.023      341.200       15.746      863.439
04/13/2014  17:15:00        5.837       45.282        3.424       72.043       33.655       32.796     5190.241     1132.642     1075.559        0.475        0.370       45.657       28.907        0.401      341.597       16.420      863.445
04/13/2014  17:16:00        2.187      250.096      -42.607       67.435      152.046       37.911     4547.491    23118.052     1437.251        4.673        1.455      250.106       57.862        0.054      341.600       16.425      863.456
04/13/2014  17:17:00      -87.172      306.481      -40.073       83.309       77.669       42.578     6940.407     6032.403     1812.907        5.896        0.739      318.637       29.984        0.009      341.492       16.238      863.454
04/13/2014  17:18:00      -38.623      404.370      -60.238       84.488      139.732       40.884     7138.259    19524.895     1671.494        9.848        1.417      406.210       54.926        0.018      341.163       15.681      863.458
04/13/2014  17:19:00        1.535      307.581      -40.265       64.031       99.992       46.024     4099.956     9998.447     2118.175        5.622        0.811      307.585       51.950        0.029      341.271       15.864      863.456
04/13/2014  17:20:00      -66.197      211.170      -27.890       79.772       85.742       43.995     6363.498     7351.622     1935.549        3.270        0.783      221.302       33.476        0.023      341.493       16.241      863.453
04/13/2014  17:21:00      -78.371      207.574      -31.719       98.387       80.335       53.116     9680.050     6453.645     2821.354        3.459        0.948      221.876       53.974        0.059      341.420       16.118      863.441
04/13/2014  17:22:00       21.404      220.620      -18.541       70.528       95.051       60.311     4974.244     9034.772     3637.431        3.356        0.882      221.656       56.283        0.064      341.487       16.231      863.443
04/13/2014  17:23:00      -47.520      275.056      -41.707       79.922      104.945       45.844     6387.465    11013.358     2101.634        4.957        0.975      279.131       49.842        0.032      341.335       15.973      863.473
04/13/2014  17:24:00       -1.039      221.194      -26.768       57.893       98.341       42.398     3351.653     9670.906     1797.592        3.223        0.741      221.196       47.739        0.047      341.337       15.978      863.477
04/13/2014  17:25:00       -6.847       59.448      -10.519       39.440       55.231       23.998     1555.487     3050.458      575.915        0.444        0.259       59.841       29.220        0.238      341.733       16.651      863.457
04/13/2014  17:26:00       45.786      240.650      -24.715       62.902      118.764       58.968     3956.655    14104.800     3477.174        4.107        1.077      244.966       68.920        0.079      341.564       16.363      863.471
04/13/2014  17:27:00       -5.782      230.346      -13.361       90.017      115.047       64.734     8103.013    13235.717     4190.502        3.940        1.276      230.418       70.262        0.093      341.477       16.213      863.461
04/13/2014  17:28:00      -10.696      323.725      -52.415       51.780       54.953       29.701     2681.209     3019.783      882.146        5.712        0.329      323.902       18.683        0.003      341.404       16.088      863.457
04/13/2014  17:29:00      -40.091      291.760      -38.072      107.780       96.604       62.319    11616.455     9332.418     3883.679        5.650        1.242      294.502       60.522        0.042      341.540       16.320      863.468
04/13/2014  17:30:00       79.263      119.155        9.772      114.762       88.209       53.011    13170.343     7780.772     2810.160        2.216        1.188      143.110       37.155        0.067      341.592       16.409      863.475
04/13/2014  17:31:00      136.103      126.296       11.384       98.917       93.383       66.534     9784.504     8720.465     4426.729        2.876        1.147      185.674       56.458        0.092      341.321       15.951      863.452
04/13/2014  17:32:00      125.515      195.973        2.216      146.651      109.158       80.563    21506.502    11915.556     6490.473        4.703        1.996      232.722       65.881        0.080      341.398       16.080      863.455
04/13/2014  17:33:00       95.014      311.819      -31.459      114.335      156.531       90.254    13072.462    24501.957     8145.842        7.648        2.286      325.973       91.611        0.079      341.410       16.101      863.445
04/13/2014  17:34:00       73.082      255.310      -16.990      119.438      164.750       71.944    14265.346    27142.592     5175.923        5.869        2.329      265.564       80.538        0.092      341.351       16.000      863.460
04/13/2014  17:35:00      130.196      194.210      -20.754      122.936      127.448       84.572    15113.151    16243.008     7152.469        4.680        1.925      233.813       58.455        0.063      341.265       15.853      863.450
04/13/2014  17:36:00      101.876      217.592        3.342      120.181      164.847      111.514    14443.544    27174.500    12435.269        5.588        2.703      240.260      104.509        0.189      341.241       15.813      863.460
04/13/2014  17:37:00      169.932      184.984       -0.251      125.828      128.648       84.865    15832.707    16550.317     7202.001        5.133        1.979      251.189       81.666        0.106      341.272       15.866      863.451
04/13/2014  17:38:00      129.636      188.419       -6.494      141.080      122.610       85.504    19903.637    15033.227     7310.854        4.729        2.112      228.708       73.635        0.104      341.281       15.881      863.445
04/13/2014  17:39:00       34.441      271.023      -21.634      112.501      215.797       78.484    12656.541    46568.509     6159.727        7.023        3.269      273.203      101.167        0.137      341.337       15.978      863.455
04/13/2014  17:40:00       73.492      386.238      -56.028       83.865      137.371       76.490     7033.362    18870.700     5850.702        9.473        1.588      393.168       73.966        0.035      341.218       15.774      863.461
04/13/2014  17:41:00       94.446      157.833       -1.457       80.415       88.161       69.063     6466.530     7772.431     4769.707        2.642        0.950      183.933       52.861        0.083      341.223       15.785      863.427
04/13/2014  17:42:00      146.016      131.157       -1.293      115.643       78.680       62.806    13373.290     6190.475     3944.629        3.101        1.175      196.273       41.764        0.045      341.341       15.984      863.403
04/13/2014  17:43:00      -95.678      157.274      -29.610      112.137       61.017       42.796    12574.664     3723.020     1831.491        2.644        0.906      184.090       31.860        0.030      341.636       16.483      863.430
04/13/2014  17:44:00     -141.921      186.878      -24.855      101.158       95.901       59.090    10233.007     9197.039     3491.655        3.930        1.146      234.660       49.501        0.044      341.530       16.303      863.437
04/13/2014  17:45:00      -94.658      374.082      -49.018       89.844      135.480       53.607     8071.889    18354.852     2873.673        9.029        1.465      385.872       57.648        0.022      341.362       16.019      863.439
04/13/2014  17:46:00       -3.079      274.242       -9.551      151.382      114.244       73.568    22916.443    13051.734     5412.198        5.834        2.069      274.260       60.435        0.049      341.373       16.037      863.441
04/13/2014  17:47:00       67.962      233.536      -18.810      108.149      155.880       95.324    11696.249    24298.513     9086.693        5.229        2.254      243.224      100.607        0.171      341.299       15.912      863.460
04/13/2014  17:48:00      113.728      232.554      -15.308      144.154      126.534       90.045    20780.455    16010.779     8108.060        5.607        2.245      258.874       68.191        0.069      341.133       15.632      863.459
04/13/2014  17:49:00       59.427      251.344      -19.741       86.372      163.094       75.217     7460.037    26599.509     5657.523        5.340        1.986      258.274       90.979        0.124      341.109       15.591      863.494
04/13/2014  17:50:00       95.309      210.946        2.468      106.475      146.029       85.346    11336.988    21324.560     7283.926        4.676        1.997      231.478       87.133        0.142      341.210       15.764      863.486
04/13/2014  17:51:00       83.249      200.784      -21.510      112.628      121.008       66.923    12684.983    14642.902     4478.656        3.975        1.590      217.358       66.261        0.093      341.191       15.730      863.490
04/13/2014  17:52:00       29.681      296.660      -49.798       71.277      127.069       60.346     5080.472    16146.519     3641.593        5.811        1.243      298.141       67.980        0.052      341.240       15.813      863.514
04/13/2014  17:53:00       70.453      203.335      -16.110       92.716      200.343       66.022     8596.292    40137.330     4358.966        4.982        2.655      215.195       81.913        0.145      341.311       15.934      863.514
04/13/2014  17:54:00      173.372      166.689       11.128      112.633      106.090       75.482    12686.304    11255.026     5697.495        4.380        1.482      240.506       69.040        0.082      341.368       16.029      863.527
04/13/2014  17:55:00      113.546      241.311      -16.774      140.163      149.489       91.166    19645.601    22346.857     8311.275        6.084        2.515      266.690       94.124        0.125      341.228       15.792      863.537
04/13/2014  17:56:00      171.728      254.168       -3.332      158.380      166.256       89.346    25084.150    27640.895     7982.790        7.739        3.035      306.744       84.840        0.076      341.162       15.682      863.543
04/13/2014  17:57:00      160.931      177.598        7.010      128.993      135.248       98.658    16639.303    18292.103     9733.474        5.107        2.233      239.666       91.168        0.145      341.091       15.561      863.544
04/13/2014  17:58:00      155.419      165.497        5.731      112.930      110.450       62.291    12753.093    12199.270     3880.218        4.020        1.442      227.034       49.968        0.048      341.121       15.611      863.532
04/13/2014  17:59:00      205.883      172.093        8.579      145.715       92.989       88.110    21232.935     8647.033     7763.389        5.485        1.882      268.335       68.246        0.065      341.063       15.513      863.547
04/13/2014  18:00:00      180.331      118.744       43.150       96.842       62.500       62.245     9378.384     3906.303     3874.471        3.282        0.858      215.915       36.050        0.028      341.187       15.724      863.538
04/13/2014  18:01:00       82.773      211.970      -10.042      113.277       97.164       58.692    12831.776     9440.775     3444.808        3.880        1.286      227.558       37.135        0.027      341.215       15.770      863.541
04/13/2014  18:02:00      207.498      201.954      -13.593      142.510      120.015       88.029    20309.013    14403.595     7749.131        6.324        2.123      289.553       81.485        0.079      341.074       15.532      863.543
04/13/2014  18:03:00      154.827      225.386       -7.586      111.232      143.330       81.743    12372.596    20543.546     6681.878        5.720        1.980      273.442       82.995        0.092      341.161       15.678      863.550
04/13/2014  18:04:00       88.321      147.177        5.210      108.046      110.892       81.862    11673.849    12297.134     6701.395        3.007        1.534      171.644       67.702        0.156      341.254       15.837      863.567
04/13/2014  18:05:00       71.302      191.099      -15.947       79.814      120.000       57.411     6370.232    14399.958     3296.059        3.296        1.203      203.968       59.509        0.085      341.340       15.982      863.568
04/13/2014  18:06:00      228.772      127.791       22.436      138.169       70.944       79.114    19090.713     5033.090     6258.994        4.977        1.519      262.044       38.157        0.021      341.174       15.700      863.553
04/13/2014  18:07:00       34.832      144.460      -11.962       80.441      113.200       69.452     6470.763    12814.313     4823.629        2.316        1.205      148.600       68.426        0.212      341.323       15.955      863.560
04/13/2014  18:08:00       36.236      219.343      -17.298      134.751      137.375       78.479    18157.709    18871.865     6158.886        4.645        2.159      222.316       73.734        0.110      341.316       15.942      863.568
04/13/2014  18:09:00       69.084      343.066      -39.761      103.733      128.092       65.489    10760.483    16407.534     4288.787        7.775        1.573      349.952       72.714        0.043      341.051       15.492      863.578
04/13/2014  18:10:00      -27.454      283.114      -39.718       80.214      116.336       39.323     6434.353    13534.009     1546.293        5.200        1.076      284.442       31.164        0.012      341.177       15.706      863.576
04/13/2014  18:11:00       52.100      245.124      -30.091       78.647       97.269       50.476     6185.329     9461.213     2547.873        4.095        0.910      250.600       53.200        0.045      341.242       15.817      863.572
04/13/2014  18:12:00       38.833      246.045      -37.171       66.832       89.658       50.744     4466.453     8038.484     2574.926        3.925        0.754      249.091       46.092        0.034      341.167       15.689      863.575
04/13/2014  18:13:00       -0.183      268.716      -29.516       80.954      147.817       55.708     6553.528    21849.845     3103.342        5.229        1.575      268.717       53.649        0.040      341.145       15.651      863.587
04/13/2014  18:14:00        5.864      307.260      -34.203       84.500      141.490       67.591     7140.243    20019.523     4568.494        6.366        1.586      307.316       73.212        0.057      341.059       15.505      863.584
04/13/2014  18:15:00      -54.219      333.081      -47.322       98.775      137.035       52.962     9756.481    18778.634     2804.999        7.372        1.567      337.465       53.104        0.025      341.082       15.545      863.584
04/13/2014  18:16:00      -77.230      218.505      -28.997       96.581      132.911       50.494     9327.890    17665.358     2549.693        4.204        1.477      231.752       63.572        0.075      341.176       15.704      863.602
04/13/2014  18:17:00        6.543      293.028      -39.962      100.852      151.965       73.067    10171.151    23093.318     5338.714        6.305        1.930      293.101       74.245        0.064      341.132       15.628      863.613
04/13/2014  18:18:00       64.627      150.379       -4.744      117.525      103.155       54.254    13812.049    10641.016     2943.549        2.710        1.370      163.678       51.348        0.098      341.121       15.613      863.612
04/13/2014  18:19:00      118.686      260.391      -22.809      118.437      175.223       77.159    14027.301    30703.054     5953.570        6.654        2.534      286.164       89.697        0.098      341.026       15.448      863.616
04/13/2014  18:20:00      154.729      146.489       23.656      150.015      130.496       87.459    22504.390    17029.152     7649.101        4.656        2.359      213.073       69.871        0.108      341.063       15.514      863.622
04/13/2014  18:21:00       59.196      280.227      -40.641       85.314      150.717       63.419     7278.496    22715.661     4021.920        5.884        1.701      286.411       74.455        0.068      341.084       15.548      863.644
04/13/2014  18:22:00      154.826      169.864       26.367      117.278      114.692       65.697    13754.238    13154.312     4316.078        4.237        1.561      229.837       66.553        0.084      341.087       15.554      863.665
04/13/2014  18:23:00      189.802      152.953       18.180      137.159       92.567       75.451    18812.523     8568.641     5692.828        4.641        1.654      243.761       48.842        0.040      340.980       15.373      863.669
04/13/2014  18:24:00      174.247      249.415        4.292      141.243      133.878       98.022    19949.699    17923.357     9608.331        7.003        2.374      304.253       86.961        0.082      340.893       15.224      863.671
04/13/2014  18:25:00       93.427      300.076       -7.042      117.575      159.658       98.959    13823.901    25490.786     9792.877        7.396        2.455      314.284       91.994        0.086      340.864       15.174      863.691
04/13/2014  18:26:00      114.630      248.588       -7.232      141.848      139.132       86.852    20120.973    19357.768     7543.289        6.100        2.351      273.745       70.956        0.067      340.851       15.154      863.707
04/13/2014  18:27:00       66.384      199.416      -14.871       92.873      122.081       81.245     8625.340    14903.756     6600.728        3.726        1.506      210.175       70.935        0.114      340.906       15.247      863.716
04/13/2014  18:28:00      100.122      208.900      -26.932       87.798      128.142       63.074     7708.454    16420.365     3978.289        4.124        1.405      231.654       68.579        0.088      340.974       15.362      863.694
04/13/2014  18:29:00       94.584      150.435       -5.200       82.119      108.188       56.713     6743.458    11704.568     3216.354        2.663        1.083      177.699       58.977        0.110      341.035       15.466      863.713
04/13/2014  18:30:00      105.525      154.952      -20.979       88.913       97.395       61.839     7905.438     9485.794     3824.101        2.840        1.061      187.471       43.650        0.054      340.981       15.375      863.732
04/13/2014  18:31:00      124.665      157.900        6.969      120.076      106.959       74.051    14418.215    11440.207     5483.509        3.593        1.567      201.181       57.364        0.081      340.882       15.207      863.714
04/13/2014  18:32:00      157.854      178.668       17.986      167.089       93.538       73.577    27918.567     8749.382     5413.557        4.961        2.104      238.411       78.190        0.108      340.883       15.210      863.729
04/13/2014  18:33:00       69.992      345.959      -43.967       98.576      156.012       71.675     9717.265    24339.780     5137.354        8.285        1.960      352.968       77.297        0.048      340.830       15.120      863.738
04/13/2014  18:34:00       29.389      409.839      -48.943      106.951      181.857       79.232    11438.428    33072.047     6277.707       11.100        2.539      410.892       95.483        0.054      340.776       15.028      863.735
04/13/2014  18:35:00       90.834      243.850      -24.101       78.050      115.052       58.934     6091.825    13236.903     3473.172        4.554        1.140      260.218       63.038        0.059      340.838       15.131      863.728
04/13/2014  18:36:00      142.146      206.966       -3.092      116.898       97.054       81.334    13665.073     9419.437     6615.220        4.637        1.485      251.078       68.360        0.074      340.842       15.138      863.744
04/13/2014  18:37:00       28.944      249.207      -30.004       63.078      136.207       56.965     3978.792    18552.275     3245.010        4.480        1.289      250.882       70.758        0.080      340.902       15.241      863.756
04/13/2014  18:38:00       80.156      251.936      -14.216      112.373      117.694       78.578    12627.712    13851.823     6174.554        5.137        1.633      264.380       71.734        0.074      340.850       15.152      863.765
04/13/2014  18:39:00       42.276      314.020      -26.180       93.168      185.012       84.543     8680.259    34229.392     7147.597        7.556        2.503      316.853       93.633        0.087      340.768       15.014      863.776
04/13/2014  18:40:00       43.754      361.859      -34.494       99.336      154.765       84.356     9867.566    23952.269     7115.891        8.748        2.047      364.495       89.610        0.060      340.738       14.963      863.784
04/13/2014  18:41:00       93.233      196.332       -1.463      110.473      142.001       97.352    12204.378    20164.232     9477.427        4.454        2.092      217.345       97.287        0.200      340.711       14.918      863.793
04/13/2014  18:42:00       90.634      282.633      -20.835      133.893      128.602       88.562    17927.334    16538.582     7843.206        6.541        2.115      296.810       77.836        0.069      340.695       14.888      863.791
04/13/2014  18:43:00      143.510      250.220       -4.312      130.551      170.748      105.021    17043.606    29155.015    11029.327        7.021        2.861      288.453      106.672        0.137      340.660       14.831      863.804
04/13/2014  18:44:00      120.634      264.662      -20.072      142.761      160.408      102.263    20380.819    25730.575    10457.799        7.077        2.828      290.859       97.019        0.111      340.627       14.776      863.807
04/13/2014  18:45:00       91.677      228.858      -16.856      115.249      167.418       94.334    13282.327    28028.790     8898.893        5.563        2.511      246.537       98.810        0.161      340.639       14.795      863.813
04/13/2014  18:46:00       77.626      308.926      -29.325       96.695      143.936       78.891     9349.928    20717.571     6223.786        6.930        1.815      318.530       83.622        0.069      340.655       14.822      863.822
04/13/2014  18:47:00       69.140      217.031       -3.235      132.099      155.916       97.090    17450.137    24309.795     9426.406        5.153        2.559      227.778       93.066        0.167      340.648       14.809      863.825
04/13/2014  18:48:00       67.830      254.552       -2.912      100.494      169.072       92.003    10099.003    28585.474     8464.584        5.827        2.357      263.434       98.983        0.141      340.635       14.788      863.827
04/13/2014  18:49:00       72.494      268.010      -17.020      101.110      156.225       79.573    10223.229    24406.353     6331.810        5.916        2.048      277.641       82.105        0.087      340.650       14.814      863.823
04/13/2014  18:50:00       67.688      339.859      -33.876       98.157      212.974       96.595     9634.834    45357.966     9330.670        9.277        3.216      346.534      116.514        0.113      340.605       14.737      863.834
04/13/2014  18:51:00       37.863      359.698      -42.494       96.297      194.509       82.833     9273.197    37833.895     6861.299        9.328        2.698      361.685      106.642        0.087      340.583       14.699      863.840
04/13/2014  18:52:00       11.059      311.868      -26.750       97.530      176.737       72.549     9512.067    31235.905     5263.325        7.205        2.301      312.064       85.812        0.076      340.563       14.668      863.846
04/13/2014  18:53:00       50.737      322.559      -34.311      100.404      173.671       84.922    10080.978    30161.742     7211.788        7.762        2.373      326.525       96.748        0.088      340.580       14.695      863.844
04/13/2014  18:54:00      103.626      223.954      -11.766      115.114      133.580       79.735    13251.196    17843.561     6357.611        4.923        1.873      246.766       83.943        0.116      340.585       14.704      863.847
04/13/2014  18:55:00       82.119      165.328       10.719      138.191      153.434       85.413    19096.749    23542.115     7295.306        4.205        2.497      184.599       87.907        0.227      340.548       14.643      863.844
04/13/2014  18:56:00       39.987      254.400      -23.668       92.539      179.021       84.654     8563.435    32048.649     7166.341        5.732        2.389      257.523      106.138        0.170      340.554       14.654      863.858
04/13/2014  18:57:00      -12.946      312.153      -41.837       76.058      102.884       49.433     5784.866    10585.117     2443.586        5.908        0.941      312.422       30.728        0.010      340.560       14.663      863.841
04/13/2014  18:58:00       58.500      304.512      -23.680       90.415      213.739       86.648     8174.928    45684.524     7507.907        7.903        3.068      310.080      113.429        0.134      340.523       14.601      863.850
04/13/2014  18:59:00       99.970      330.581      -10.577      132.705      150.607      109.391    17610.711    22682.535    11966.340        8.581        2.613      345.366      108.666        0.099      340.489       14.541      863.857
04/13/2014  19:00:00      101.405      342.242      -22.427      113.220      190.614      102.200    12818.693    36333.583    10444.763        9.374        2.980      356.949      112.052        0.099      340.477       14.520      863.854
04/13/2014  19:01:00       70.308      257.226      -31.435       89.068      121.868       73.138     7933.145    14851.763     5349.224        5.011        1.407      266.662       71.910        0.073      340.480       14.525      863.867
04/13/2014  19:02:00      104.626      245.824      -20.228      118.619      152.066       84.360    14070.576    23124.148     7116.640        5.804        2.216      267.163       80.702        0.091      340.459       14.490      863.877
04/13/2014  19:03:00       62.779      221.491       -5.466       84.970      150.408       90.937     7219.923    22622.469     8269.470        4.556        1.906      230.216       83.977        0.133      340.452       14.479      863.892
04/13/2014  19:04:00      102.926      226.675      -23.120      122.769      158.531       85.585    15072.311    25132.111     7324.769        5.501        2.376      248.949       72.124        0.084      340.437       14.454      863.893
04/13/2014  19:05:00       45.825      264.025      -32.118       82.852      149.871       65.091     6864.502    22461.167     4236.811        5.319        1.678      267.972       80.200        0.090      340.451       14.477      863.912
04/13/2014  19:06:00       95.481      178.274       11.381      107.790      116.068       96.465    11618.617    13471.818     9305.522        3.771        1.720      202.233       81.932        0.164      340.422       14.428      863.921
04/13/2014  19:07:00      110.543      247.822       -5.134      107.833      143.849       82.511    11627.969    20692.411     6808.064        5.639        1.956      271.358       84.683        0.097      340.428       14.436      863.925
04/13/2014  19:08:00       35.082      199.883      -20.388       76.802       97.158       52.835     5898.552     9439.684     2791.556        2.986        0.906      202.939       54.366        0.072      340.441       14.460      863.948
04/13/2014  19:09:00       88.385      139.360       -9.998       71.679       79.397       54.545     5137.894     6303.863     2975.141        2.087        0.721      165.025       54.897        0.111      340.438       14.456      863.958
04/13/2014  19:10:00       94.397      107.431       -3.739       79.639       61.667       42.837     6342.414     3802.820     1835.039        1.622        0.599      143.011       33.049        0.053      340.410       14.411      863.974
04/13/2014  19:11:00       97.805      115.438       18.111      103.944       94.137       61.468    10804.455     8861.848     3778.285        2.333        1.172      151.300       50.389        0.111      340.401       14.394      863.971
04/13/2014  19:12:00      124.801      165.245       14.508      135.122      103.174       82.655    18258.015    10644.795     6831.807        3.941        1.787      207.078       64.583        0.097      340.370       14.343      863.975
04/13/2014  19:13:00      149.732      274.639      -21.902      146.179      122.498       73.810    21368.171    15005.831     5447.908        7.007        2.091      312.804       78.628        0.063      340.362       14.328      863.979
04/13/2014  19:14:00      136.982       80.861       39.853      130.658       71.679       65.585    17071.563     5137.819     4301.327        2.670        1.326      159.068       38.702        0.059      340.314       14.247      863.988
04/13/2014  19:15:00      134.144      145.362       11.362      100.773       98.390       80.114    10155.103     9680.495     6418.297        3.275        1.313      197.800       62.680        0.100      340.318       14.253      863.994
04/13/2014  19:16:00      147.348      172.799        8.348      119.795      107.704       88.116    14350.933    11600.247     7764.466        4.267        1.686      227.092       64.345        0.080      340.293       14.209      863.993
04/13/2014  19:17:00       96.582      129.252       26.373      108.949      107.997       97.034    11869.871    11663.268     9415.504        2.983        1.647      161.351       79.589        0.243      340.269       14.169      863.989
04/13/2014  19:18:00      114.127      201.850       -0.926      111.636      129.614      101.265    12462.700    16799.904    10254.694        4.664        1.976      231.880       88.790        0.147      340.260       14.156      863.996
04/13/2014  19:19:00       37.342      181.847      -26.602      109.418      111.110       64.213    11972.291    12345.486     4123.295        3.180        1.422      185.641       55.264        0.089      340.234       14.110      864.003
04/13/2014  19:20:00       66.624      152.590       -8.154       89.992       93.500       69.217     8098.533     8742.305     4791.035        2.471        1.082      166.501       64.274        0.149      340.219       14.087      864.007
04/13/2014  19:21:00       52.641      185.591      -15.567       74.161      104.100       62.694     5499.793    10836.888     3930.539        2.886        1.013      192.912       64.889        0.113      340.227       14.097      864.015
04/13/2014  19:22:00       57.989      215.024       -4.836       89.097      151.304       72.907     7938.245    22892.892     5315.406        4.288        1.807      222.706       81.024        0.132      340.217       14.083      864.020
04/13/2014  19:23:00       89.004      265.272      -18.071       73.574      168.407       92.028     5413.062    28361.059     8469.228        6.042        2.112      279.805      104.363        0.139      340.220       14.088      864.024
04/13/2014  19:24:00       88.149      218.151      -21.568       66.612      113.826       65.337     4437.184    12956.446     4268.887        3.874        1.083      235.288       70.991        0.091      340.211       14.072      864.028
04/13/2014  19:25:00       59.178      177.484       -5.417       72.970      106.037       65.225     5324.675    11243.805     4254.258        2.792        1.041      187.090       61.771        0.109      340.173       14.009      864.036
04/13/2014  19:26:00       80.588      185.195       -4.303       88.320      102.179       73.119     7800.441    10440.587     5346.315        3.219        1.179      201.970       62.394        0.095      340.155       13.977      864.049
04/13/2014  19:27:00       25.629      303.142      -48.743       81.453      118.238       53.076     6634.614    13980.144     2817.106        5.918        1.172      304.224       63.196        0.043      340.158       13.982      864.066
04/13/2014  19:28:00       23.941      210.443      -36.562       64.456       89.819       40.453     4154.548     8067.473     1636.449        3.002        0.693      211.801       44.886        0.045      340.136       13.947      864.071
04/13/2014  19:29:00       43.810      168.726      -11.412       62.446      119.048       58.153     3899.492    14172.498     3381.757        2.598        1.073      174.321       70.763        0.165      340.112       13.908      864.080
04/13/2014  19:30:00       53.856      141.859      -21.748       71.551      146.053       48.741     5119.527    21331.462     2375.691        2.616        1.441      151.738       71.378        0.221      340.072       13.839      864.083
04/13/2014  19:31:00       93.052      285.634      -35.585       82.581      128.426       83.346     6819.617    16493.142     6946.517        6.088        1.513      300.409       80.331        0.072      340.099       13.882      864.084
04/13/2014  19:32:00       39.302       98.392       -0.357       91.474       83.634       54.972     8367.445     6994.626     3021.889        1.480        0.919      105.951       46.366        0.192      340.053       13.808      864.102
04/13/2014  19:33:00        3.724      226.069      -31.793       51.049       88.861       41.008     2605.952     7896.267     1681.669        3.216        0.609      226.100       53.814        0.057      340.111       13.903      864.109
04/13/2014  19:34:00       76.990      239.103      -40.519       87.315       68.513       38.053     7623.887     4694.071     1448.044        3.925        0.688      251.193       38.381        0.023      340.081       13.850      864.119
04/13/2014  19:35:00       72.915      239.081      -40.662       60.415       98.198       56.065     3650.021     9642.886     3143.235        4.028        0.822      249.953       60.857        0.059      340.070       13.833      864.127
04/13/2014  19:36:00       43.678      170.150       -3.390       62.322      110.139       59.536     3884.021    12130.503     3544.548        2.521        0.978      175.667       58.699        0.112      340.023       13.755      864.136
04/13/2014  19:37:00       62.612      130.994      -10.456       59.602       82.077       48.836     3552.431     6736.711     2384.956        1.693        0.634      145.188       43.244        0.089      340.021       13.754      864.139
04/13/2014  19:38:00       88.393      164.696        7.688       79.469       99.468       74.290     6315.339     9893.846     5518.983        2.836        1.086      186.917       66.392        0.126      339.992       13.702      864.144
04/13/2014  19:39:00       45.842      193.038      -14.058       84.328      124.049       70.806     7111.266    15388.224     5013.473        3.353        1.376      198.407       68.204        0.118      339.985       13.692      864.154
04/13/2014  19:40:00       70.238      153.054       13.536      105.920      101.170       73.818    11219.110    10235.325     5449.169        2.772        1.345      168.401       63.532        0.142      339.988       13.698      864.149
04/13/2014  19:41:00       20.861      142.622      -14.021       55.185       68.265       28.655     3045.358     4660.102      821.122        1.475        0.426      144.140       25.328        0.031      339.985       13.693      864.159
04/13/2014  19:42:00       33.941      176.347       -7.648       66.572      108.880       48.615     4431.854    11854.753     2363.380        2.548        0.932      179.583       54.780        0.093      339.973       13.671      864.162
04/13/2014  19:43:00       36.723      206.576      -18.622       92.296      130.583       61.452     8518.625    17051.852     3776.315        3.685        1.467      209.815       65.525        0.098      339.969       13.663      864.169
04/13/2014  19:44:00       45.532      241.458      -35.145       77.404      114.598       54.802     5991.356    13132.670     3003.226        4.186        1.106      245.714       66.662        0.074      339.949       13.630      864.174
04/13/2014  19:45:00       35.662      176.638      -32.675       53.433      111.031       42.235     2855.078    12327.789     1783.815        2.525        0.848      180.202       53.827        0.089      339.921       13.584      864.180
04/13/2014  19:46:00       26.380      222.066      -21.916       67.168      100.310       51.164     4511.600    10062.168     2617.774        3.384        0.860      223.628       46.815        0.044      339.930       13.598      864.186
04/13/2014  19:47:00       48.649      162.283      -24.759       55.609       79.828       46.950     3092.391     6372.505     2204.335        2.049        0.583      169.418       49.546        0.086      339.881       13.517      864.178
04/13/2014  19:48:00       59.548      198.956      -36.014       62.553       82.638       38.906     3912.833     6829.108     1513.702        2.834        0.613      207.677       42.532        0.042      339.892       13.534      864.187
04/13/2014  19:49:00       41.530      198.657      -14.455       69.887      121.395       69.326     4884.242    14736.728     4806.156        3.291        1.221      202.952       81.787        0.162      339.902       13.551      864.194
04/13/2014  19:50:00       21.293      199.850      -24.658       73.132       80.454       47.142     5348.277     6472.816     2222.413        2.752        0.702      200.981       46.769        0.054      339.912       13.568      864.208
04/13/2014  19:51:00       34.455      207.544      -22.565       56.089      100.926       35.478     3146.031    10185.970     1258.661        2.968        0.730      210.384       36.211        0.030      339.894       13.538      864.226
04/13/2014  19:52:00       16.291      178.583      -27.659       63.030       97.380       49.462     3972.733     9482.801     2446.493        2.441        0.795      179.325       50.881        0.081      339.900       13.549      864.242
04/13/2014  19:53:00       15.621      224.290      -27.162       69.114       99.158       46.701     4776.751     9832.309     2180.967        3.404        0.840      224.833       52.752        0.055      339.935       13.607      864.268
04/13/2014  19:54:00       61.474      133.075       15.795       89.754       86.792       60.875     8055.733     7532.791     3705.759        2.051        0.965      146.588       61.074        0.174      339.862       13.485      864.286
04/13/2014  19:55:00        6.961      170.155      -40.269       45.573       73.552       29.685     2076.889     5409.914      881.187        1.949        0.418      170.297       34.225        0.040      339.961       13.653      864.299
04/13/2014  19:56:00       29.157      151.551      -18.924       68.088       93.832       37.016     4636.005     8804.404     1370.219        1.949        0.741      154.330       45.279        0.086      339.864       13.486      864.332
04/13/2014  19:57:00        2.209      257.773      -38.643       70.827       96.309       37.660     5016.423     9275.455     1418.262        4.182        0.786      257.782       44.087        0.029      339.942       13.615      864.359
04/13/2014  19:58:00        1.993      111.666      -15.152       38.332       46.379       24.213     1469.334     2151.021      586.285        0.845        0.210      111.684       19.535        0.031      339.898       13.545      864.374
04/13/2014  19:59:00       20.403      210.966      -34.656       57.751       89.099       37.073     3335.203     7938.643     1374.393        2.938        0.632      211.951       44.363        0.044      339.885       13.524      864.398
04/13/2014  20:00:00      -41.989      227.125      -31.620       47.703       51.094       29.796     2275.572     2610.626      887.780        3.006        0.289      230.974       25.909        0.013      339.933       13.604      864.418
04/13/2014  20:01:00       -8.709      120.134      -15.948       43.416       80.268       28.016     1884.937     6443.032      784.916        1.194        0.456      120.450       40.738        0.114      339.928       13.598      864.431
04/13/2014  20:02:00       26.914      107.370      -15.007       31.137       44.712       25.234      969.507     1999.204      636.760        0.804        0.180      110.691       21.817        0.039      339.846       13.458      864.452
04/13/2014  20:03:00      -22.379      124.585      -20.028       57.555       72.536       24.464     3312.525     5261.454      598.495        1.280        0.459      126.579       27.549        0.047      339.823       13.420      864.471
04/13/2014  20:04:00      -22.418      159.611      -27.235       64.578       45.230       21.209     4170.259     2045.720      449.813        1.669        0.333      161.178       19.348        0.014      339.854       13.471      864.481
04/13/2014  20:05:00      -17.801      193.031      -30.873       48.294       47.773       28.369     2332.313     2282.287      804.772        2.197        0.271      193.850       21.387        0.012      339.859       13.480      864.489
04/13/2014  20:06:00      -64.501      151.847      -22.397       61.396      101.740       41.396     3769.527    10350.958     1713.619        2.177        0.792      164.979       49.764        0.091      339.934       13.607      864.488
04/13/2014  20:07:00      -36.551      248.671      -37.069       60.407       75.424       39.423     3649.032     5688.761     1554.179        3.772        0.545      251.343       40.622        0.026      339.919       13.579      864.494
04/13/2014  20:08:00      -49.318      253.536      -40.395       62.373       66.242       38.302     3890.367     4388.034     1467.043        3.904        0.487      258.288       37.470        0.021      339.908       13.560      864.500
04/13/2014  20:09:00     -101.598      193.827      -30.085       57.059       79.598       44.859     3255.690     6335.828     2012.297        3.020        0.580      218.841       40.472        0.034      339.904       13.553      864.503
04/13/2014  20:10:00      -55.024      248.365      -43.708       65.217       64.921       34.388     4253.269     4214.778     1182.504        3.814        0.483      254.388       24.465        0.009      339.868       13.490      864.507
04/13/2014  20:11:00      -96.113      177.460      -34.637       70.643       78.076       37.557     4990.457     6095.935     1410.505        2.721        0.625      201.816       35.550        0.031      339.902       13.551      864.521
04/13/2014  20:12:00      -95.309      178.917      -29.555       62.625       82.621       34.659     3921.946     6826.209     1201.239        2.696        0.597      202.720       33.959        0.028      339.911       13.566      864.522
04/13/2014  20:13:00      -50.682      284.131      -43.547       87.613      143.065       48.395     7675.976    20467.710     2342.031        5.783        1.524      288.616       59.997        0.043      339.916       13.574      864.545
04/13/2014  20:14:00      -85.169      195.718      -19.195       90.969      137.122       65.172     8275.412    18802.423     4247.382        3.862        1.566      213.446       82.522        0.149      339.897       13.543      864.548
04/13/2014  20:15:00      -28.409      213.367      -40.568       47.253      123.815       30.811     2232.876    15330.203      949.313        3.324        0.926      215.250       39.584        0.034      339.868       13.493      864.560
04/13/2014  20:16:00      -60.037       77.311       -7.973       57.886       50.055       31.166     3350.796     2505.531      971.301        0.823        0.341       97.885       34.894        0.127      339.808       13.394      864.583
04/13/2014  20:17:00     -108.132       85.771      -28.633       33.986       34.486       20.461     1155.070     1189.290      418.669        1.132        0.138      138.019       17.725        0.016      339.804       13.390      864.601
04/13/2014  20:18:00     -174.438       82.522      -28.782       35.063       41.630       29.069     1229.402     1733.076      844.997        2.094        0.190      192.973       20.388        0.011      339.752       13.300      864.624
04/13/2014  20:19:00      -94.415       78.896       -7.750       53.115       49.629       33.003     2821.152     2463.000     1089.230        1.078        0.319      123.040       31.931        0.067      339.675       13.171      864.650
04/13/2014  20:20:00      -77.310       88.036      -17.366       48.242       48.788       26.660     2327.249     2380.279      710.761        0.972        0.271      117.163       22.705        0.038      339.658       13.142      864.677
04/13/2014  20:21:00      -73.523       88.248      -17.467       53.478       49.117       28.704     2859.943     2412.473      823.944        0.980        0.305      114.862       20.864        0.033      339.605       13.054      864.707
04/13/2014  20:22:00      -37.567      112.483       -5.234       45.315       53.510       25.246     2053.417     2863.311      637.385        0.982        0.278      118.590       17.555        0.022      339.575       13.003      864.719
04/13/2014  20:23:00     -122.173      176.523      -27.570       56.533       54.432       32.010     3195.995     2962.874     1024.617        2.701        0.359      214.678       26.541        0.015      339.539       12.938      864.750
04/13/2014  20:24:00     -112.902      158.237      -24.373       59.587       60.484       38.186     3550.609     3658.357     1458.202        2.352        0.433      194.386       37.164        0.037      339.578       13.005      864.766
04/13/2014  20:25:00      -59.016      115.515      -23.528       62.925       38.781       20.753     3959.549     1503.995      430.675        1.164        0.295      129.718       19.446        0.022      339.605       13.053      864.803
04/13/2014  20:26:00      -68.143      110.680      -15.478       41.053       48.622       33.119     1685.346     2364.051     1096.861        1.114        0.257      129.975       29.844        0.053      339.539       12.941      864.816
04/13/2014  20:27:00      -74.486       88.263      -18.746       55.219       60.891       39.816     3049.181     3707.732     1585.343        1.101        0.417      115.493       37.185        0.104      339.614       13.069      864.852
04/13/2014  20:28:00      -75.949      128.573      -12.323       54.797       68.714       39.063     3002.670     4721.647     1525.891        1.585        0.463      149.329       40.183        0.072      339.528       12.922      864.871
04/13/2014  20:29:00      -68.483      127.244       -1.145       53.790       79.706       42.636     2893.375     6353.111     1817.802        1.597        0.553      144.502       31.663        0.048      339.507       12.888      864.897
04/13/2014  20:30:00      -86.668      111.049      -19.322       43.365       57.563       38.298     1880.503     3313.493     1466.726        1.344        0.333      140.866       33.593        0.057      339.469       12.822      864.914
04/13/2014  20:31:00     -104.610      127.962      -22.247       57.780       69.310       40.856     3338.566     4803.889     1669.176        1.881        0.491      165.280       43.086        0.068      339.491       12.860      864.933
04/13/2014  20:32:00      -72.398       86.218      -17.052       40.756       73.964       29.903     1661.017     5470.611      894.212        1.049        0.401      112.584       34.785        0.095      339.521       12.911      864.960
04/13/2014  20:33:00      -79.295       74.923      -20.403       65.874       47.801       27.811     4339.435     2284.943      773.453        0.986        0.370      109.092       26.473        0.059      339.556       12.971      864.973
04/13/2014  20:34:00      -59.827      138.430      -15.149       49.422       63.362       36.453     2442.552     4014.742     1328.819        1.538        0.389      150.805       22.496        0.022      339.535       12.935      864.997
04/13/2014  20:35:00      -93.949      123.507      -12.337       49.934       81.288       38.200     2493.414     6607.716     1459.226        1.739        0.528      155.179       40.424        0.068      339.475       12.833      865.010
04/13/2014  20:36:00      -82.953      131.945      -14.882       47.300       78.983       36.959     2237.276     6238.270     1365.985        1.717        0.492      155.855       31.392        0.041      339.474       12.831      865.019
04/13/2014  20:37:00      -29.097       33.702        6.835       47.064       58.819       28.896     2215.013     3459.688      834.956        0.427        0.325       44.525       40.430        0.825      339.438       12.771      865.027
04/13/2014  20:38:00      -97.927       82.887      -23.388       40.012       37.530       26.560     1600.981     1408.503      705.440        1.036        0.186      128.296       18.582        0.021      339.547       12.956      865.033
04/13/2014  20:39:00      -87.124       65.306      -22.243       48.364       40.089       24.340     2339.119     1607.156      592.445        0.844        0.227      108.883       18.206        0.028      339.555       12.969      865.043
04/13/2014  20:40:00     -118.120      126.302      -30.792       48.142       39.266       32.441     2317.686     1541.787     1052.410        1.788        0.246      172.929       29.474        0.029      339.567       12.987      865.058
04/13/2014  20:41:00      -73.397      112.651      -23.722       46.619       48.459       31.083     2173.337     2348.287      966.124        1.206        0.274      134.452       25.709        0.037      339.533       12.930      865.084
04/13/2014  20:42:00     -108.229      148.997      -28.584       37.761       58.773       36.418     1425.888     3454.297     1326.276        2.047        0.310      184.157       30.718        0.028      339.529       12.922      865.100
04/13/2014  20:43:00      -63.446      119.217      -23.276       37.783       46.431       29.919     1427.532     2155.865      895.175        1.163        0.224      135.049       27.152        0.040      339.476       12.836      865.128
04/13/2014  20:44:00      -66.885      119.298      -26.334       44.175       86.927       25.292     1951.427     7556.302      639.701        1.477        0.507      136.769       15.883        0.013      339.617       13.073      865.140
04/13/2014  20:45:00      -45.986       84.964      -18.758       50.970       57.693       26.884     2597.984     3328.439      722.751        0.817        0.332       96.611       27.519        0.081      339.526       12.919      865.153
04/13/2014  20:46:00      -26.247      106.436      -17.731       32.450       37.387       24.328     1052.996     1397.783      591.865        0.769        0.152      109.624       22.572        0.042      339.504       12.883      865.172
04/13/2014  20:47:00       -1.588      141.880      -23.324       40.092       54.096       19.075     1607.356     2926.338      363.860        1.279        0.245      141.889       10.922        0.006      339.414       12.731      865.176
04/13/2014  20:48:00       -9.907      134.661      -16.430       52.680       47.398       25.990     2775.219     2246.557      675.454        1.210        0.285      135.025       24.554        0.033      339.459       12.805      865.192
04/13/2014  20:49:00      -63.599       68.885       -7.818       39.761       50.006       30.625     1580.924     2500.594      937.914        0.693        0.251       93.755       30.919        0.109      339.477       12.837      865.202
04/13/2014  20:50:00      -15.885      121.023      -27.226       34.458       28.218       12.626     1187.348      796.265      159.418        0.889        0.107      122.061       10.978        0.008      339.433       12.763      865.206
04/13/2014  20:51:00      -43.084      103.202      -17.250       48.205       41.426       24.452     2323.768     1716.151      597.885        0.872        0.232      111.834       20.916        0.035      339.489       12.856      865.230
04/13/2014  20:52:00      -10.935      170.945      -29.196       36.592       38.537       22.559     1339.009     1485.121      508.903        1.676        0.167      171.294       26.908        0.025      339.443       12.779      865.246
04/13/2014  20:53:00      -13.409      119.188      -25.103       22.268       36.343       14.091      495.847     1320.816      198.552        0.852        0.101      119.940        9.649        0.006      339.428       12.755      865.270
04/13/2014  20:54:00        9.736       55.849      -10.515       19.171       23.827       16.153      367.532      567.711      260.929        0.226        0.060       56.691       13.946        0.061      339.419       12.741      865.305
04/13/2014  20:55:00        9.894        9.261       -8.717       15.061       13.749       10.621      226.829      189.031      112.798        0.039        0.026       13.552        9.438        0.485      339.270       12.489      865.314
04/13/2014  20:56:00       17.852       -2.789        3.252        7.504        8.904        9.334       56.307       79.276       87.132        0.028        0.011       18.069        5.501        0.093      339.286       12.516      865.323
04/13/2014  20:57:00        4.654        0.504       -3.425       11.330       10.004        8.974      128.362      100.088       80.538        0.017        0.015        4.681        6.501        1.929      339.281       12.506      865.348
04/13/2014  20:58:00       21.562        1.751        4.877        8.492        6.726        5.878       72.106       45.240       34.551        0.032        0.008       21.633        4.065        0.035      339.371       12.661      865.358
04/13/2014  20:59:00       38.316       -9.016       18.869       20.478       13.815       19.575      419.349      190.865      383.178        0.145        0.050       39.362       13.892        0.125      339.391       12.693      865.373
04/13/2014  21:00:00       22.038        4.352       14.359       16.513        8.466       11.540      272.666       71.676      133.171        0.059        0.024       22.464        9.070        0.163      339.109       12.216      865.390
04/13/2014  21:01:00       15.066      -17.869        0.098       22.931       18.741       15.084      525.831      351.237      227.536        0.083        0.055       23.373        1.909        0.007      339.366       12.651      865.413
04/13/2014  21:02:00        5.963      -11.473        5.768       10.507       13.901       12.212      110.387      193.250      149.128        0.033        0.023       12.930       10.483        0.657      339.421       12.745      865.423
04/13/2014  21:03:00       13.314        0.071       -1.284       10.984       21.339       12.160      120.649      455.361      147.874        0.045        0.036       13.315        8.629        0.420      339.210       12.388      865.437
04/13/2014  21:04:00        1.083        4.069       12.172       13.299       16.282       13.647      176.851      265.099      186.247        0.040        0.031        4.211        4.792        1.295      339.134       12.259      865.457
04/13/2014  21:05:00        4.060       23.199       23.102       13.843       16.235       16.341      191.618      263.586      267.027        0.091        0.036       23.552       10.008        0.181      339.234       12.429      865.474
04/13/2014  21:06:00      -18.729      -13.566       -3.273       19.152       14.214       11.521      366.814      202.034      132.742        0.062        0.035       23.126       13.087        0.320      339.398       12.702      865.495
04/13/2014  21:07:00       -8.670        4.153       11.094       22.605       13.717       12.391      510.967      188.157      153.531        0.053        0.043        9.613       13.077        1.851      339.277       12.501      865.509
04/13/2014  21:08:00      -19.868      -29.869        9.245       36.786       21.343       16.836     1353.191      455.527      283.460        0.173        0.105       35.873       14.575        0.165      339.352       12.627      865.523
04/13/2014  21:09:00        4.983      -38.547        2.299       19.529       22.338       18.195      381.383      498.972      331.069        0.136        0.061       38.868       14.295        0.135      339.329       12.590      865.538
04/13/2014  21:10:00       -9.781      -42.449        2.118       33.545       30.797       22.312     1125.282      948.428      497.824        0.224        0.129       43.562       14.605        0.112      339.356       12.633      865.563
04/13/2014  21:11:00      -97.197      -90.270       -1.839       27.620       23.308       19.936      762.864      543.267      397.449        0.965        0.085      132.649       10.268        0.006      339.136       12.262      865.575
04/13/2014  21:12:00      -69.495      -54.360        1.668       46.555       30.047       24.293     2167.325      902.821      590.149        0.572        0.183       88.230       24.072        0.074      339.104       12.209      865.585
04/13/2014  21:13:00      -52.224      -36.096       12.640       58.783       38.011       27.834     3455.428     1444.802      774.749        0.493        0.284       63.485       29.641        0.218      338.972       11.986      865.595
04/13/2014  21:14:00      -68.260      -49.964       -2.235       65.000       35.549       27.594     4224.976     1263.729      761.415        0.670        0.313       84.592       24.628        0.085      339.015       12.058      865.605
04/13/2014  21:15:00      -76.288      -80.475        0.755       45.911       40.627       23.139     2107.843     1650.578      535.405        0.829        0.215      110.888       23.309        0.044      339.047       12.112      865.628
04/13/2014  21:16:00      -33.442      -30.319       13.472       52.466       31.489       24.846     2752.699      991.530      617.304        0.329        0.218       45.140       27.709        0.377      338.966       11.977      865.643
04/13/2014  21:17:00      -68.512      -62.180        0.962       35.678       32.045       25.626     1272.916     1026.862      656.704        0.576        0.148       92.522       17.043        0.034      339.072       12.153      865.667
04/13/2014  21:18:00     -100.581      -23.836      -11.554       29.861       28.499       16.918      891.695      812.175      286.218        0.640        0.100      103.367       17.176        0.028      338.992       12.020      865.695
04/13/2014  21:19:00      -37.814      -36.863        1.363       61.273       27.945       23.809     3754.358      780.920      566.852        0.395        0.255       52.809       27.069        0.263      339.013       12.054      865.701
04/13/2014  21:20:00     -129.171      -92.324       -3.697       63.454       39.373       22.381     4026.467     1550.258      500.891        1.565        0.304      158.773       20.136        0.016      339.108       12.216      865.718
04/13/2014  21:21:00     -144.105     -110.279       -9.253       29.411       32.669       21.295      865.021     1067.275      453.472        1.770        0.119      181.460       13.185        0.005      339.103       12.207      865.730
04/13/2014  21:22:00      -91.246      -77.219       -4.106       49.356       36.556       24.954     2435.981     1336.339      622.714        0.935        0.220      119.535       14.242        0.014      339.181       12.339      865.736
04/13/2014  21:23:00      -36.721      -63.864        1.318       49.793       33.130       28.403     2479.372     1097.592      806.748        0.491        0.219       73.668       29.976        0.166      339.186       12.346      865.736
04/13/2014  21:24:00      -23.034      -87.699       -6.359       28.077       39.151       22.874      788.338     1532.768      523.201        0.555        0.142       90.673       21.185        0.055      339.259       12.470      865.757
04/13/2014  21:25:00      -43.788     -117.029      -14.085       62.499       59.168       39.120     3906.185     3500.808     1530.401        1.237        0.447      124.953       44.770        0.128      339.323       12.575      865.738
04/13/2014  21:26:00       13.703       -9.924        7.503       25.985       42.552       22.102      675.216     1810.694      488.488        0.166        0.149       16.919       21.709        1.646      339.202       12.373      865.720
04/13/2014  21:27:00       17.804       -3.653       16.844       31.488       32.511       29.693      991.479     1056.986      881.701        0.177        0.147       18.175       28.542        2.466      339.233       12.425      865.750
04/13/2014  21:28:00       71.309       22.944        1.296       60.286       37.522       34.804     3634.430     1407.876     1211.333        0.593        0.313       74.910       32.054        0.183      339.161       12.304      865.765
04/13/2014  21:29:00       66.489       35.448        7.342       32.575       52.106       33.797     1061.138     2715.028     1142.230        0.532        0.246       75.348       33.623        0.199      339.390       12.688      865.757
04/13/2014  21:30:00       21.229      123.396      -16.209       33.324       48.934       24.527     1110.499     2394.531      601.593        1.002        0.205      125.209       25.551        0.042      339.408       12.721      865.758
04/13/2014  21:31:00       56.453       44.687        3.807       36.696       40.796       30.708     1346.604     1664.333      942.980        0.458        0.198       71.999       13.608        0.036      339.135       12.261      865.757
04/13/2014  21:32:00       78.484       67.258       -3.389       35.263       43.040       35.912     1243.456     1852.427     1289.687        0.754        0.219      103.360       24.937        0.058      339.272       12.491      865.773
04/13/2014  21:33:00       34.963       49.917        2.850       29.260       35.355       25.371      856.141     1249.983      643.686        0.324        0.137       60.944       15.826        0.067      339.199       12.370      865.788
04/13/2014  21:34:00       29.180       55.031       -4.120       30.379       40.304       23.130      922.864     1624.381      534.987        0.349        0.154       62.289       22.228        0.127      339.235       12.429      865.804
04/13/2014  21:35:00       51.607       40.139        0.103       41.519       44.778       30.077     1723.797     2005.107      904.606        0.445        0.232       65.379       22.622        0.120      339.036       12.095      865.810
04/13/2014  21:36:00       54.294      111.152      -19.145       36.096       38.819       27.338     1302.949     1506.923      747.340        0.961        0.178      123.704       23.475        0.036      339.161       12.305      865.819
04/13/2014  21:37:00       47.347      135.625      -20.985       30.678       40.084       23.237      941.114     1606.756      539.974        1.208        0.154      143.652       22.407        0.024      339.210       12.388      865.823
04/13/2014  21:38:00       74.053       78.074        4.695       43.574       50.414       32.314     1898.692     2541.601     1044.191        0.854        0.274      107.607       27.870        0.067      339.071       12.153      865.827
04/13/2014  21:39:00       58.583       47.527       -0.325       30.188       19.161       20.100      911.290      367.127      404.026        0.369        0.084       75.438       14.071        0.035      339.046       12.111      865.851
04/13/2014  21:40:00       49.483       30.517       12.100       49.762       27.882       24.305     2476.213      777.383      590.737        0.368        0.192       58.136       12.717        0.048      339.030       12.084      865.871
04/13/2014  21:41:00       57.694       34.921        6.493       32.428       27.612       20.753     1051.577      762.440      430.686        0.342        0.112       67.439       11.601        0.030      338.908       11.880      865.883
04/13/2014  21:42:00       88.092       64.869        6.304       43.119       29.664       19.792     1859.244      879.981      391.735        0.757        0.157      109.399       15.724        0.021      339.033       12.089      865.886
04/13/2014  21:43:00       37.941       45.621        1.201       28.488       29.044       24.227      811.585      843.546      586.942        0.288        0.112       59.336       19.056        0.103      339.006       12.044      865.882
04/13/2014  21:44:00       24.074       19.846       -5.988       15.425       26.869       14.153      237.922      721.953      200.301        0.108        0.058       31.200        7.305        0.055      339.044       12.107      865.880
04/13/2014  21:45:00       38.490       31.639       -2.146       20.986       21.701       18.900      440.426      470.930      357.224        0.188        0.063       49.825       14.925        0.090      339.050       12.120      865.895
04/13/2014  21:46:00       37.257       34.881       -4.986       17.049       16.936       16.354      290.672      286.834      267.457        0.174        0.042       51.037       13.157        0.066      339.023       12.072      865.898
04/13/2014  21:47:00        9.350       22.587       -6.121       11.127       18.351        8.551      123.801      336.776       73.120        0.058        0.027       24.446       10.876        0.198      338.942       11.935      865.901
04/13/2014  21:48:00       12.084       56.117      -12.978        8.930       10.990        5.646       79.739      120.784       31.881        0.185        0.012       57.404        4.506        0.006      338.991       12.020      865.909
04/13/2014  21:49:00        5.365       76.545      -14.684        9.187       10.821        5.380       84.408      117.096       28.950        0.317        0.012       76.733        5.666        0.005      339.051       12.118      865.922
04/13/2014  21:50:00      -12.491      101.756      -21.607       16.279       20.016       10.395      265.006      400.653      108.055        0.588        0.039      102.520       12.622        0.015      339.137       12.262      865.934
04/13/2014  21:51:00      -36.290       61.589      -11.419       21.948       28.041       16.490      481.718      786.295      271.916        0.339        0.077       71.485       10.999        0.024      339.096       12.196      865.945
04/13/2014  21:52:00      -62.733       61.077      -15.997       21.530       17.726       12.315      463.532      314.223      151.668        0.443        0.046       87.555        9.281        0.011      338.964       11.973      865.959
04/13/2014  21:53:00      -63.444       45.257      -14.355       14.113       19.564       13.802      199.167      382.760      190.506        0.353        0.039       77.932        9.634        0.015      338.992       12.021      865.964
04/13/2014  21:54:00      -59.705       54.628      -13.699       24.134       21.952       12.543      582.452      481.909      157.316        0.398        0.061       80.925       13.722        0.029      338.998       12.031      865.968
04/13/2014  21:55:00      -83.038       56.692      -23.911       23.828       20.147       15.338      567.797      405.899      235.239        0.594        0.060      100.545       10.761        0.011      338.953       11.954      865.980
04/13/2014  21:56:00      -45.885       31.387       -9.270       24.828       28.338       16.985      616.411      803.066      288.482        0.244        0.085       55.593       16.314        0.086      338.895       11.858      865.992
04/13/2014  21:57:00      -50.151       19.619       -3.681       21.648       20.843       15.014      468.641      434.414      225.417        0.202        0.056       53.852       10.567        0.039      338.921       11.901      865.996
04/13/2014  21:58:00      -71.612      -25.344      -15.826       25.289       25.037       16.700      639.545      626.839      278.882        0.378        0.077       75.964        8.037        0.011      338.591       11.345      865.982
04/13/2014  21:59:00      -88.864      -36.187       -8.891       42.658       27.077       22.568     1819.700      733.183      509.306        0.617        0.153       95.950       16.798        0.031      338.405       11.032      865.975
04/13/2014  22:00:00      -95.887      -26.172       -9.477       37.890       39.387       20.937     1435.645     1551.315      438.362        0.670        0.171       99.394       16.824        0.029      338.433       11.081      865.987
04/13/2014  22:01:00      -94.023      -25.287       -8.267       38.638       48.248       21.151     1492.914     2327.879      447.365        0.691        0.213       97.364       16.787        0.030      338.432       11.079      866.003
04/13/2014  22:02:00     -115.129      -20.633      -12.820       61.488       27.484       22.058     3780.793      755.371      486.564        0.943        0.251      116.963       27.387        0.055      338.288       10.839      866.010
04/13/2014  22:03:00     -128.125      -11.432       -8.234       28.569       31.039       20.310      816.186      963.436      412.491        0.940        0.110      128.634       11.879        0.009      338.548       11.274      866.014
04/13/2014  22:04:00     -125.062      -77.500       -8.766       33.027       42.111       23.764     1090.791     1773.363      564.742        1.258        0.171      147.128       13.580        0.009      338.208       10.706      866.017
04/13/2014  22:05:00     -148.941      -53.559      -10.918       25.711       29.638       19.600      661.074      878.418      384.149        1.355        0.096      158.278       11.023        0.005      338.023       10.392      866.015
04/13/2014  22:06:00     -136.980      -37.820       -6.125       20.861       30.610       14.229      435.176      936.958      202.462        1.090        0.079      142.105       11.201        0.006      338.170       10.639      866.016
04/13/2014  22:07:00      -70.645      -49.097        6.196       50.143       25.999       17.866     2514.306      675.966      319.198        0.547        0.175       86.030       16.979        0.039      338.226       10.734      866.017
04/13/2014  22:08:00      -39.793      -35.185        5.641       39.693       34.072       22.397     1575.573     1160.911      501.621        0.305        0.162       53.117       21.903        0.170      338.158       10.620      866.007
04/13/2014  22:09:00      -70.047      -41.149        5.420       45.647       33.160       23.348     2083.649     1099.560      545.140        0.518        0.186       81.239       23.002        0.080      338.120       10.555      865.995
04/13/2014  22:10:00      -78.000      -39.112        3.413       36.830       16.586       16.563     1356.456      275.090      274.335        0.477        0.095       87.257       15.927        0.033      338.023       10.393      865.994
04/13/2014  22:11:00      -58.248      -51.950        5.215       45.494       24.088       18.482     2069.681      580.240      341.600        0.455        0.150       78.049       22.624        0.084      338.124       10.563      865.994
04/13/2014  22:12:00      -68.331      -49.348        5.351       43.785       36.058       23.219     1917.150     1300.189      539.114        0.544        0.188       84.287       20.148        0.057      338.182       10.660      865.994
04/13/2014  22:13:00      -91.891      -80.231        1.259       35.975       38.066       24.310     1294.205     1449.027      590.965        0.911        0.167      121.988       21.721        0.032      338.302       10.861      866.003
04/13/2014  22:14:00     -111.059      -93.027       -5.455       32.991       30.115       17.645     1088.432      906.924      311.362        1.166        0.115      144.873       17.995        0.015      338.313       10.880      866.018
04/13/2014  22:15:00      -75.140      -66.254        1.360       49.838       31.809       18.389     2483.842     1011.813      338.161        0.693        0.192      100.178       25.265        0.064      338.314       10.881      866.037
04/13/2014  22:16:00      -36.881      -40.453       11.474       41.167       30.042       25.848     1694.711      902.548      668.110        0.320        0.163       54.742       21.977        0.161      338.312       10.878      866.043
04/13/2014  22:17:00      -60.248      -41.996        5.814       39.621       22.939       21.790     1569.818      526.203      474.819        0.400        0.129       73.440       17.997        0.060      338.292       10.844      866.031
04/13/2014  22:18:00      -24.223      -26.458       12.731       38.579       25.528       18.798     1488.330      651.695      353.374        0.197        0.125       35.871       18.922        0.278      338.228       10.736      866.025
04/13/2014  22:19:00      -78.786      -47.115       -0.869       46.141       28.201       23.265     2129.010      795.292      541.283        0.595        0.173       91.799       26.302        0.082      338.232       10.743      866.028
04/13/2014  22:20:00     -112.655      -40.590       -1.343       23.898       27.791       18.726      571.107      772.345      350.674        0.802        0.085      119.745       14.662        0.015      338.102       10.526      866.026
04/13/2014  22:21:00     -113.943      -24.711       -9.943       16.286       23.314       13.520      265.238      543.528      182.789        0.734        0.050      116.592        8.133        0.005      338.011       10.372      866.018
04/13/2014  22:22:00      -91.491      -12.975      -10.946       36.381       22.773       17.103     1323.596      518.606      292.506        0.540        0.107       92.406       19.851        0.046      338.041       10.423      866.016
04/13/2014  22:23:00      -72.436      -13.919        6.290       33.194       31.811       19.233     1101.833     1011.926      369.905        0.398        0.124       73.761       20.219        0.075      338.171       10.641      866.023
04/13/2014  22:24:00      -95.915      -18.824       -5.252       28.653       26.918       17.633      820.989      724.561      310.922        0.572        0.093       97.745       15.473        0.025      338.215       10.716      866.012
04/13/2014  22:25:00      -98.178      -39.453       -4.723       23.984       24.959       14.448      575.244      622.965      208.731        0.631        0.070      105.808        9.411        0.008      337.920       10.220      866.001
04/13/2014  22:26:00      -93.108      -38.588       -1.128       41.910       39.393       28.889     1756.425     1551.779      834.563        0.715        0.207      100.787       26.676        0.070      337.759        9.949      865.992
04/13/2014  22:27:00      -55.305        4.535        2.819       48.820       28.474       24.062     2383.408      810.780      578.963        0.343        0.189       55.491       24.283        0.191      337.981       10.323      865.982
04/13/2014  22:28:00     -101.006       -2.812       -6.080       44.847       36.088       25.069     2011.272     1302.324      628.458        0.709        0.197      101.046       22.562        0.050      338.017       10.383      865.972
04/13/2014  22:29:00      -67.765      -32.614       -2.345       48.929       35.812       24.584     2394.019     1282.506      604.368        0.497        0.214       75.205       11.054        0.022      337.778        9.982      865.954
04/13/2014  22:30:00      -52.226       13.558        5.643       60.122       38.834       23.490     3614.661     1508.075      551.786        0.431        0.284       53.957       24.721        0.210      337.835       10.077      865.954
04/13/2014  22:31:00      -79.007        7.076        3.415       66.367       31.819       28.321     4404.612     1012.459      802.079        0.626        0.311       79.323       35.880        0.205      337.824       10.059      865.971
04/13/2014  22:32:00      -70.031      -21.462       -4.797       33.722       58.598       25.323     1137.202     3433.669      641.232        0.530        0.261       73.246       26.087        0.127      337.790       10.001      865.976
04/13/2014  22:33:00     -144.316        7.028      -19.862       62.330       30.772       24.070     3884.974      946.921      579.369        1.334        0.271      144.487       23.602        0.027      337.690        9.833      865.976
04/13/2014  22:34:00     -213.411       69.540      -16.498       54.648       37.394       27.398     2986.420     1398.277      750.626        2.789        0.257      224.455       21.185        0.009      337.899       10.181      865.985
04/13/2014  22:35:00     -186.633       61.186       -7.087       72.452       42.902       34.774     5249.255     1840.543     1209.248        2.346        0.415      196.407       32.282        0.027      337.898       10.182      865.982
04/13/2014  22:36:00     -204.714       74.347      -13.397       64.316       44.274       37.600     4136.493     1960.162     1413.726        2.756        0.376      217.797       26.832        0.015      337.786        9.994      865.980
04/13/2014  22:37:00     -177.847       50.037      -10.724       58.564       40.794       29.023     3429.743     1664.139      842.311        2.009        0.297      184.752       27.209        0.022      337.782        9.988      865.982
04/13/2014  22:38:00     -153.264       51.769       -9.804       53.010       37.781       31.187     2810.018     1427.422      972.644        1.574        0.261      161.771       29.137        0.032      337.893       10.175      865.973
04/13/2014  22:39:00     -112.168       15.471       -4.726       63.729       55.231       22.562     4061.348     3050.431      509.052        1.023        0.381      113.230       24.677        0.047      337.922       10.224      865.962
04/13/2014  22:40:00      -85.381       23.514       -2.375       37.919       39.417       25.177     1437.885     1553.682      633.906        0.574        0.181       88.560       17.504        0.039      337.955       10.278      865.956
04/13/2014  22:41:00      -77.069      -29.340       -5.521       41.970       30.863       26.669     1761.487      952.525      711.238        0.513        0.171       82.465       21.633        0.069      337.809       10.032      865.955
04/13/2014  22:42:00      -68.810      -12.327        1.636       53.059       43.133       26.211     2815.302     1860.451      687.012        0.513        0.268       69.906       30.753        0.194      337.571        9.635      865.956
04/13/2014  22:43:00      -71.088      -25.087       -8.156       18.459       23.790       14.811      340.728      565.970      219.362        0.344        0.056       75.384        8.019        0.011      337.598        9.680      865.963
04/13/2014  22:44:00      -64.262      -39.461       -7.255       21.765       17.712       15.198      473.725      313.706      230.992        0.338        0.051       75.411        9.482        0.016      337.469        9.464      865.954
04/13/2014  22:45:00      -55.124      -23.023       -7.384       27.280       20.038       12.711      744.205      401.536      161.564        0.247        0.065       59.739       11.038        0.034      337.495        9.506      865.955
04/13/2014  22:46:00      -63.356      -23.597      -11.528       17.520       17.490       10.598      306.938      305.909      112.319        0.271        0.036       67.608        3.516        0.003      337.415        9.374      865.958
04/13/2014  22:47:00      -69.694      -34.789       -8.241       16.981       22.235       13.557      288.364      494.384      183.800        0.355        0.048       77.894        9.392        0.015      337.296        9.174      865.954
04/13/2014  22:48:00      -57.486       -6.380       -9.037       22.688       23.649       16.788      514.727      559.285      281.839        0.239        0.068       57.839        8.961        0.024      337.344        9.255      865.953
04/13/2014  22:49:00      -45.646      -15.086       -9.585       31.581       25.801       13.730      997.381      665.698      188.509        0.213        0.093       48.075       11.947        0.062      337.435        9.406      865.959
04/13/2014  22:50:00      -33.947      -10.955       -8.592       24.690       15.075       11.999      609.581      227.259      143.986        0.116        0.049       35.671        8.425        0.056      337.489        9.497      865.954
04/13/2014  22:51:00      -41.109       -5.232       -9.919       21.151       25.806       20.833      447.379      665.942      434.005        0.168        0.077       41.440       14.182        0.117      337.692        9.838      865.963
04/13/2014  22:52:00      -32.194        0.805      -11.051       16.639       18.353       12.935      276.871      336.840      167.303        0.097        0.039       32.204        7.842        0.059      337.590        9.667      865.983
04/13/2014  22:53:00      -34.920        3.393       -1.038       26.433       23.691       12.527      698.713      561.263      156.923        0.132        0.071       35.084       12.387        0.125      337.655        9.775      865.990
04/13/2014  22:54:00      -78.686      -28.412      -23.322       15.053       17.987       11.827      226.581      323.549      139.888        0.412        0.035       83.659        6.282        0.006      337.067        8.791      865.990
04/13/2014  22:55:00     -112.451      -12.172      -12.463       31.566       24.476       19.607      996.441      599.095      384.430        0.746        0.099      113.108        4.532        0.002      336.999        8.676      865.995
04/13/2014  22:56:00     -150.767      -19.959      -16.097       24.263       28.897       17.026      588.697      835.020      289.884        1.255        0.086      152.082        9.466        0.004      336.952        8.599      865.998
04/13/2014  22:57:00     -123.079      -36.808      -13.049       29.847       24.930       21.784      890.852      621.506      474.545        0.933        0.099      128.465       14.435        0.013      336.903        8.517      865.994
04/13/2014  22:58:00      -22.072      -51.166        4.950       37.857       23.472       22.833     1433.150      550.936      521.350        0.282        0.125       55.724       19.340        0.120      337.059        8.776      866.007
04/13/2014  22:59:00      -14.061      -67.090       -5.374       34.068       31.995       23.580     1160.613     1023.685      556.012        0.373        0.137       68.548       14.127        0.042      337.080        8.812      866.027
04/13/2014  23:00:00      -86.519      -84.725       -2.942       40.703       31.880       18.552     1656.698     1016.316      344.167        0.884        0.151      121.094       21.259        0.031      337.190        8.997      866.025
04/13/2014  23:01:00     -107.970      -47.308       -4.095       25.533       29.487       13.509      651.959      869.509      182.483        0.781        0.085      117.879        9.310        0.006      337.210        9.032      866.013
04/13/2014  23:02:00      -16.591      -31.674        8.016       30.550       26.551       14.809      933.273      704.948      219.314        0.160        0.093       35.756       10.632        0.088      337.291        9.166      866.015
04/13/2014  23:03:00      -17.278      -25.354       -1.981       22.527       16.056       10.425      507.477      257.796      108.685        0.091        0.044       30.681        6.328        0.043      337.426        9.392      866.028
04/13/2014  23:04:00      -25.118      -40.350       -7.662       31.328       23.958       12.306      981.466      573.982      151.435        0.201        0.085       47.529       13.142        0.076      337.486        9.492      866.036
04/13/2014  23:05:00      -62.260      -34.768       -0.674       31.447       24.753       18.278      988.905      612.690      334.073        0.351        0.097       71.310       14.553        0.042      337.461        9.449      866.035
04/13/2014  23:06:00      -66.405      -33.396       -3.045       33.004       25.540       17.228     1089.288      652.297      296.817        0.379        0.102       74.330        7.781        0.011      337.437        9.410      866.020
04/13/2014  23:07:00      -54.407      -19.382       -5.874       12.728       11.947        7.256      162.007      142.737       52.650        0.186        0.018       57.756        7.264        0.016      337.502        9.519      866.012
04/13/2014  23:08:00      -37.454      -19.325      -15.019       13.336        8.945        8.024      177.854       80.007       64.379        0.116        0.016       42.145        4.653        0.012      337.695        9.841      866.014
04/13/2014  23:09:00      -25.153      -23.108       -3.557       40.512       16.727       14.078     1641.209      279.807      198.185        0.165        0.106       34.156       11.983        0.123      337.665        9.792      866.013
04/13/2014  23:10:00        4.328       -5.440       10.988       10.263        9.635        9.127      105.320       92.834       83.294        0.023        0.014        6.952        3.261        0.220      337.512        9.537      866.014
04/13/2014  23:11:00      -19.783      -13.070        7.031       29.787       14.341       10.263      887.265      205.674      105.321        0.090        0.060       23.711        9.640        0.165      337.486        9.492      866.033
04/13/2014  23:12:00      -80.790      -23.960       -9.568       14.143       16.870       12.547      200.031      284.611      157.422        0.392        0.032       84.268        5.304        0.004      337.391        9.335      866.050
04/13/2014  23:13:00     -110.068      -29.692      -11.063       10.798       14.119        8.807      116.593      199.347       77.571        0.676        0.020      114.002        5.716        0.003      337.285        9.155      866.049
04/13/2014  23:14:00      -96.459      -31.822       -4.105       19.440       19.542       14.035      377.895      381.871      196.991        0.565        0.048      101.572        5.186        0.003      337.275        9.140      866.055
04/13/2014  23:15:00      -85.764      -28.976      -10.306       26.738       18.791       13.343      714.914      353.094      178.046        0.477        0.062       90.526       13.317        0.022      337.211        9.033      866.058
04/13/2014  23:16:00      -72.781      -27.312       -1.985       26.716       26.807       16.248      713.759      718.606      263.989        0.387        0.085       77.737       15.219        0.038      337.343        9.254      866.047
04/13/2014  23:17:00      -76.460      -20.289      -10.020       16.141       10.486        7.612      260.547      109.962       57.944        0.339        0.021       79.106        5.152        0.004      337.318        9.211      866.063
04/13/2014  23:18:00      -53.201      -19.710       -4.026       12.491        8.316        6.988      156.028       69.153       48.834        0.175        0.014       56.735        5.836        0.011      337.454        9.439      866.088
04/13/2014  23:19:00      -46.275      -24.731       -0.366       22.937       12.525        9.866      526.088      156.868       97.334        0.177        0.039       52.469       10.441        0.040      337.416        9.375      866.120
04/13/2014  23:20:00      -65.427      -10.817       -6.983       10.726        8.601        6.964      115.043       73.975       48.493        0.234        0.012       66.315        3.392        0.003      337.365        9.291      866.129
04/13/2014  23:21:00      -72.708       -8.681      -13.752       10.700       11.680       10.191      114.482      136.413      103.849        0.295        0.018       73.225        5.938        0.007      337.360        9.282      866.125
04/13/2014  23:22:00      -78.891      -32.092      -11.872       21.513       14.229       11.979      462.827      202.462      143.491        0.410        0.040       85.169        9.028        0.011      337.286        9.159      866.130
04/13/2014  23:23:00      -58.164      -24.788      -11.273       19.220       17.548        9.344      369.403      307.920       87.313        0.244        0.038       63.226        5.573        0.008      337.306        9.192      866.140
04/13/2014  23:24:00      -65.005      -19.623      -10.549       13.127       17.474       10.605      172.328      305.350      112.458        0.266        0.030       67.902        8.704        0.016      337.230        9.062      866.155
04/13/2014  23:25:00      -93.988      -33.167      -15.732       16.853       14.876       15.298      284.034      221.307      234.016        0.546        0.037       99.669        9.822        0.010      337.009        8.694      866.152
04/13/2014  23:26:00     -102.321      -25.238      -24.658       20.245       13.029       10.701      409.849      169.751      114.509        0.620        0.035      105.387       10.161        0.009      336.979        8.643      866.139
04/13/2014  23:27:00      -99.072      -15.836      -18.755       20.543       15.936       12.081      422.017      253.955      145.958        0.562        0.041      100.330        9.125        0.008      336.807        8.357      866.124
04/13/2014  23:28:00      -68.322      -23.143      -10.271       11.224       17.186       12.616      125.971      295.345      159.164        0.294        0.029       72.135        8.459        0.014      336.953        8.600      866.114
04/13/2014  23:29:00      -77.043      -26.278      -19.878       20.524       17.394       12.683      421.250      302.567      160.863        0.395        0.044       81.401       11.018        0.018      337.048        8.759      866.105
04/13/2014  23:30:00      -80.326      -29.343      -10.016       10.705       16.452       11.515      114.587      270.660      132.605        0.397        0.026       85.518        7.115        0.007      336.987        8.657      866.092
04/13/2014  23:31:00      -57.281      -17.874       -8.087       24.874       19.985       13.683      618.719      399.388      187.226        0.244        0.060       60.005        9.664        0.026      337.001        8.680      866.074
04/13/2014  23:32:00        1.770       25.666       -0.937       19.455       36.900       11.941      378.478     1361.647      142.579        0.127        0.094       25.727        9.572        0.138      337.137        8.908      866.074
04/13/2014  23:33:00        3.071      111.452      -19.745       18.628       29.477       14.375      346.989      868.910      206.646        0.712        0.071      111.494       17.783        0.025      337.060        8.778      866.076
04/13/2014  23:34:00      -23.632       70.610       -7.072       29.645       32.647       21.300      878.855     1065.811      453.673        0.400        0.120       74.459       20.144        0.073      337.394        9.338      866.082
04/13/2014  23:35:00      -36.630       -0.484        0.237       23.228       30.053       12.648      539.518      903.199      159.978        0.147        0.080       36.633        8.231        0.050      337.269        9.130      866.085
04/13/2014  23:36:00      -82.730      -33.876      -16.900       10.153       16.548       10.852      103.076      273.839      117.759        0.439        0.025       89.397        7.015        0.006      336.810        8.362      866.075
04/13/2014  23:37:00      -73.980      -41.979      -13.225       30.485       20.434       15.342      929.305      417.561      235.368        0.450        0.079       85.060       15.630        0.034      336.702        8.182      866.083
04/13/2014  23:38:00     -105.036      -27.145      -21.265       27.995       19.433       15.842      783.734      377.647      250.966        0.682        0.071      108.487       10.139        0.009      336.690        8.162      866.102
04/13/2014  23:39:00     -108.349      -25.062      -15.210       16.994       19.341       16.848      288.787      374.057      283.854        0.677        0.047      111.210       10.186        0.008      336.645        8.087      866.115
04/13/2014  23:40:00     -102.430      -14.919      -22.318       18.640       23.655       13.334      347.463      559.555      177.788        0.615        0.054      103.511        6.024        0.003      336.788        8.324      866.114
04/13/2014  23:41:00      -86.597      -27.818      -11.583       22.876       30.343       15.906      523.297      920.713      252.985        0.505        0.085       90.955       10.543        0.013      336.710        8.195      866.116
04/13/2014  23:42:00      -90.114      -12.915      -10.543       32.568       25.038       18.837     1060.680      626.888      354.837        0.522        0.102       91.035       17.481        0.037      336.790        8.330      866.124
04/13/2014  23:43:00      -57.002      -17.863        2.872       48.588       28.472       19.762     2360.842      810.650      390.543        0.357        0.178       59.736       21.065        0.124      336.642        8.083      866.135
04/13/2014  23:44:00      -69.681      -16.621       -5.724       51.291       34.003       23.879     2630.766     1156.174      570.227        0.476        0.218       71.636       23.102        0.104      336.717        8.207      866.143
04/13/2014  23:45:00      -87.305      -30.435        2.202       32.764       32.194       19.431     1073.504     1036.479      377.554        0.552        0.124       92.458       17.002        0.034      336.573        7.965      866.137
04/13/2014  23:46:00      -74.788      -25.400       -0.498       49.129       34.913       19.510     2413.638     1218.947      380.646        0.513        0.201       78.984       12.666        0.026      336.686        8.155      866.124
04/13/2014  23:47:00      -40.718      -11.144       13.815       45.302       36.781       21.782     2052.265     1352.828      474.448        0.293        0.194       42.215       22.608        0.287      336.455        7.769      866.140
04/13/2014  23:48:00      -84.383      -26.122       -5.086       38.527       32.033       20.427     1484.356     1026.097      417.276        0.538        0.146       88.334       15.705        0.032      336.521        7.879      866.145
04/13/2014  23:49:00      -55.658      -17.174       -1.868       32.027       24.699       16.072     1025.743      610.030      258.318        0.264        0.095       58.248       15.156        0.068      336.449        7.759      866.150
04/13/2014  23:50:00      -44.832      -32.198       -7.294       42.775       24.900       14.271     1829.678      620.012      203.667        0.288        0.133       55.196        6.280        0.013      336.474        7.800      866.153
04/13/2014  23:51:00      -48.981      -25.179       -1.686       24.111       32.212       15.114      581.324     1037.609      228.419        0.244        0.092       55.073        9.904        0.032      336.467        7.789      866.158
04/13/2014  23:52:00      -59.935       -8.231      -13.556       35.832       33.528       13.961     1283.926     1124.097      194.917        0.322        0.130       60.497       11.063        0.033      336.505        7.854      866.153
04/13/2014  23:53:00      -77.725      -14.252      -12.354       26.756       22.022       18.245      715.859      484.964      332.884        0.396        0.077       79.020       15.080        0.036      336.481        7.811      866.142
04/13/2014  23:54:00      -91.216       -8.806      -15.483       25.803       25.387       16.760      665.797      644.494      280.907        0.511        0.080       91.640       10.461        0.013      336.568        7.958      866.143
04/13/2014  23:55:00      -72.650      -24.776      -12.396       19.676       24.275       12.833      387.143      589.274      164.675        0.359        0.057       76.758       10.923        0.020      336.567        7.955      866.142
04/13/2014  23:56:00      -66.261      -34.332      -11.386       21.258       22.183       14.774      451.920      492.101      218.280        0.343        0.058       74.627       11.006        0.022      336.487        7.822      866.147
04/13/2014  23:57:00     -102.755      -13.859      -12.389       29.867       20.720       14.039      892.022      429.310      197.081        0.621        0.076      103.685       11.095        0.011      336.306        7.518      866.161
04/13/2014  23:58:00     -101.894       -7.905      -19.627       14.479       17.457       12.077      209.631      304.749      145.859        0.575        0.033      102.200        7.613        0.006      336.394        7.667      866.171
04/13/2014  23:59:00      -82.000        0.108      -20.824       21.664       12.069        9.833      469.313      145.653       96.687        0.393        0.036       82.000       10.641        0.017      336.504        7.852      866.165
